ftp/pub/palmer/observations_modified/2019/August/AR190819_BASE.txt

Download

Sample DateTime	Unit Id	WS Avg 2min	WD Avg 2min	WGS 10min	WGD 10min	Air Temp	Rel Humidity	Dew Point	Pyranometer	Quantum	Air Pressure	Snow Level	Rainfall	PW Current	Visibility	CBase 1	CBase 2	CBase 3	Vert Vis
2019/08/19  00:00:03  BASE  3.01644  320  6.53268  309  -3.2  100   -3.2  0     0     1004.2   NA       0.0000   9999     590   0     0    
2019/08/19  00:01:02  BASE  2.77536  325  6.53268  309  -3.2  100   -3.2  0     0     1004.2   NA       0.0000   9999     490   0     0    
2019/08/19  00:02:02  BASE  2.66952  328  4.41588  336  -3.2  100   -3.2  0     0     1004.2   NA       0.0000   9999     430   0     0    
2019/08/19  00:03:02  BASE  2.8224   324  4.41588  336  -3.3  100   -3.3  0     0     1004.1   NA       0.0000   9999     490   0     0    
2019/08/19  00:04:02  BASE  2.94     318  4.35708  308  -3.2  100   -3.2  0     0     1004.1   NA       0.0000   9999     590   0     0    
2019/08/19  00:05:03  BASE  3.13404  317  4.78044  316  -3.3  100   -3.3  0     0     1004.0   NA       0.0000   9999     660   0     0    
2019/08/19  00:06:03  BASE  3.5868   317  4.99212  321  -3.3  100   -3.3  0     0     1004.0   NA       0.0000   9999     0     0     0    
2019/08/19  00:07:02  BASE  3.42216  316  4.99212  321  -3.3  100   -3.3  0     0     1004.1   NA       0.0000   9999     0     0     0    
2019/08/19  00:08:02  BASE  3.07524  320  4.99212  321  -3.4  100   -3.4  0     0     1004.1   NA       0.0000   9999     690   0     0    
2019/08/19  00:09:02  BASE  3.53388  323  4.99212  321  -3.4  100   -3.4  0     0     1004.2   NA       0.0000   9999     690   0     0    
2019/08/19  00:10:02  BASE  3.77496  328  4.99212  321  -3.4  100   -3.4  0     0     1004.2   NA       0.0000   9999     0     0     0    
2019/08/19  00:11:02  BASE  3.32808  335  4.99212  321  -3.4  100   -3.4  0     0     1004.3   NA       0.0000   9999     0     0     0    
2019/08/19  00:12:02  BASE  2.98704  345  4.99212  321  -3.4  100   -3.4  0     0     1004.3   NA       0.0000   9999     0     0     0    
2019/08/19  00:13:02  BASE  3.19284  344  4.99212  321  -3.4  100   -3.4  0     0     1004.4   NA       0.0000   9999     0     0     0    
2019/08/19  00:14:02  BASE  3.4104   338  4.99212  321  -3.4  100   -3.4  0     0     1004.4   NA       0.0000   9999     790   0     0    
2019/08/19  00:15:02  BASE  3.42804  345  4.99212  321  -3.5  100   -3.5  0     0     1004.4   NA       0.0000   9999     790   0     0    
2019/08/19  00:16:02  BASE  2.95176  347  4.35708  314  -3.5  100   -3.5  0     0     1004.5   NA       0.0000   9999     950   0     0    
2019/08/19  00:17:03  BASE  2.42844  343  4.35708  314  -3.6  100   -3.6  0     0     1004.6   NA       0.0000   9999     820   0     0    
2019/08/19  00:18:02  BASE  2.0874   343  4.35708  314  -3.6  100   -3.6  0     0     1004.7   NA       0.0000   9999     850   0     0    
2019/08/19  00:19:02  BASE  1.78164  339  4.263    353  -3.5  100   -3.5  0     0     1004.7   NA       0.0000   9999     790   0     0    
2019/08/19  00:20:02  BASE  1.9698   348  4.05132  338  -3.5  100   -3.5  0     0     1004.7   NA       0.0000   9999     1380  0     0    
2019/08/19  00:21:02  BASE  2.36964  4    3.99252  333  -3.5  100   -3.5  0     0     1004.7   NA       0.0000   9999     1380  2070  0    
2019/08/19  00:22:02  BASE  2.54016  357  3.99252  333  -3.4  100   -3.4  0     0     1004.7   NA       0.0000   9999     1380  0     0    
2019/08/19  00:23:02  BASE  2.26968  346  3.99252  333  -3.4  100   -3.4  0     0     1004.6   NA       0.0000   9999     1250  0     0    
2019/08/19  00:24:02  BASE  2.25792  346  3.65736  334  -3.4  100   -3.4  0     0     1004.6   NA       0.0000   9999     1310  0     0    
2019/08/19  00:25:02  BASE  2.61072  348  3.2046   2    -3.4  100   -3.4  0     0     1004.7   NA       0.0000   9999     920   1350  0    
2019/08/19  00:26:02  BASE  2.61072  350  3.2046   2    -3.4  100   -3.4  0     0     1004.7   NA       0.0000   9999     1310  0     0    
2019/08/19  00:27:02  BASE  2.55192  348  3.2046   2    -3.5  100   -3.5  0     0     1004.7   NA       0.0000   9999     1250  0     0    
2019/08/19  00:28:02  BASE  2.59308  344  3.2046   2    -3.5  100   -3.5  0     0     1004.7   NA       0.0000   9999     1120  0     0    
2019/08/19  00:29:02  BASE  2.66364  341  3.2046   2    -3.5  100   -3.5  0     0     1004.7   NA       0.0000   9999     1250  0     0    
2019/08/19  00:30:02  BASE  2.63424  338  3.2046   2    -3.5  100   -3.5  0     0     1004.7   NA       0.0000   9999     1150  0     0    
2019/08/19  00:31:02  BASE  2.72244  333  3.2046   2    -3.5  100   -3.5  0     0     1004.6   NA       0.0000   9999     1150  0     0    
2019/08/19  00:32:02  BASE  3.07524  320  3.59856  305  -3.6  100   -3.6  0     0     1004.6   NA       0.0000   9999     1180  0     0    
2019/08/19  00:33:02  BASE  3.6162   308  4.2042   307  -3.7  100   -3.7  0     0     1004.6   NA       0.0000   9999     1080  0     0    
2019/08/19  00:34:02  BASE  3.95724  310  4.44528  311  -3.8  100   -3.8  0     0     1004.5   NA       0.0000   9999     1120  0     0    
2019/08/19  00:35:02  BASE  3.93372  310  4.44528  311  -3.8  100   -3.8  0     0     1004.5   NA       0.0000   9999     0     0     0    
2019/08/19  00:36:02  BASE  3.95136  309  4.47468  329  -3.9  100   -3.9  0     0     1004.5   NA       0.0000   9999     0     0     0    
2019/08/19  00:37:02  BASE  4.33356  312  4.86864  308  -3.9  100   -3.9  0     0     1004.5   NA       0.0000   9999     0     0     0    
2019/08/19  00:38:02  BASE  4.09836  308  4.86864  308  -3.9  100   -3.9  0     0     1004.5   NA       0.0000   9999     0     0     0    
2019/08/19  00:39:02  BASE  3.55152  305  4.86864  308  -3.8  100   -3.8  0     0     1004.6   NA       0.0000   9999     0     0     0    
2019/08/19  00:40:02  BASE  3.61032  318  4.86864  308  -3.8  100   -3.8  0     0     1004.5   NA       0.0000   9999     0     0     0    
2019/08/19  00:41:02  BASE  4.116    331  4.93332  331  -3.9  100   -3.9  0     0     1004.5   NA       0.0000   9999     0     0     0    
2019/08/19  00:42:02  BASE  4.12188  328  4.93332  331  -3.9  100   -3.9  0     0     1004.6   NA       0.0000   9999     0     0     0    
2019/08/19  00:43:02  BASE  3.54564  327  4.93332  331  -3.9  100   -3.9  0     0     1004.6   NA       0.0000   9999     0     0     0    
2019/08/19  00:44:02  BASE  3.11052  333  4.93332  331  -4.0  100   -4.0  0     0     1004.7   NA       0.0000   9999     0     0     0    
2019/08/19  00:45:02  BASE  2.45196  337  4.93332  331  -4.1  100   -4.1  0     0     1004.7   NA       0.0000   9999     0     0     0    
2019/08/19  00:46:02  BASE  2.39904  345  4.93332  331  -4.1  100   -4.1  0     0     1004.7   NA       0.0000   9999     0     0     0    
2019/08/19  00:47:02  BASE  2.45196  359  4.93332  331  -4.0  100   -4.0  0     0     1004.7   NA       0.0000   9999     1210  0     0    
2019/08/19  00:48:03  BASE  2.44608  9    4.93332  331  -4.0  100   -4.0  0     0     1004.7   NA       0.0000   9999     1150  0     0    
2019/08/19  00:49:02  BASE  2.65188  12   4.93332  331  -4.0  100   -4.0  0     0     1004.7   NA       0.0000   9999     1150  0     0    
2019/08/19  00:50:02  BASE  2.51664  9    4.93332  331  -3.9  100   -3.9  0     0     1004.7   NA       0.0000   9999     1150  0     0    
2019/08/19  00:51:02  BASE  2.63424  351  4.59816  327  -3.9  100   -3.9  0     0     1004.6   NA       0.0000   9999     1150  0     0    
2019/08/19  00:52:02  BASE  2.96352  338  3.86904  324  -3.9  100   -3.9  0     0     1004.6   NA       0.0000   9999     1120  0     0    
2019/08/19  00:53:02  BASE  3.234    340  3.83964  348  -3.8  100   -3.8  0     0     1004.6   NA       0.0000   9999     1120  0     0    
2019/08/19  00:54:03  BASE  3.40452  332  4.08072  325  -3.8  100   -3.8  0     0     1004.6   NA       0.0000   9999     1050  0     0    
2019/08/19  00:55:02  BASE  3.19872  323  4.08072  325  -3.9  100   -3.9  0     0     1004.7   NA       0.0000   9999     980   0     0    
2019/08/19  00:56:03  BASE  2.86944  326  4.08072  325  -3.9  100   -3.9  0     0     1004.7   NA       0.0000   9999     1120  0     0    
2019/08/19  00:57:02  BASE  2.68128  329  4.08072  325  -3.9  100   -3.9  0     0     1004.7   NA       0.0000   9999     1120  0     0    
2019/08/19  00:58:02  BASE  2.59896  331  4.08072  325  -3.9  100   -3.9  0     0     1004.8   NA       0.0000   9999     1120  0     0    
2019/08/19  00:59:02  BASE  2.46372  334  4.08072  325  -3.9  100   -3.9  0     0     1004.8   NA       0.0000   9999     1150  0     0    
2019/08/19  01:00:03  BASE  2.3814   331  4.08072  325  -3.9  100   -3.9  0     0     1004.9   NA       0.0000   9999     1210  0     0    
2019/08/19  01:01:02  BASE  2.1756   321  4.08072  325  -3.9  100   -3.9  0     0     1004.9   NA       0.0000   9999     1150  0     0    
2019/08/19  01:02:02  BASE  1.93452  314  4.08072  325  -3.9  100   -3.9  0     0     1004.9   NA       0.0000   9999     1180  0     0    
2019/08/19  01:03:02  BASE  1.8522   318  4.08072  325  -3.9  100   -3.9  0     0     1004.9   NA       0.0000   9999     1180  0     0    
2019/08/19  01:04:02  BASE  1.764    326  3.35748  312  -4.0  100   -4.0  0     0     1004.9   NA       0.0000   9999     1180  0     0    
2019/08/19  01:05:03  BASE  1.8816   330  2.99292  328  -3.9  100   -3.9  0     0     1004.8   NA       0.0000   9999     1150  0     0    
2019/08/19  01:06:02  BASE  1.95216  337  2.96352  334  -3.9  100   -3.9  0     0     1004.8   NA       0.0000   9999     1080  0     0    
2019/08/19  01:07:02  BASE  1.75224  346  2.96352  334  -3.9  100   -3.9  0     0     1004.8   NA       0.0000   9999     1150  0     0    
2019/08/19  01:08:02  BASE  1.51704  347  2.96352  334  -3.9  100   -3.9  0     0     1004.9   NA       0.0000   9999     1150  0     0    
2019/08/19  01:09:02  BASE  1.62288  353  2.59896  320  -3.8  100   -3.8  0     0     1004.9   NA       0.0000   9999     1150  0     0    
2019/08/19  01:10:02  BASE  1.75224  7    2.1462   338  -3.8  100   -3.8  0     0     1005.0   NA       0.0000   9999     1150  0     0    
2019/08/19  01:11:03  BASE  1.75224  18   2.1462   338  -3.8  100   -3.8  0     0     1005.1   NA       0.0000   9999     1150  0     0    
2019/08/19  01:12:02  BASE  1.89924  27   2.1462   338  -3.8  100   -3.8  0     0     1005.2   NA       0.0000   9999     1120  0     0    
2019/08/19  01:13:02  BASE  2.04624  36   2.24028  31   -3.7  100   -3.7  0     0     1005.2   NA       0.0000   9999     1080  0     0    
2019/08/19  01:14:02  BASE  1.89336  34   2.24028  31   -3.7  100   -3.7  0     0     1005.2   NA       0.0000   9999     1050  0     0    
2019/08/19  01:15:02  BASE  1.54644  29   2.24028  31   -3.6  100   -3.6  0     0     1005.2   NA       0.0000   9999     1050  0     0    
2019/08/19  01:16:03  BASE  1.13484  29   2.24028  31   -3.5  100   -3.5  0     0     1005.2   NA       0.0000   9999     1020  0     0    
2019/08/19  01:17:02  BASE  0.95256  37   2.24028  31   -3.5  100   -3.5  0     0     1005.3   NA       0.0000   9999     1020  0     0    
2019/08/19  01:18:02  BASE  0.68208  39   2.24028  31   -3.4  100   -3.4  0     0     1005.3   NA       0.0000   9999     980   0     0    
2019/08/19  01:19:03  BASE  0.15288  14   2.24028  31   -3.3  100   -3.3  0     0     1005.3   NA       0.0000   9999     1020  0     0    
2019/08/19  01:20:02  BASE  0        324  2.24028  31   -3.3  100   -3.3  0     0     1005.3   NA       0.0000   9999     1020  0     0    
2019/08/19  01:21:03  BASE  0.47628  297  2.24028  31   -3.2  100   -3.2  0     0     1005.3   NA       0.0000   9999     980   0     0    
2019/08/19  01:22:02  BASE  1.27008  305  2.24028  31   -3.3  100   -3.3  0     0     1005.3   NA       0.0000   9999     1020  0     0    
2019/08/19  01:23:02  BASE  1.54056  320  2.058    312  -3.3  100   -3.3  0     0     1005.3   NA       0.0000   9999     1050  0     0    
2019/08/19  01:24:02  BASE  1.74636  331  2.35788  337  -3.4  100   -3.4  0     0     1005.3   NA       0.0000   9999     1050  0     0    
2019/08/19  01:25:03  BASE  2.22852  340  2.63424  345  -3.5  100   -3.5  0     0     1005.3   NA       0.0000   9999     1050  0     0    
2019/08/19  01:26:02  BASE  2.66952  341  3.02232  336  -3.5  100   -3.5  0     0     1005.3   NA       0.0000   9999     950   0     0    
2019/08/19  01:27:02  BASE  2.94588  338  3.1458   336  -3.6  100   -3.6  0     0     1005.3   NA       0.0000   9999     750   0     0    
2019/08/19  01:28:02  BASE  2.8812   336  3.1458   336  -3.7  100   -3.7  0     0     1005.3   NA       0.0000   9999     850   0     0    
2019/08/19  01:29:02  BASE  2.68716  338  3.1458   336  -3.7  100   -3.7  0     0     1005.3   NA       0.0000   9999     1050  0     0    
2019/08/19  01:30:03  BASE  2.59896  337  3.1458   336  -3.7  100   -3.7  0     0     1005.3   NA       0.0000   9999     1050  0     0    
2019/08/19  01:31:03  BASE  2.45784  340  3.1458   336  -3.8  100   -3.8  0     0     1005.3   NA       0.0000   9999     1020  0     0    
2019/08/19  01:32:02  BASE  2.52252  346  3.1458   336  -3.8  100   -3.8  0     0     1005.3   NA       0.0000   9999     1050  0     0    
2019/08/19  01:33:02  BASE  2.62836  350  3.1458   336  -3.7  100   -3.7  0     0     1005.3   NA       0.0000   9999     920   0     0    
2019/08/19  01:34:02  BASE  2.37552  354  3.1458   336  -3.7  100   -3.7  0     0     1005.4   NA       0.0000   9999     790   0     0    
2019/08/19  01:35:02  BASE  1.8522   344  3.1458   336  -3.6  100   -3.6  0     0     1005.4   NA       0.0000   9999     1020  0     0    
2019/08/19  01:36:02  BASE  1.35828  329  3.1458   336  -3.5  100   -3.5  0     0     1005.4   NA       0.0000   9999     1020  0     0    
2019/08/19  01:37:02  BASE  1.38768  326  2.84592  337  -3.4  100   -3.4  0     0     1005.5   NA       0.0000   9999     820   0     0    
2019/08/19  01:38:02  BASE  1.47588  326  2.81064  351  -3.3  100   -3.3  0     0     1005.6   NA       0.0000   9999     720   0     0    
2019/08/19  01:39:02  BASE  1.30536  331  2.81064  351  -3.3  100   -3.3  0     0     1005.6   NA       0.0000   9999     950   0     0    
2019/08/19  01:40:02  BASE  1.31712  339  2.81064  351  -3.2  100   -3.2  0     0     1005.6   NA       0.0000   9999     980   0     0    
2019/08/19  01:41:02  BASE  1.34064  353  2.81064  351  -3.3  100   -3.3  0     0     1005.6   NA       0.0000   9999     890   0     0    
2019/08/19  01:42:02  BASE  1.176    3    2.75184  353  -3.3  100   -3.3  0     0     1005.7   NA       0.0000   9999     950   0     0    
2019/08/19  01:43:02  BASE  0.9702   360  2.63424  5    -3.3  100   -3.3  0     0     1005.7   NA       0.0000   9999     690   0     0    
2019/08/19  01:44:02  BASE  0.95844  9    1.75224  335  -3.3  100   -3.3  0     0     1005.7   NA       0.0000   9999     620   0     0    
2019/08/19  01:45:02  BASE  1.10544  14   1.75224  335  -3.3  100   -3.3  0     0     1005.7   NA       0.0000   9999     620   0     0    
2019/08/19  01:46:02  BASE  1.15836  354  1.75224  335  -3.3  100   -3.3  0     0     1005.7   NA       0.0000   9999     720   0     0    
2019/08/19  01:47:02  BASE  0.74088  342  1.75224  335  -3.2  100   -3.2  0     0     1005.7   NA       0.0000   9999     950   0     0    
2019/08/19  01:48:02  BASE  0.2352   341  1.48176  340  -3.2  100   -3.2  0     0     1005.7   NA       0.0000   9999     820   0     0    
2019/08/19  01:49:02  BASE  0.12348  345  1.48176  340  -3.2  100   -3.2  0     0     1005.8   NA       0.0000   9999     690   0     0    
2019/08/19  01:50:03  BASE  0.45276  347  1.48176  340  -3.2  100   -3.2  0     0     1005.8   NA       0.0000   9999     690   0     0    
2019/08/19  01:51:03  BASE  0.98784  340  1.48176  332  -3.2  100   -3.2  0     0     1005.8   NA       0.0000   9999     790   0     0    
2019/08/19  01:52:02  BASE  1.37592  331  1.69344  330  -3.2  100   -3.2  0     0     1005.8   NA       0.0000   9999     750   0     0    
2019/08/19  01:53:03  BASE  1.60524  330  2.058    327  -3.2  100   -3.2  0     0     1005.8   NA       0.0000   9999     790   0     0    
2019/08/19  01:54:02  BASE  1.75812  326  2.058    327  -3.3  100   -3.3  0     0     1005.8   NA       0.0000   9999     660   0     0    
2019/08/19  01:55:02  BASE  2.01096  316  2.63424  316  -3.3  100   -3.3  0     0     1005.9   NA       0.0000   9999     750   0     0    
2019/08/19  01:56:02  BASE  2.31672  315  2.78124  323  -3.3  100   -3.3  0     0     1005.9   NA       0.0000   9999     850   0     0    
2019/08/19  01:57:02  BASE  2.32848  319  2.78124  323  -3.4  100   -3.4  0     0     1005.9   NA       0.0000   9999     720   0     0    
2019/08/19  01:58:03  BASE  2.15796  321  2.78124  323  -3.4  100   -3.4  0     0     1005.9   NA       0.0000   9999     660   0     0    
2019/08/19  01:59:02  BASE  2.24616  320  2.78124  323  -3.5  100   -3.5  0     0     1005.9   NA       0.0000   9999     520   0     0    
2019/08/19  02:00:03  BASE  2.31672  314  2.78124  323  -3.5  100   -3.5  0     0     1005.9   NA       0.0000   9999     430   0     0    
2019/08/19  02:01:02  BASE  2.06976  307  2.78124  323  -3.4  100   -3.4  0     0     1006.0   NA       0.0000   9999     390   0     0    
2019/08/19  02:02:02  BASE  1.97568  309  2.78124  323  -3.4  100   -3.4  0     0     1006.1   NA       0.0000   9999     430   0     0    
2019/08/19  02:03:02  BASE  2.63424  315  3.48096  320  -3.3  100   -3.3  0     0     1006.1   NA       0.0000   9999     430   0     0    
2019/08/19  02:04:02  BASE  3.2928   317  3.78084  315  -3.3  100   -3.3  0     0     1006.1   NA       0.0000   9999     520   0     0    
2019/08/19  02:05:04  BASE  3.33984  328  3.78084  315  -3.3  100   -3.3  0     0     1006.1   NA       0.0000   9999     820   0     0    
2019/08/19  02:06:02  BASE  2.7636   340  3.78084  315  -3.4  100   -3.4  0     0     1006.2   NA       0.0000   9999     850   0     0    
2019/08/19  02:07:02  BASE  2.05212  339  3.78084  315  -3.4  100   -3.4  0     0     1006.2   NA       0.0000   9999     690   0     0    
2019/08/19  02:08:02  BASE  1.93452  330  3.78084  315  -3.5  100   -3.5  0     0     1006.3   NA       0.0000   9999     620   0     0    
2019/08/19  02:09:02  BASE  2.01096  321  3.78084  315  -3.5  100   -3.5  0     0     1006.3   NA       0.0000   9999     660   0     0    
2019/08/19  02:10:02  BASE  1.89336  320  3.78084  315  -3.4  100   -3.4  0     0     1006.4   NA       0.0000   9999     660   0     0    
2019/08/19  02:11:03  BASE  1.81692  319  3.78084  315  -3.4  100   -3.4  0     0     1006.4   NA       0.0000   9999     460   0     0    
2019/08/19  02:12:02  BASE  1.74636  317  3.78084  315  -3.4  100   -3.4  0     0     1006.4   NA       0.0000   9999     430   0     0    
2019/08/19  02:13:03  BASE  1.617    320  3.78084  315  -3.4  100   -3.4  0     0     1006.4   NA       0.0000   9999     390   0     0    
2019/08/19  02:14:03  BASE  1.52292  314  3.75144  340  -3.4  100   -3.4  0     0     1006.4   NA       0.0000   9999     460   0     0    
2019/08/19  02:15:03  BASE  1.1466   312  2.54016  321  -3.4  100   -3.4  0     0     1006.4   NA       0.0000   9999     560   0     0    
2019/08/19  02:16:03  BASE  1.16424  320  2.54016  321  -3.4  100   -3.4  0     0     1006.4   NA       0.0000   9999     560   0     0    
2019/08/19  02:17:03  BASE  1.69344  320  2.54016  321  -3.4  100   -3.4  0     0     1006.4   NA       0.0000   9999     520   0     0    
2019/08/19  02:18:03  BASE  1.86984  315  2.24028  315  -3.4  100   -3.4  0     0     1006.4   NA       0.0000   9999     560   0     0    
2019/08/19  02:19:02  BASE  1.90512  318  2.1756   316  -3.4  100   -3.4  0     0     1006.4   NA       0.0000   9999     490   0     0    
2019/08/19  02:20:02  BASE  1.8522   332  2.1756   316  -3.4  100   -3.4  0     0     1006.4   NA       0.0000   9999     360   0     0    
2019/08/19  02:21:03  BASE  1.72872  348  2.1756   316  -3.4  100   -3.4  0     0     1006.3   NA       0.0000   9999     360   1510  0    
2019/08/19  02:22:03  BASE  1.74636  353  2.1756   316  -3.4  100   -3.4  0     0     1006.3   NA       0.0000   9999     1840  0     0    
2019/08/19  02:23:02  BASE  1.90512  347  2.1756   335  -3.4  100   -3.4  0     0     1006.3   NA       0.0000   9999     1570  0     0    
2019/08/19  02:24:02  BASE  2.21676  333  2.56956  315  -3.4  100   -3.4  0     0     1006.4   NA       0.0000   9999     1570  0     0    
2019/08/19  02:25:02  BASE  2.39904  320  2.56956  321  -3.4  100   -3.4  0     0     1006.4   NA       0.0000   9999     1900  0     0    
2019/08/19  02:26:02  BASE  2.4696   318  2.81064  320  -3.5  100   -3.5  0     0     1006.4   NA       0.0000   9999     1940  0     0    
2019/08/19  02:27:02  BASE  2.47548  323  2.81064  320  -3.5  100   -3.5  0     0     1006.4   NA       0.0000   9999     2070  0     0    
2019/08/19  02:28:02  BASE  2.2932   331  2.81064  320  -3.5  100   -3.5  0     0     1006.4   NA       0.0000   9999     1250  2000  0    
2019/08/19  02:29:02  BASE  2.14032  342  2.81064  320  -3.6  100   -3.6  0     0     1006.4   NA       0.0000   9999     1150  0     0    
2019/08/19  02:30:02  BASE  2.04624  343  2.81064  320  -3.6  100   -3.6  0     0     1006.4   NA       0.0000   9999     1120  0     0    
2019/08/19  02:31:02  BASE  2.12856  337  2.81064  320  -3.6  100   -3.6  0     0     1006.4   NA       0.0000   9999     1050  0     0    
2019/08/19  02:32:02  BASE  2.13444  341  2.81064  320  -3.7  100   -3.7  0     0     1006.4   NA       0.0000   9999     1050  0     0    
2019/08/19  02:33:02  BASE  2.08152  348  2.81064  320  -3.8  100   -3.8  0     0     1006.4   NA       0.0000   9999     1020  0     0    
2019/08/19  02:34:02  BASE  2.15208  348  2.81064  320  -3.8  100   -3.8  0     0     1006.5   NA       0.0000   9999     950   0     0    
2019/08/19  02:35:02  BASE  2.1462   347  2.81064  320  -3.9  100   -3.9  0     0     1006.5   NA       0.0000   9999     720   0     0    
2019/08/19  02:36:02  BASE  2.0874   348  2.48136  323  -3.9  100   -3.9  0     0     1006.5   NA       0.0000   9999     690   0     0    
2019/08/19  02:37:02  BASE  2.19324  348  2.75184  346  -3.9  100   -3.9  0     0     1006.5   NA       0.0000   9999     690   0     0    
2019/08/19  02:38:03  BASE  2.43432  348  2.75184  346  -4.0  100   -4.0  0     0     1006.5   NA       0.0000   9999     620   0     0    
2019/08/19  02:39:02  BASE  2.56956  347  2.90472  348  -4.0  100   -4.0  0     0     1006.5   NA       0.0000   9999     620   0     0    
2019/08/19  02:40:02  BASE  2.7636   345  3.1752   344  -4.0  100   -4.0  0     0     1006.6   NA       0.0000   9999     590   0     0    
2019/08/19  02:41:02  BASE  2.99292  344  3.29868  343  -4.1  100   -4.1  0     0     1006.6   NA       0.0000   9999     620   0     0    
2019/08/19  02:42:02  BASE  3.234    343  3.53976  339  -4.1  100   -4.1  0     0     1006.6   NA       0.0000   9999     560   0     0    
2019/08/19  02:43:03  BASE  3.35748  341  3.53976  339  -4.2  100   -4.2  0     0     1006.6   NA       0.0000   9999     590   0     0    
2019/08/19  02:44:02  BASE  3.16344  340  3.53976  339  -4.2  100   -4.2  0     0     1006.6   NA       0.0000   9999     520   0     0    
2019/08/19  02:45:02  BASE  3.42216  334  4.2042   328  -4.2  100   -4.2  0     0     1006.6   NA       0.0000   9999     520   0     0    
2019/08/19  02:46:02  BASE  3.51036  324  4.2042   328  -4.1  100   -4.1  0     0     1006.6   NA       0.0000   9999     390   0     0    
2019/08/19  02:47:02  BASE  2.75184  323  4.2042   328  -3.9  100   -3.9  0     0     1006.7   NA       0.0000   9999     390   0     0    
2019/08/19  02:48:03  BASE  2.7048   326  4.2042   328  -3.8  100   -3.8  0     0     1006.7   NA       0.0000   9999     390   0     0    
2019/08/19  02:49:02  BASE  3.48096  312  4.263    300  -3.8  100   -3.8  0     0     1006.7   NA       0.0000   9999     620   0     0    
2019/08/19  02:50:03  BASE  3.75144  305  4.263    300  -3.7  100   -3.7  0     0     1006.7   NA       0.0000   9999     460   0     0    
2019/08/19  02:51:03  BASE  3.61032  305  4.263    300  -3.7  100   -3.7  0     0     1006.7   NA       0.0000   9999     520   0     0    
2019/08/19  02:52:02  BASE  3.4104   297  4.263    300  -3.7  100   -3.7  0     0     1006.7   NA       0.0000   9999     430   0     0    
2019/08/19  02:53:02  BASE  3.35748  295  4.263    300  -3.8  100   -3.8  0     0     1006.7   NA       0.0000   9999     520   0     0    
2019/08/19  02:54:02  BASE  3.33984  295  4.263    300  -3.8  100   -3.8  0     0     1006.7   NA       0.0000   9999     430   0     0    
2019/08/19  02:55:03  BASE  3.33396  294  4.263    300  -3.8  100   -3.8  0     0     1006.8   NA       0.0000   9999     560   0     0    
2019/08/19  02:56:02  BASE  3.43392  293  4.263    300  -3.8  100   -3.8  0     0     1006.9   NA       0.0000   9999     520   0     0    
2019/08/19  02:57:02  BASE  3.16344  294  4.263    300  -3.8  100   -3.8  0     0     1006.9   NA       0.0000   9999     460   0     0    
2019/08/19  02:58:03  BASE  2.81652  292  4.263    300  -3.8  100   -3.8  0     0     1007.0   NA       0.0000   9999     390   0     0    
2019/08/19  02:59:03  BASE  2.41668  286  3.86904  313  -3.8  100   -3.8  0     0     1007.1   NA       0.0000   9999     490   0     0    
2019/08/19  03:00:02  BASE  2.01096  269  3.83964  287  -3.8  100   -3.8  0     0     1007.1   NA       0.0000   9999     460   0     0    
2019/08/19  03:01:02  BASE  2.12268  249  3.83964  287  -3.8  100   -3.8  0     0     1007.1   NA       0.0000   9999     330   0     0    
2019/08/19  03:02:02  BASE  2.46372  241  3.83964  287  -3.8  100   -3.8  0     0     1007.2   NA       0.0000   9999     260   0     0    
2019/08/19  03:03:03  BASE  2.59896  239  3.83964  287  -3.8  100   -3.8  0     0     1007.2   NA       0.0000   9999     260   0     0    
2019/08/19  03:04:02  BASE  2.49312  242  3.83964  287  -3.9  100   -3.9  0     0     1007.2   NA       0.0000   9999     260   0     0    
2019/08/19  03:05:04  BASE  2.2344   242  3.83964  287  -3.9  100   -3.9  0     0     1007.2   NA       0.0000   9999     300   0     0    
2019/08/19  03:06:02  BASE  1.9404   241  3.1458   289  -4.0  100   -4.0  0     0     1007.2   NA       0.0000   9999     300   0     0    
2019/08/19  03:07:02  BASE  2.01096  244  3.1458   289  -4.0  100   -4.0  0     0     1007.2   NA       0.0000   9999     300   0     0    
2019/08/19  03:08:02  BASE  2.46372  243  3.1164   237  -4.0  100   -4.0  0     0     1007.2   NA       0.0000   9999     230   0     0    
2019/08/19  03:09:03  BASE  2.71068  238  3.1164   237  -4.0  100   -4.0  0     0     1007.2   NA       0.0000   9999     230   0     0    
2019/08/19  03:10:02  BASE  2.57544  233  3.1164   237  -4.1  100   -4.1  0     0     1007.2   NA       0.0000   9999     200   0     0    
2019/08/19  03:11:02  BASE  2.4402   236  3.1164   237  -4.1  100   -4.1  0     0     1007.2   NA       0.0000   9999     0     0     0    
2019/08/19  03:12:02  BASE  2.52252  241  3.1164   237  -4.1  100   -4.1  0     0     1007.2   NA       0.0000   9999     230   0     0    
2019/08/19  03:13:03  BASE  2.53428  240  3.02232  233  -4.1  100   -4.1  0     0     1007.2   NA       0.0000   9999     300   0     0    
2019/08/19  03:14:02  BASE  2.72832  238  3.1458   242  -4.1  100   -4.1  0     0     1007.2   NA       0.0000   9999     360   0     0    
2019/08/19  03:15:03  BASE  3.01056  239  3.26928  238  -4.2  100   -4.2  0     0     1007.2   NA       0.0000   9999     430   0     0    
2019/08/19  03:16:03  BASE  3.02232  240  3.26928  238  -4.2  100   -4.2  0     0     1007.2   NA       0.0000   9999     430   0     0    
2019/08/19  03:17:02  BASE  2.84592  240  3.26928  238  -4.2  100   -4.2  0     0     1007.2   NA       0.0000   9999     460   0     0    
2019/08/19  03:18:03  BASE  2.74596  242  3.26928  238  -4.3  100   -4.3  0     0     1007.2   NA       0.0000   9999     460   0     0    
2019/08/19  03:19:03  BASE  2.65188  243  3.26928  238  -4.3  100   -4.3  0     0     1007.2   NA       0.0000   9999     230   0     0    
2019/08/19  03:20:02  BASE  2.60484  240  3.26928  238  -4.3  100   -4.3  0     0     1007.2   NA       0.0000   9999     200   0     0    
2019/08/19  03:21:04  BASE  2.57544  238  3.26928  238  -4.4  100   -4.4  0     0     1007.3   NA       0.0000   9999     390   0     0    
2019/08/19  03:22:02  BASE  2.24028  239  3.26928  238  -4.4  100   -4.4  0     0     1007.3   NA       0.0000   9999     590   0     0    
2019/08/19  03:23:03  BASE  1.84044  246  3.26928  238  -4.4  100   -4.4  0     0     1007.3   NA       0.0000   9999     330   0     0    
2019/08/19  03:24:02  BASE  1.65228  250  3.26928  238  -4.4  100   -4.4  0     0     1007.3   NA       0.0000   9999     260   0     0    
2019/08/19  03:25:02  BASE  1.79928  245  3.1458   240  -4.5  100   -4.5  0     0     1007.3   NA       0.0000   9999     590   0     0    
2019/08/19  03:26:02  BASE  2.04624  238  3.02232  242  -4.5  100   -4.5  0     0     1007.3   NA       0.0000   9999     660   0     0    
2019/08/19  03:27:02  BASE  2.2344   231  3.02232  242  -4.5  100   -4.5  0     0     1007.3   NA       0.0000   9999     720   1640  0    
2019/08/19  03:28:02  BASE  2.21676  223  2.81064  237  -4.6  100   -4.6  0     0     1007.3   NA       0.0000   9999     750   1570  0    
2019/08/19  03:29:02  BASE  1.81692  221  2.81064  237  -4.6  100   -4.6  0     0     1007.2   NA       0.0000   9999     690   1410  0    
2019/08/19  03:30:03  BASE  1.4406   231  2.78124  234  -4.5  100   -4.5  0     0     1007.2   NA       0.0000   9999     660   1250  0    
2019/08/19  03:31:03  BASE  1.40532  239  2.56956  224  -4.5  100   -4.5  0     0     1007.3   NA       0.0000   9000     620   1150  0    
2019/08/19  03:32:03  BASE  1.42296  239  2.56956  224  -4.4  100   -4.4  0     0     1007.3   NA       0.0000   6000     1210  0     0    
2019/08/19  03:33:03  BASE  1.18188  244  2.56956  224  -4.3  100   -4.3  0     0     1007.3   NA       0.0000   BR       4800  890   0    
2019/08/19  03:34:02  BASE  0.89964  247  2.56956  224  -4.3  100   -4.3  0     0     1007.4   NA       0.0000   BR       4700  0     0    
2019/08/19  03:35:03  BASE  0.85848  247  2.56956  224  -4.3  100   -4.3  0     0     1007.4   NA       0.0000   BR       5000  0     0    
2019/08/19  03:36:02  BASE  0.99372  255  2.56956  224  -4.3  100   -4.3  0     0     1007.5   NA       0.0000   BR       6000  0     0    
2019/08/19  03:37:03  BASE  1.17012  263  2.56956  224  -4.3  100   -4.3  0     0     1007.5   NA       0.0000   BR       5000  0     0    
2019/08/19  03:38:02  BASE  1.12896  280  1.69344  238  -4.3  100   -4.3  0     0     1007.5   NA       0.0000   BR       4600  0     0    
2019/08/19  03:39:03  BASE  1.07016  297  1.69344  238  -4.3  100   -4.3  0     0     1007.5   NA       0.0000   BR       5000  0     0    
2019/08/19  03:40:02  BASE  1.13484  304  1.69344  238  -4.4  100   -4.4  0     0     1007.5   NA       0.0000   BR       4200  0     0    
2019/08/19  03:41:02  BASE  1.21716  306  1.69344  238  -4.4  100   -4.4  0     0     1007.6   NA       0.0000   BR       4100  0     0    
2019/08/19  03:42:02  BASE  1.22892  308  1.48176  260  -4.4  100   -4.4  0     0     1007.6   NA       0.0000   BR       4500  0     0    
2019/08/19  03:43:02  BASE  1.25244  316  1.48176  323  -4.4  100   -4.4  0     0     1007.6   NA       0.0000   BR       4700  0     0    
2019/08/19  03:44:02  BASE  1.31712  323  1.54056  321  -4.4  100   -4.4  0     0     1007.6   NA       0.0000   BR       5000  0     0    
2019/08/19  03:45:02  BASE  1.57584  317  2.26968  306  -4.3  100   -4.3  0     0     1007.6   NA       0.0000   BR       5000  0     0    
2019/08/19  03:46:02  BASE  2.0286   309  2.38728  306  -4.3  100   -4.3  0     0     1007.6   NA       0.0000   BR       5000  0     0    
2019/08/19  03:47:02  BASE  2.15796  309  2.38728  306  -4.4  100   -4.4  0     0     1007.5   NA       0.0000   BR       6000  0     0    
2019/08/19  03:48:02  BASE  2.04624  311  2.38728  306  -4.4  100   -4.4  0     0     1007.4   NA       0.0000   BR       7000  0     0    
2019/08/19  03:49:02  BASE  2.12856  309  2.38728  306  -4.4  100   -4.4  0     0     1007.4   NA       0.0000   BR       8000  0     0    
2019/08/19  03:50:02  BASE  2.16972  302  2.38728  306  -4.4  100   -4.4  0     0     1007.5   NA       0.0000   BR       8000  0     0    
2019/08/19  03:51:02  BASE  1.9992   297  2.38728  306  -4.4  100   -4.4  0     0     1007.5   NA       0.0000   BR       6000  0     0    
2019/08/19  03:52:02  BASE  1.72284  298  2.38728  306  -4.4  100   -4.4  0     0     1007.5   NA       0.0000   BR       6000  0     0    
2019/08/19  03:53:03  BASE  1.7052   304  2.38728  306  -4.4  100   -4.4  0     0     1007.5   NA       0.0000   BR       5000  0     0    
2019/08/19  03:54:02  BASE  2.1462   299  2.63424  290  -4.5  100   -4.5  0     0     1007.5   NA       0.0000   BR       4900  0     0    
2019/08/19  03:55:02  BASE  2.51664  293  2.72244  294  -4.5  100   -4.5  0     0     1007.5   NA       0.0000   BR       6000  0     0    
2019/08/19  03:56:02  BASE  2.59896  294  2.81064  293  -4.5  100   -4.5  0     0     1007.5   NA       0.0000   BR       7000  0     0    
2019/08/19  03:57:03  BASE  2.60484  291  2.81064  293  -4.6  100   -4.6  0     0     1007.5   NA       0.0000   BR       7000  0     0    
2019/08/19  03:58:03  BASE  2.50488  281  2.81064  293  -4.6  100   -4.6  0     0     1007.5   NA       0.0000   BR       6000  0     0    
2019/08/19  03:59:02  BASE  2.36964  273  2.81064  293  -4.6  100   -4.6  0     0     1007.6   NA       0.0000   BR       5000  0     0    
2019/08/19  04:00:03  BASE  2.14032  275  2.81064  293  -4.6  100   -4.6  0     0     1007.6   NA       0.0000   BR       4000  0     0    
2019/08/19  04:01:03  BASE  2.11092  278  2.81064  293  -4.6  100   -4.6  0     0     1007.6   NA       0.0000   BR       3500  0     0    
2019/08/19  04:02:02  BASE  2.28732  277  2.81064  293  -4.6  100   -4.6  0     0     1007.6   NA       0.0000   BR       3500  0     0    
2019/08/19  04:03:02  BASE  2.205    278  2.81064  293  -4.6  100   -4.6  0     0     1007.6   NA       0.0000   BR       3600  0     0    
2019/08/19  04:04:02  BASE  2.2344   277  2.81064  276  -4.6  100   -4.6  0     0     1007.7   NA       0.0000   BR       3700  0     0    
2019/08/19  04:05:04  BASE  2.38728  278  2.81064  285  -4.6  100   -4.6  0     0     1007.7   NA       0.0000   BR       3500  0     0    
2019/08/19  04:06:02  BASE  2.3814   279  2.81064  285  -4.6  100   -4.6  0     0     1007.6   NA       0.0000   BR       3400  0     0    
2019/08/19  04:07:03  BASE  2.34024  279  2.81064  285  -4.6  100   -4.6  0     0     1007.6   NA       0.0000   BR       3200  0     0    
2019/08/19  04:08:03  BASE  2.22852  280  2.81064  285  -4.7  100   -4.7  0     0     1007.7   NA       0.0000   BR       3500  0     0    
2019/08/19  04:09:03  BASE  2.14032  282  2.81064  285  -4.7  100   -4.7  0     0     1007.7   NA       0.0000   BR       4200  0     0    
2019/08/19  04:10:03  BASE  2.0874   283  2.81064  285  -4.7  100   -4.7  0     0     1007.8   NA       0.0000   BR       5000  0     0    
2019/08/19  04:11:02  BASE  1.92864  286  2.81064  285  -4.7  100   -4.7  0     0     1007.8   NA       0.0000   BR       6000  0     0    
2019/08/19  04:12:02  BASE  1.78752  290  2.81064  285  -4.8  100   -4.8  0     0     1007.8   NA       0.0000   BR       9000  0     0    
2019/08/19  04:13:02  BASE  1.66404  285  2.81064  285  -4.8  100   -4.8  0     0     1007.9   NA       0.0000   BR       9999  0     0    
2019/08/19  04:14:02  BASE  1.51116  278  2.81064  285  -4.8  100   -4.8  0     0     1007.9   NA       0.0000   BR       9999  0     0    
2019/08/19  04:15:02  BASE  1.53468  274  2.75184  281  -4.8  100   -4.8  0     0     1007.9   NA       0.0000   BR       9999  330   0    
2019/08/19  04:16:02  BASE  1.74636  268  2.75184  281  -4.9  100   -4.9  0     0     1008.0   NA       0.0000   BR       9999  360   0    
2019/08/19  04:17:03  BASE  1.8522   267  2.56956  284  -4.9  100   -4.9  0     0     1008.1   NA       0.0000   BR       9999  460   0    
2019/08/19  04:18:03  BASE  1.82868  268  2.48136  285  -4.9  100   -4.9  0     0     1008.2   NA       0.0000   BR       9999  590   1120 
2019/08/19  04:19:02  BASE  1.77576  269  2.48136  285  -5.0  100   -5.0  0     0     1008.2   NA       0.0000   BR       9999  590   1080 
2019/08/19  04:20:02  BASE  1.5288   268  2.35788  275  -5.0  100   -5.0  0     0     1008.1   NA       0.0000   9999     660   0     0    
2019/08/19  04:21:02  BASE  1.48764  276  2.35788  275  -5.0  100   -5.0  0     0     1008.0   NA       0.0000   9999     660   0     0    
2019/08/19  04:22:03  BASE  1.62876  285  2.35788  275  -5.0  100   -5.0  0     0     1008.0   NA       0.0000   9999     720   0     0    
2019/08/19  04:23:03  BASE  1.63464  283  2.35788  275  -5.0  100   -5.0  0     0     1008.0   NA       0.0000   9999     620   0     0    
2019/08/19  04:24:02  BASE  1.8228   280  2.35788  275  -5.0  100   -5.0  0     0     1008.0   NA       0.0000   9000     750   0     0    
2019/08/19  04:25:02  BASE  1.911    281  2.35788  275  -5.0  100   -5.0  0     0     1008.0   NA       0.0000   8000     460   0     0    
2019/08/19  04:26:03  BASE  1.58172  284  2.24028  281  -5.0  100   -5.0  0     0     1008.0   NA       0.0000   9000     390   0     0    
2019/08/19  04:27:02  BASE  1.18776  282  2.24028  281  -5.0  100   -5.0  0     0     1008.0   NA       0.0000   9000     390   0     0    
2019/08/19  04:28:02  BASE  0.95844  285  2.24028  281  -5.0  100   -5.0  0     0     1008.2   NA       0.0000   BR       9999  490   0    
2019/08/19  04:29:02  BASE  1.029    289  2.24028  281  -5.0  100   -5.0  0     0     1008.2   NA       0.0000   BR       9999  490   0    
2019/08/19  04:30:02  BASE  1.08192  296  2.24028  281  -5.0  100   -5.0  0     0     1008.3   NA       0.0000   BR       9000  660   1670 
2019/08/19  04:31:02  BASE  1.11132  310  2.24028  281  -5.1  100   -5.1  0     0     1008.3   NA       0.0000   BR       9999  660   1710 
2019/08/19  04:32:02  BASE  1.27596  319  2.24028  281  -5.1  100   -5.1  0     0     1008.3   NA       0.0000   BR       9999  200   0    
2019/08/19  04:33:02  BASE  1.32888  322  2.24028  281  -5.2  100   -5.2  0     0     1008.3   NA       0.0000   BR       9999  0     0    
2019/08/19  04:34:02  BASE  1.39356  324  2.1168   291  -5.2  100   -5.2  0     0     1008.3   NA       0.0000   BR       9000  0     0    
2019/08/19  04:35:03  BASE  1.49352  326  1.63464  331  -5.2  100   -5.2  0     0     1008.3   NA       0.0000   BR       6000  0     0    
2019/08/19  04:36:02  BASE  1.48764  329  1.63464  331  -5.2  100   -5.2  0     0     1008.3   NA       0.0000   BR       5000  0     0    
2019/08/19  04:37:02  BASE  1.3818   333  1.63464  331  -5.1  100   -5.1  0     0     1008.3   NA       0.0000   BR       5000  0     0    
2019/08/19  04:38:02  BASE  1.3524   338  1.63464  331  -5.1  100   -5.1  0     0     1008.3   NA       0.0000   BR       5000  0     0    
2019/08/19  04:39:03  BASE  1.41708  343  1.63464  331  -5.1  100   -5.1  0     0     1008.3   NA       0.0000   BR       6000  0     0    
2019/08/19  04:40:02  BASE  1.5288   348  1.66404  349  -5.1  100   -5.1  0     0     1008.3   NA       0.0000   BR       9000  0     0    
2019/08/19  04:41:03  BASE  1.56408  351  1.66404  349  -5.1  100   -5.1  0     0     1008.2   NA       0.0000   BR       9999  0     0    
2019/08/19  04:42:02  BASE  1.56408  356  1.72284  1    -5.1  100   -5.1  0     0     1008.2   NA       0.0000   BR       9999  0     0    
2019/08/19  04:43:03  BASE  1.53468  3    1.72284  1    -5.1  100   -5.1  0     0     1008.3   NA       0.0000   BR       9999  0     0    
2019/08/19  04:44:02  BASE  1.5582   3    1.75224  360  -5.0  100   -5.0  0     0     1008.3   NA       0.0000   BR       9999  0     0    
2019/08/19  04:45:02  BASE  1.47588  2    1.75224  360  -5.0  100   -5.0  0     0     1008.3   NA       0.0000   BR       9999  0     0    
2019/08/19  04:46:02  BASE  1.41708  11   1.75224  360  -5.0  100   -5.0  0     0     1008.4   NA       0.0000   BR       9999  0     0    
2019/08/19  04:47:02  BASE  1.51116  16   1.75224  360  -5.0  100   -5.0  0     0     1008.4   NA       0.0000   BR       9999  0     0    
2019/08/19  04:48:02  BASE  1.56408  17   1.75224  14   -5.0  100   -5.0  0     0     1008.4   NA       0.0000   9999     0     0     0    
2019/08/19  04:49:02  BASE  1.53468  15   1.75224  14   -5.0  100   -5.0  0     0     1008.4   NA       0.0000   9999     0     0     0    
2019/08/19  04:50:02  BASE  1.39356  17   1.75224  14   -5.0  100   -5.0  0     0     1008.4   NA       0.0000   9999     0     0     0    
2019/08/19  04:51:02  BASE  1.37592  21   1.75224  14   -5.0  100   -5.0  0     0     1008.4   NA       0.0000   9999     0     0     0    
2019/08/19  04:52:03  BASE  1.39356  19   1.75224  14   -5.0  100   -5.0  0     0     1008.4   NA       0.0000   9999     0     0     0    
2019/08/19  04:53:03  BASE  1.31124  20   1.75224  14   -5.0  100   -5.0  0     0     1008.4   NA       0.0000   9999     0     0     0    
2019/08/19  04:54:02  BASE  1.17012  24   1.75224  14   -5.0  100   -5.0  0     0     1008.4   NA       0.0000   9000     1150  0     0    
2019/08/19  04:55:02  BASE  0.98196  26   1.75224  14   -5.0  100   -5.0  0     0     1008.4   NA       0.0000   BR       5000  1080  0    
2019/08/19  04:56:02  BASE  0.85848  32   1.75224  14   -5.0  100   -5.0  0     0     1008.3   NA       0.0000   BR       4600  1020  0    
2019/08/19  04:57:03  BASE  0.88788  32   1.75224  14   -5.0  100   -5.0  0     0     1008.3   NA       0.0000   BR       6000  980   0    
2019/08/19  04:58:03  BASE  0.97608  22   1.63464  24   -5.0  100   -5.0  0     0     1008.3   NA       0.0000   BR       7000  950   0    
2019/08/19  04:59:02  BASE  1.0878   12   1.63464  24   -5.0  100   -5.0  0     0     1008.3   NA       0.0000   BR       6000  920   0    
2019/08/19  05:00:02  BASE  1.19364  7    1.63464  24   -5.0  100   -5.0  0     0     1008.3   NA       0.0000   BR       6000  920   0    
2019/08/19  05:01:02  BASE  1.22892  8    1.51116  20   -5.0  100   -5.0  0     0     1008.3   NA       0.0000   BR       8000  1080  0    
2019/08/19  05:02:02  BASE  1.21128  9    1.35828  7    -5.0  100   -5.0  0     0     1008.3   NA       0.0000   BR       9999  1050  0    
2019/08/19  05:03:02  BASE  1.24068  12   1.42296  14   -5.0  100   -5.0  0     0     1008.3   NA       0.0000   BR       9999  200   1020 
2019/08/19  05:04:02  BASE  1.323    14   1.42296  17   -4.9  100   -4.9  0     0     1008.4   NA       0.0000   BR       9999  200   950  
2019/08/19  05:05:04  BASE  1.29948  17   1.42296  17   -4.9  100   -4.9  0     0     1008.4   NA       0.0000   BR       9999  200   980  
2019/08/19  05:06:03  BASE  1.27596  15   1.42296  17   -4.9  100   -4.9  0     0     1008.4   NA       0.0000   BR       9999  230   1640 
2019/08/19  05:07:02  BASE  1.32888  9    1.51116  6    -4.9  100   -4.9  0     0     1008.4   NA       0.0000   BR       9999  260   1440 
2019/08/19  05:08:02  BASE  1.48176  5    1.66404  4    -4.9  100   -4.9  0     0     1008.4   NA       0.0000   9999     260   1180  0    
2019/08/19  05:09:02  BASE  1.59348  5    1.75224  12   -5.0  100   -5.0  0     0     1008.4   NA       0.0000   9999     260   1150  0    
2019/08/19  05:10:02  BASE  1.66404  7    1.75224  8    -5.0  100   -5.0  0     0     1008.4   NA       0.0000   9999     260   1180  0    
2019/08/19  05:11:02  BASE  1.72284  13   1.75224  20   -5.0  100   -5.0  0     0     1008.4   NA       0.0000   9999     260   1150  0    
2019/08/19  05:12:02  BASE  1.72872  20   1.81692  23   -5.0  100   -5.0  0     0     1008.4   NA       0.0000   9999     330   1050  0    
2019/08/19  05:13:03  BASE  1.79928  26   1.96392  32   -5.0  100   -5.0  0     0     1008.4   NA       0.0000   9999     330   950   0    
2019/08/19  05:14:03  BASE  1.89336  33   2.1462   43   -5.1  100   -5.1  0     0     1008.4   NA       0.0000   9999     980   0     0    
2019/08/19  05:15:02  BASE  1.85808  31   2.1462   43   -5.2  100   -5.2  0     0     1008.4   NA       0.0000   9999     1020  0     0    
2019/08/19  05:16:02  BASE  1.75812  25   2.1462   43   -5.3  100   -5.3  0     0     1008.4   NA       0.0000   9999     1080  0     0    
2019/08/19  05:17:03  BASE  1.76988  23   2.1462   43   -5.4  100   -5.4  0     0     1008.4   NA       0.0000   9999     980   0     0    
2019/08/19  05:19:03  BASE  1.84044  17   2.1462   14   -5.5  100   -5.5  0     0     1008.4   NA       0.0000   9999     920   0     0    
2019/08/19  05:20:03  BASE  2.0286   15   2.26968  19   -5.5  100   -5.5  0     0     1008.4   NA       0.0000   9999     890   0     0    
2019/08/19  05:21:04  BASE  2.18736  21   2.29908  22   -5.5  100   -5.5  0     0     1008.4   NA       0.0000   9999     820   0     0    
2019/08/19  05:22:04  BASE  2.12268  27   2.29908  22   -5.6  100   -5.6  0     0     1008.4   NA       0.0000   9999     390   0     0    
2019/08/19  05:23:04  BASE  1.8522   25   2.29908  22   -5.6  100   -5.6  0     0     1008.4   NA       0.0000   9999     430   0     0    
2019/08/19  05:24:03  BASE  1.52292  14   2.29908  22   -5.6  100   -5.6  0     0     1008.4   NA       0.0000   9999     460   1050  0    
2019/08/19  05:25:03  BASE  1.5288   7    2.29908  22   -5.6  100   -5.6  0     0     1008.4   NA       0.0000   9999     620   0     0    
2019/08/19  05:26:04  BASE  1.6758   5    2.29908  22   -5.6  100   -5.6  0     0     1008.4   NA       0.0000   9999     520   0     0    
2019/08/19  05:27:03  BASE  1.764    7    2.29908  22   -5.5  100   -5.5  0     0     1008.4   NA       0.0000   9999     460   0     0    
2019/08/19  05:28:04  BASE  1.7346   10   2.29908  22   -5.5  100   -5.5  0     0     1008.4   NA       0.0000   9999     490   0     0    
2019/08/19  05:29:03  BASE  1.69932  10   2.29908  22   -5.4  100   -5.4  0     0     1008.4   NA       0.0000   9999     560   0     0    
2019/08/19  05:30:03  BASE  1.78752  13   2.29908  22   -5.4  100   -5.4  0     0     1008.4   NA       0.0000   9999     490   0     0    
2019/08/19  05:31:03  BASE  1.8816   11   2.26968  34   -5.4  100   -5.4  0     0     1008.4   NA       0.0000   9999     460   0     0    
2019/08/19  05:32:03  BASE  1.50528  352  2.1462   11   -5.3  100   -5.3  0     0     1008.5   NA       0.0000   9999     460   0     0    
2019/08/19  05:33:03  BASE  0.95844  346  2.1462   11   -5.3  100   -5.3  0     0     1008.5   NA       0.0000   9999     360   0     0    
2019/08/19  05:34:03  BASE  0.92316  2    2.1462   11   -5.2  100   -5.2  0     0     1008.6   NA       0.0000   9999     330   0     0    
2019/08/19  05:35:03  BASE  1.09956  15   2.1462   11   -5.2  100   -5.2  0     0     1008.6   NA       0.0000   9999     260   0     0    
2019/08/19  05:36:03  BASE  1.07016  22   2.1462   11   -5.1  100   -5.1  0     0     1008.6   NA       0.0000   9999     230   0     0    
2019/08/19  05:37:03  BASE  0.57624  29   2.1462   11   -5.0  100   -5.0  0     0     1008.7   NA       0.0000   9999     230   0     0    
2019/08/19  05:38:04  BASE  0.6174   17   2.1462   11   -5.0  100   -5.0  0     0     1008.7   NA       0.0000   9999     260   0     0    
2019/08/19  05:39:03  BASE  1.029    355  2.1462   11   -5.0  100   -5.0  0     0     1008.8   NA       0.0000   9999     330   0     0    
2019/08/19  05:40:03  BASE  1.07604  350  2.1462   11   -5.0  100   -5.0  0     0     1008.8   NA       0.0000   9999     490   0     0    
2019/08/19  05:41:03  BASE  1.0878   357  1.54056  331  -5.0  100   -5.0  0     0     1008.8   NA       0.0000   9999     390   0     0    
2019/08/19  05:42:03  BASE  1.00548  9    1.29948  20   -5.0  100   -5.0  0     0     1008.7   NA       0.0000   9999     360   0     0    
2019/08/19  05:43:03  BASE  1.12308  18   1.45236  20   -5.0  100   -5.0  0     0     1008.7   NA       0.0000   9999     330   0     0    
2019/08/19  05:44:03  BASE  1.27008  15   1.63464  17   -5.0  100   -5.0  0     0     1008.7   NA       0.0000   9999     300   0     0    
2019/08/19  05:45:03  BASE  1.37004  9    1.69344  12   -5.0  100   -5.0  0     0     1008.7   NA       0.0000   9999     330   0     0    
2019/08/19  05:46:03  BASE  1.51116  17   1.93452  18   -5.0  100   -5.0  0     0     1008.7   NA       0.0000   9999     330   0     0    
2019/08/19  05:47:03  BASE  1.6464   19   1.9992   8    -5.0  100   -5.0  0     0     1008.8   NA       0.0000   9999     300   0     0    
2019/08/19  05:48:04  BASE  1.58172  13   1.9992   8    -4.9  100   -4.9  0     0     1008.8   NA       0.0000   9999     300   0     0    
2019/08/19  05:49:03  BASE  1.22892  9    1.9992   8    -4.9  100   -4.9  0     0     1008.8   NA       0.0000   9999     260   0     0    
2019/08/19  05:50:03  BASE  1.21128  2    1.9992   8    -4.8  100   -4.8  0     0     1008.8   NA       0.0000   9999     260   0     0    
2019/08/19  05:51:05  BASE  1.22304  359  1.9992   8    -4.8  100   -4.8  0     0     1008.8   NA       0.0000   9999     300   0     0    
2019/08/19  05:52:03  BASE  1.24656  355  1.9992   8    -4.7  100   -4.7  0     0     1008.8   NA       0.0000   9999     300   0     0    
2019/08/19  05:53:03  BASE  1.30536  348  1.9992   8    -4.6  100   -4.6  0     0     1008.9   NA       0.0000   9999     330   0     0    
2019/08/19  05:54:03  BASE  1.2054   340  1.9992   8    -4.6  100   -4.6  0     0     1008.9   NA       0.0000   9999     360   0     0    
2019/08/19  05:55:03  BASE  1.176    338  1.9992   8    -4.7  100   -4.7  0     0     1008.9   NA       0.0000   9999     390   0     0    
2019/08/19  05:56:04  BASE  1.05252  338  1.9992   8    -4.7  100   -4.7  0     0     1008.9   NA       0.0000   9999     360   0     0    
2019/08/19  05:57:03  BASE  0.85848  340  1.60524  18   -4.6  100   -4.6  0     0     1008.9   NA       0.0000   9999     300   0     0    
2019/08/19  05:58:04  BASE  0.88788  355  1.48176  351  -4.7  100   -4.7  0     0     1008.9   NA       0.0000   9999     300   0     0    
2019/08/19  05:59:04  BASE  1.08192  12   1.48176  351  -4.7  100   -4.7  0     0     1008.9   NA       0.0000   9999     360   0     0    
2019/08/19  06:00:03  BASE  1.19364  19   1.48176  351  -4.7  100   -4.7  0     0     1008.9   NA       0.0000   9999     300   0     0    
2019/08/19  06:01:03  BASE  1.2642   21   1.63464  26   -4.7  100   -4.7  0     0     1008.9   NA       0.0000   9999     300   0     0    
2019/08/19  06:02:04  BASE  1.51704  36   1.90512  44   -4.7  100   -4.7  0     0     1008.9   NA       0.0000   9999     260   0     0    
2019/08/19  06:03:03  BASE  1.79928  53   1.96392  57   -4.8  100   -4.8  0     0     1008.9   NA       0.0000   9999     430   0     0    
2019/08/19  06:04:03  BASE  1.84044  52   1.96392  57   -4.9  100   -4.9  0     0     1008.9   NA       0.0000   9999     430   0     0    
2019/08/19  06:05:03  BASE  1.88748  52   2.058    51   -5.0  100   -5.0  0     0     1008.9   NA       0.0000   9999     360   0     0    
2019/08/19  06:06:05  BASE  1.8522   51   2.058    51   -5.1  100   -5.1  0     0     1008.9   NA       0.0000   9999     300   0     0    
2019/08/19  06:07:01  BASE  1.58172  38   2.058    51   -5.2  100   -5.2  0     0     1008.8   NA       0.0000   9999     260   0     0    
2019/08/19  06:08:04  BASE  1.37592  37   2.058    51   -5.2  100   -5.2  0     0     1008.8   NA       0.0000   8000     230   0     0    
2019/08/19  06:09:03  BASE  1.4112   48   2.058    51   -5.2  100   -5.2  0     0     1008.8   NA       0.0000   8000     230   0     0    
2019/08/19  06:10:03  BASE  1.50528  50   2.058    51   -5.2  100   -5.2  0     0     1008.8   NA       0.0000   8000     230   0     0    
2019/08/19  06:11:03  BASE  1.51116  51   2.058    51   -5.1  100   -5.1  0     0     1008.8   NA       0.0000   8000     230   0     0    
2019/08/19  06:12:04  BASE  1.3524   53   2.058    51   -5.1  100   -5.1  0     0     1008.9   NA       0.0000   BR       7000  300   0    
2019/08/19  06:13:03  BASE  1.2348   53   2.058    51   -5.0  100   -5.0  0     0     1008.9   NA       0.0000   BR       9000  330   0    
2019/08/19  06:14:03  BASE  0.87612  55   2.058    51   -5.0  100   -5.0  0     0     1008.9   NA       0.0000   BR       9999  300   0    
2019/08/19  06:15:03  BASE  0.67032  59   1.9992   53   -5.0  100   -5.0  0     0     1008.9   NA       0.0000   BR       9000  330   0    
2019/08/19  06:16:03  BASE  0.80556  50   1.78752  59   -4.9  100   -4.9  0     0     1008.9   NA       0.0000   BR       8000  330   0    
2019/08/19  06:17:03  BASE  0.94668  40   1.78752  59   -4.9  100   -4.9  0     0     1008.9   NA       0.0000   BR       9000  300   0    
2019/08/19  06:18:03  BASE  1.2054   38   1.78752  59   -5.0  100   -5.0  0     0     1009.0   NA       0.0000   BR       9999  390   0    
2019/08/19  06:19:03  BASE  1.2642   34   1.78752  59   -5.0  100   -5.0  0     0     1009.0   NA       0.0000   BR       9999  390   0    
2019/08/19  06:20:03  BASE  1.27008  33   1.78752  59   -5.0  100   -5.0  0     0     1009.1   NA       0.0000   BR       9999  430   0    
2019/08/19  06:21:03  BASE  1.2642   35   1.63464  32   -5.0  100   -5.0  0     0     1009.1   NA       0.0000   9999     460   0     0    
2019/08/19  06:22:03  BASE  1.31124  33   1.63464  32   -5.1  100   -5.1  0     0     1009.1   NA       0.0000   9999     430   0     0    
2019/08/19  06:23:03  BASE  1.38768  21   1.63464  32   -5.1  100   -5.1  0     0     1009.1   NA       0.0000   9999     390   0     0    
2019/08/19  06:24:03  BASE  1.37004  19   1.63464  32   -5.1  100   -5.1  0     0     1009.1   NA       0.0000   9999     330   0     0    
2019/08/19  06:25:03  BASE  1.39356  24   1.63464  32   -5.1  100   -5.1  0     0     1009.1   NA       0.0000   9999     360   0     0    
2019/08/19  06:26:04  BASE  1.5582   25   1.78752  24   -5.1  100   -5.1  0     0     1009.1   NA       0.0000   9999     360   0     0    
2019/08/19  06:27:03  BASE  1.71696  26   1.81692  27   -5.1  100   -5.1  0     0     1009.1   NA       0.0000   9999     390   0     0    
2019/08/19  06:28:03  BASE  1.6464   21   1.81692  27   -5.1  100   -5.1  0     0     1009.1   NA       0.0000   9999     460   0     0    
2019/08/19  06:29:03  BASE  1.57584  17   1.81692  27   -5.1  100   -5.1  0     0     1009.1   NA       0.0000   9999     430   0     0    
2019/08/19  06:30:03  BASE  1.5876   13   1.81692  27   -5.1  100   -5.1  0     0     1009.1   NA       0.0000   9999     260   0     0    
2019/08/19  06:31:03  BASE  1.5582   8    1.81692  27   -5.1  100   -5.1  0     0     1009.1   NA       0.0000   9999     260   0     0    
2019/08/19  06:32:03  BASE  1.52292  14   1.81692  27   -5.1  100   -5.1  0     0     1009.1   NA       0.0000   9999     230   0     0    
2019/08/19  06:33:03  BASE  1.5288   20   1.81692  27   -5.1  100   -5.1  0     0     1009.1   NA       0.0000   9999     260   0     0    
2019/08/19  06:34:03  BASE  1.66404  19   1.96392  18   -5.1  100   -5.1  0     0     1009.1   NA       0.0000   9999     260   0     0    
2019/08/19  06:35:03  BASE  1.56408  16   1.96392  18   -5.2  100   -5.2  0     0     1009.1   NA       0.0000   9999     300   0     0    
2019/08/19  06:36:03  BASE  1.52292  17   1.96392  18   -5.2  100   -5.2  0     0     1009.1   NA       0.0000   9999     300   0     0    
2019/08/19  06:37:03  BASE  1.57584  24   1.96392  18   -5.3  100   -5.3  0     0     1009.0   NA       0.0000   9999     330   0     0    
2019/08/19  06:38:03  BASE  1.72284  26   2.24028  24   -5.4  100   -5.4  0     0     1009.0   NA       0.0000   9999     330   0     0    
2019/08/19  06:39:03  BASE  1.99332  24   2.29908  30   -5.5  100   -5.5  0     0     1009.0   NA       0.0000   9999     300   0     0    
2019/08/19  06:40:03  BASE  2.12268  27   2.48136  29   -5.6  100   -5.6  0     0     1008.9   NA       0.0000   9999     300   0     0    
2019/08/19  06:41:03  BASE  2.13444  33   2.48136  29   -5.6  100   -5.6  0     0     1008.9   NA       0.0000   9999     260   0     0    
2019/08/19  06:42:03  BASE  2.09916  41   2.48136  29   -5.7  100   -5.7  0     0     1008.9   NA       0.0000   9999     330   0     0    
2019/08/19  06:43:03  BASE  2.22852  43   2.51076  45   -5.7  100   -5.7  0     0     1008.9   NA       0.0000   9999     330   0     0    
2019/08/19  06:44:04  BASE  2.25204  42   2.51076  45   -5.7  100   -5.7  0     0     1008.9   NA       0.0000   9999     360   0     0    
2019/08/19  06:45:03  BASE  2.24028  43   2.51076  45   -5.7  100   -5.7  0     0     1008.9   NA       0.0000   9999     330   0     0    
2019/08/19  06:46:03  BASE  2.28144  44   2.51076  45   -5.8  100   -5.8  0     0     1008.9   NA       0.0000   9999     390   0     0    
2019/08/19  06:47:03  BASE  2.3226   45   2.51076  45   -5.8  100   -5.8  0     0     1008.9   NA       0.0000   9999     430   0     0    
2019/08/19  06:48:03  BASE  2.27556  43   2.51076  45   -5.8  100   -5.8  0     0     1009.0   NA       0.0000   9999     430   0     0    
2019/08/19  06:49:03  BASE  2.29908  40   2.51076  45   -5.8  100   -5.8  0     0     1009.0   NA       0.0000   9999     490   0     0    
2019/08/19  06:50:03  BASE  2.39904  39   2.51076  35   -5.9  100   -5.9  0     0     1009.0   NA       0.0000   9999     560   0     0    
2019/08/19  06:51:03  BASE  2.36964  39   2.51076  35   -5.9  100   -5.9  0     0     1009.0   NA       0.0000   9999     430   0     0    
2019/08/19  06:52:03  BASE  2.3226   43   2.54016  49   -6.0  100   -6.0  0     0     1009.0   NA       0.0000   9999     490   0     0    
2019/08/19  06:53:03  BASE  2.24616  41   2.54016  49   -6.0  100   -6.0  0     0     1009.0   NA       0.0000   9999     430   0     0    
2019/08/19  06:54:03  BASE  2.0874   36   2.54016  49   -6.0  100   -6.0  0     0     1009.0   NA       0.0000   9999     430   0     0    
2019/08/19  06:55:03  BASE  2.06388  40   2.54016  49   -6.0  100   -6.0  0     0     1009.0   NA       0.0000   9999     490   0     0    
2019/08/19  06:56:03  BASE  2.03448  40   2.54016  49   -5.9  100   -5.9  0     0     1009.0   NA       0.0000   9999     490   0     0    
2019/08/19  06:57:03  BASE  1.86396  38   2.54016  49   -5.9  100   -5.9  0     0     1009.1   NA       0.0000   9999     520   0     0    
2019/08/19  06:58:03  BASE  1.66992  41   2.54016  49   -5.8  100   -5.8  0     0     1009.1   NA       0.0000   9999     560   0     0    
2019/08/19  06:59:03  BASE  1.47588  37   2.54016  49   -5.8  100   -5.8  0     0     1009.1   NA       0.0000   9999     560   0     0    
2019/08/19  07:00:03  BASE  1.35828  33   2.54016  49   -5.8  100   -5.8  0     0     1009.1   NA       0.0000   9999     430   0     0    
2019/08/19  07:01:03  BASE  1.48764  36   2.54016  49   -5.8  100   -5.8  0     0     1009.1   NA       0.0000   9999     430   1350  0    
2019/08/19  07:02:03  BASE  1.55232  39   2.45196  33   -5.8  100   -5.8  0     0     1009.1   NA       0.0000   9999     430   0     0    
2019/08/19  07:03:03  BASE  1.58172  40   2.38728  38   -5.7  100   -5.7  0     0     1009.1   NA       0.0000   9999     430   0     0    
2019/08/19  07:04:04  BASE  1.68756  36   2.38728  38   -5.7  100   -5.7  0     0     1009.1   NA       0.0000   9999     560   0     0    
2019/08/19  07:05:03  BASE  1.68168  33   2.24028  31   -5.7  100   -5.7  0     0     1009.1   NA       0.0000   9999     430   0     0    
2019/08/19  07:06:05  BASE  1.57584  40   1.96392  38   -5.6  100   -5.6  0     0     1009.1   NA       0.0000   9999     300   0     0    
2019/08/19  07:07:03  BASE  1.48764  49   1.90512  32   -5.6  100   -5.6  0     0     1009.1   NA       0.0000   9999     300   0     0    
2019/08/19  07:08:03  BASE  1.32888  39   1.90512  32   -5.5  100   -5.5  0     0     1009.1   NA       0.0000   9999     330   0     0    
2019/08/19  07:09:03  BASE  1.01136  31   1.90512  32   -5.5  100   -5.5  0     0     1009.1   NA       0.0000   9999     330   0     0    
2019/08/19  07:10:03  BASE  0.97608  43   1.90512  32   -5.4  100   -5.4  0     0     1009.1   NA       0.0000   9999     330   0     0    
2019/08/19  07:11:03  BASE  1.10544  50   1.90512  32   -5.3  100   -5.3  0     0     1009.1   NA       0.0000   9999     360   0     0    
2019/08/19  07:12:03  BASE  0.98784  43   1.90512  32   -5.2  100   -5.2  0     0     1009.2   NA       0.0000   9999     390   0     0    
2019/08/19  07:13:03  BASE  1.029    29   1.90512  32   -5.1  100   -5.1  0     0     1009.2   NA       0.0000   9999     520   0     0    
2019/08/19  07:14:03  BASE  1.323    23   1.81692  30   -5.1  100   -5.1  0     0     1009.2   NA       0.0000   9999     590   0     0    
2019/08/19  07:15:03  BASE  1.45236  22   1.75224  49   -5.1  100   -5.1  0     0     1009.3   NA       0.0000   9999     490   0     0    
2019/08/19  07:16:03  BASE  1.40532  18   1.75224  49   -5.2  100   -5.2  0     0     1009.4   NA       0.0000   9999     460   0     0    
2019/08/19  07:17:03  BASE  1.42884  19   1.81692  26   -5.4  100   -5.4  0     0     1009.4   NA       0.0000   9999     330   0     0    
2019/08/19  07:18:04  BASE  1.4406   15   1.81692  26   -5.5  100   -5.5  0     0     1009.4   NA       0.0000   9999     330   0     0    
2019/08/19  07:19:03  BASE  1.48176  360  1.81692  342  -5.6  100   -5.6  0     0     1009.4   NA       0.0000   9999     300   0     0    
2019/08/19  07:20:03  BASE  1.62288  357  1.90512  2    -5.6  100   -5.6  0     0     1009.4   NA       0.0000   9999     300   0     0    
2019/08/19  07:21:03  BASE  1.75224  9    1.9992   9    -5.5  100   -5.5  0     0     1009.3   NA       0.0000   9999     300   0     0    
2019/08/19  07:22:03  BASE  1.83456  14   2.21088  6    -5.4  100   -5.4  0     0     1009.2   NA       0.0000   9999     260   0     0    
2019/08/19  07:23:03  BASE  1.81692  13   2.21088  6    -5.4  100   -5.4  0     0     1009.2   NA       0.0000   9999     330   0     0    
2019/08/19  07:24:03  BASE  2.06388  6    2.87532  1    -5.4  100   -5.4  0     0     1009.2   NA       0.0000   9999     430   0     0    
2019/08/19  07:25:03  BASE  2.5284   354  2.93412  360  -5.4  100   -5.4  0     0     1009.2   NA       0.0000   9999     360   0     0    
2019/08/19  07:26:03  BASE  2.39316  354  2.93412  360  -5.4  100   -5.4  0     0     1009.3   NA       0.0000   9999     0     0     0    
2019/08/19  07:27:03  BASE  2.2932   4    2.93412  360  -5.3  100   -5.3  0     0     1009.2   NA       0.0000   9999     300   0     0    
2019/08/19  07:28:03  BASE  2.24616  10   2.93412  360  -5.3  100   -5.3  0     0     1009.2   NA       0.0000   9999     330   0     0    
2019/08/19  07:29:03  BASE  2.10504  8    2.93412  360  -5.2  100   -5.2  0     0     1009.2   NA       0.0000   9999     200   0     0    
2019/08/19  07:30:03  BASE  2.15208  2    2.93412  360  -5.2  100   -5.2  0     0     1009.2   NA       0.0000   9000     0     0     0    
2019/08/19  07:31:03  BASE  2.24616  358  2.93412  360  -5.2  100   -5.2  0     0     1009.2   NA       0.0000   8000     0     0     0    
2019/08/19  07:32:03  BASE  2.40492  351  2.93412  360  -5.1  100   -5.1  0     0     1009.1   NA       0.0000   9999     0     0     0    
2019/08/19  07:33:03  BASE  2.3814   347  2.93412  360  -5.0  100   -5.0  0     0     1009.1   NA       0.0000   9999     0     0     0    
2019/08/19  07:34:03  BASE  2.31672  357  2.93412  360  -4.9  100   -4.9  0     0     1009.1   NA       0.0000   9999     0     0     0    
2019/08/19  07:35:03  BASE  2.39904  358  2.78124  352  -4.9  100   -4.9  0     0     1009.1   NA       0.0000   9999     0     0     0    
2019/08/19  07:36:03  BASE  2.6754   350  2.96352  348  -4.8  100   -4.8  0     0     1009.1   NA       0.0000   9999     0     0     0    
2019/08/19  07:37:03  BASE  2.71656  344  2.96352  348  -4.8  100   -4.8  0     0     1009.1   NA       0.0000   9999     0     0     0    
2019/08/19  07:38:03  BASE  2.57544  341  2.96352  348  -4.9  100   -4.9  0     0     1009.1   NA       0.0000   9999     0     0     0    
2019/08/19  07:39:03  BASE  2.58132  342  3.0576   342  -4.9  100   -4.9  0     0     1009.1   NA       0.0000   9999     0     0     0    
2019/08/19  07:40:03  BASE  2.68128  338  3.0576   335  -4.9  100   -4.9  0     0     1009.2   NA       0.0000   9999     0     0     0    
2019/08/19  07:41:03  BASE  2.84004  338  3.1458   328  -4.9  100   -4.9  0     0     1009.2   NA       0.0000   9999     0     0     0    
2019/08/19  07:42:03  BASE  2.94     342  3.35748  323  -4.8  100   -4.8  0     0     1009.2   NA       0.0000   9999     0     0     0    
2019/08/19  07:43:03  BASE  2.68716  337  3.35748  323  -4.8  100   -4.8  0     0     1009.2   NA       0.0000   9999     0     0     0    
2019/08/19  07:44:03  BASE  2.15208  328  3.35748  323  -4.8  100   -4.8  0     0     1009.2   NA       0.0000   9999     0     0     0    
2019/08/19  07:45:03  BASE  2.05212  327  3.35748  323  -4.8  100   -4.8  0     0     1009.3   NA       0.0000   8000     0     0     0    
2019/08/19  07:46:03  BASE  2.28732  329  3.35748  323  -4.8  100   -4.8  0     0     1009.4   NA       0.0000   7000     0     0     0    
2019/08/19  07:47:03  BASE  2.2932   329  3.35748  323  -4.8  100   -4.8  0     0     1009.4   NA       0.0000   7000     0     0     0    
2019/08/19  07:48:03  BASE  2.31672  324  3.35748  323  -4.8  100   -4.8  0     0     1009.4   NA       0.0000   9000     0     0     0    
2019/08/19  07:49:03  BASE  2.43432  316  3.35748  323  -4.8  100   -4.8  0     0     1009.4   NA       0.0000   9000     0     0     0    
2019/08/19  07:50:03  BASE  2.39316  310  3.35748  323  -4.8  100   -4.8  0     0     1009.4   NA       0.0000   BR       7000  0     0    
2019/08/19  07:51:03  BASE  2.1756   309  3.35748  323  -4.8  100   -4.8  0     0     1009.4   NA       0.0000   BR       5000  0     0    
2019/08/19  07:52:03  BASE  2.19324  320  2.99292  330  -4.8  100   -4.8  0     0     1009.3   NA       0.0000   -SN      BR    6000  0    
2019/08/19  07:53:03  BASE  2.72244  335  3.29868  337  -4.8  100   -4.8  0     0     1009.2   NA       0.0000   -SN      BR    9000  0    
2019/08/19  07:54:03  BASE  3.09288  334  3.35748  337  -4.8  100   -4.8  0     0     1009.2   NA       0.0000   -SN      BR    9999  0    
2019/08/19  07:55:03  BASE  2.80476  324  3.35748  337  -4.8  100   -4.8  0     0     1009.2   NA       0.0000   -SN      BR    9999  0    
2019/08/19  07:56:03  BASE  2.37552  323  3.35748  337  -4.8  100   -4.8  0     0     1009.2   NA       0.0000   -SN      BR    9999  0    
2019/08/19  07:57:03  BASE  2.61072  331  3.35748  337  -4.8  100   -4.8  0     0     1009.2   NA       0.0000   -SN      BR    9999  0    
2019/08/19  07:58:03  BASE  2.89884  340  3.35748  337  -4.9  100   -4.9  0     0     1009.2   NA       0.0000   -SN      BR    9999  0    
2019/08/19  07:59:03  BASE  2.74008  341  3.35748  337  -4.9  100   -4.9  0     0     1009.2   NA       0.0000   -SN      BR    9999  0    
2019/08/19  08:00:03  BASE  2.94588  334  3.51036  333  -4.9  100   -4.9  0     0     1009.2   NA       0.0000   -SN      9999  0     0    
2019/08/19  08:01:03  BASE  3.09288  329  3.59856  332  -4.9  100   -4.9  0     0     1009.3   NA       0.0000   9999     0     0     0    
2019/08/19  08:02:03  BASE  2.9988   325  3.59856  332  -4.9  100   -4.9  0     0     1009.4   NA       0.0000   9999     0     0     0    
2019/08/19  08:03:03  BASE  2.8224   319  3.59856  332  -4.9  100   -4.9  0     0     1009.4   NA       0.0000   9999     0     0     0    
2019/08/19  08:04:03  BASE  2.84004  313  3.65736  314  -4.9  100   -4.9  0     0     1009.4   NA       0.0000   9999     0     0     0    
2019/08/19  08:05:03  BASE  2.81652  296  3.65736  314  -4.9  100   -4.9  0     0     1009.4   NA       0.0000   9999     0     0     0    
2019/08/19  08:06:05  BASE  2.352    278  3.65736  314  -4.9  100   -4.9  0     0     1009.4   NA       0.0000   9000     0     0     0    
2019/08/19  08:07:00  BASE  2.32848  273  3.65736  314  -4.9  100   -4.9  0     0     1009.4   NA       0.0000   9000     0     0     0    
2019/08/19  08:08:03  BASE  2.48136  273  3.65736  314  -5.0  100   -5.0  0     0     1009.5   NA       0.0000   8000     0     0     0    
2019/08/19  08:09:03  BASE  2.04036  276  3.65736  314  -5.0  100   -5.0  0     0     1009.5   NA       0.0000   8000     0     0     0    
2019/08/19  08:10:03  BASE  1.72284  279  3.65736  314  -5.0  100   -5.1  0     0     1009.5   NA       0.0000   BR       6000  0     0    
2019/08/19  08:11:04  BASE  1.617    287  3.65736  314  -5.1  100   -5.1  0     0     1009.6   NA       0.0000   BR       5000  0     0    
2019/08/19  08:12:03  BASE  1.47588  293  3.65736  314  -5.1  100   -5.1  0     0     1009.6   NA       0.0000   BR       5000  0     0    
2019/08/19  08:13:03  BASE  1.87572  286  3.65736  314  -5.1  100   -5.1  0     0     1009.6   NA       0.0000   BR       5000  0     0    
2019/08/19  08:14:03  BASE  2.21088  278  3.087    263  -5.1  100   -5.1  0     0     1009.6   NA       0.0000   BR       7000  1180  0    
2019/08/19  08:15:03  BASE  1.89924  276  3.087    263  -5.1  100   -5.1  0     0     1009.6   NA       0.0000   BR       8000  1120  0    
2019/08/19  08:16:03  BASE  1.71108  275  3.087    263  -5.1  100   -5.1  0     0     1009.6   NA       0.0000   BR       8000  160   1180 
2019/08/19  08:17:03  BASE  1.84632  277  3.087    263  -5.1  100   -5.1  0     0     1009.6   NA       0.0000   BR       8000  1150  0    
2019/08/19  08:18:03  BASE  1.81104  282  2.63424  292  -5.2  100   -5.2  0     0     1009.6   NA       0.0000   BR       9000  1180  0    
2019/08/19  08:19:03  BASE  1.66404  285  2.63424  292  -5.2  100   -5.2  0     0     1009.6   NA       0.0000   BR       9000  160   1180 
2019/08/19  08:20:03  BASE  1.5582   292  2.63424  292  -5.2  100   -5.2  0     0     1009.6   NA       0.0000   BR       9999  200   1210 
2019/08/19  08:21:03  BASE  1.5288   297  2.63424  292  -5.2  100   -5.2  0     0     1009.6   NA       0.0000   BR       9999  200   1250 
2019/08/19  08:22:03  BASE  1.66992  301  2.63424  292  -5.3  100   -5.3  0     0     1009.6   NA       0.0000   BR       9999  1350  0    
2019/08/19  08:23:03  BASE  1.83456  313  2.56956  280  -5.3  100   -5.3  0     0     1009.6   NA       0.0000   BR       9999  160   1380 
2019/08/19  08:24:04  BASE  1.80516  313  2.56956  280  -5.3  100   -5.3  0     0     1009.6   NA       0.0000   BR       9999  1410  0    
2019/08/19  08:25:03  BASE  1.59348  318  2.56956  280  -5.3  100   -5.3  0     0     1009.6   NA       0.0000   BR       8000  0     0    
2019/08/19  08:26:03  BASE  1.617    338  2.56956  280  -5.3  100   -5.3  0     0     1009.6   NA       0.0000   BR       9000  0     0    
2019/08/19  08:27:03  BASE  1.74048  351  2.29908  297  -5.2  100   -5.2  0     0     1009.6   NA       0.0000   BR       9000  0     0    
2019/08/19  08:28:03  BASE  1.51116  340  2.29908  297  -5.2  100   -5.2  0     0     1009.6   NA       0.0000   BR       9000  0     0    
2019/08/19  08:29:03  BASE  1.2642   328  2.29908  297  -5.2  100   -5.2  0     0     1009.6   NA       0.0000   BR       6000  0     0    
2019/08/19  08:30:03  BASE  1.31124  330  2.29908  297  -5.2  100   -5.2  0     0     1009.6   NA       0.0000   BR       6000  0     0    
2019/08/19  08:31:03  BASE  1.19952  322  2.29908  297  -5.2  100   -5.2  0     0     1009.6   NA       0.0000   BR       6000  0     0    
2019/08/19  08:32:03  BASE  1.1466   316  2.29908  297  -5.2  100   -5.2  0     0     1009.6   NA       0.0000   BR       7000  0     0    
2019/08/19  08:33:03  BASE  1.24068  315  2.29908  297  -5.3  100   -5.3  0     0     1009.6   NA       0.0000   BR       7000  0     0    
2019/08/19  08:34:03  BASE  1.08192  331  1.93452  360  -5.3  100   -5.3  0     0     1009.6   NA       0.0000   BR       8000  0     0    
2019/08/19  08:35:03  BASE  1.2054   347  1.93452  360  -5.3  100   -5.3  0     0     1009.5   NA       0.0000   BR       8000  0     0    
2019/08/19  08:36:03  BASE  1.46412  354  1.93452  360  -5.4  100   -5.4  0     0     1009.5   NA       0.0000   BR       6000  0     0    
2019/08/19  08:37:03  BASE  1.617    358  1.96392  354  -5.4  100   -5.4  0     0     1009.6   NA       0.0000   BR       6000  0     0    
2019/08/19  08:38:04  BASE  1.68168  357  2.0286   350  -5.4  100   -5.4  0     0     1009.5   NA       0.0000   BR       7000  0     0    
2019/08/19  08:39:03  BASE  1.5288   352  2.0286   350  -5.4  100   -5.4  0     0     1009.5   NA       0.0000   BR       7000  0     0    
2019/08/19  08:40:03  BASE  1.45824  354  2.0286   350  -5.3  100   -5.3  0     0     1009.5   NA       0.0000   BR       6000  0     0    
2019/08/19  08:41:03  BASE  1.56408  358  2.0286   350  -5.3  100   -5.3  0     0     1009.5   NA       0.0000   BR       7000  0     0    
2019/08/19  08:42:04  BASE  1.71108  355  2.0286   350  -5.2  100   -5.2  0     0     1009.6   NA       0.0000   BR       7000  0     0    
2019/08/19  08:43:03  BASE  1.82868  346  2.1168   332  -5.2  100   -5.2  0     0     1009.6   NA       0.0000   BR       7000  0     0    
2019/08/19  08:44:04  BASE  1.92276  349  2.1756   354  -5.2  100   -5.2  0     0     1009.6   NA       0.0000   BR       7000  0     0    
2019/08/19  08:45:03  BASE  1.87572  355  2.1756   354  -5.2  100   -5.2  0     0     1009.6   NA       0.0000   BR       9000  0     0    
2019/08/19  08:46:03  BASE  1.65228  344  2.1756   354  -5.2  100   -5.2  0     0     1009.6   NA       0.0000   BR       8000  0     0    
2019/08/19  08:47:03  BASE  1.44648  333  2.1756   354  -5.2  100   -5.2  0     0     1009.6   NA       0.0000   BR       7000  0     0    
2019/08/19  08:48:03  BASE  1.32888  335  2.1756   354  -5.2  100   -5.2  0     0     1009.5   NA       0.0000   BR       6000  0     0    
2019/08/19  08:49:03  BASE  1.42296  344  2.1756   354  -5.2  100   -5.2  0     0     1009.5   NA       0.0000   BR       7000  0     0    
2019/08/19  08:50:02  BASE  1.43472  340  2.1756   354  -5.2  100   -5.2  0     0     1009.4   NA       0.0000   BR       7000  0     0    
2019/08/19  08:51:03  BASE  1.18776  335  2.1756   354  -5.2  100   -5.2  0     0     1009.4   NA       0.0000   BR       7000  0     0    
2019/08/19  08:52:03  BASE  1.029    333  2.1756   354  -5.3  100   -5.3  0     0     1009.4   NA       0.0000   BR       8000  0     0    
2019/08/19  08:53:03  BASE  0.92316  339  2.1756   354  -5.3  100   -5.3  0     0     1009.4   NA       0.0000   BR       7000  0     0    
2019/08/19  08:54:03  BASE  0.7644   339  1.96392  345  -5.3  100   -5.3  0     0     1009.5   NA       0.0000   BR       7000  0     0    
2019/08/19  08:55:03  BASE  0.75852  324  1.84632  342  -5.3  100   -5.3  0     0     1009.5   NA       0.0000   BR       6000  0     0    
2019/08/19  08:56:03  BASE  0.89376  319  1.69344  345  -5.3  100   -5.3  0     0     1009.5   NA       0.0000   BR       5000  0     0    
2019/08/19  08:57:03  BASE  1.12308  321  1.69344  345  -5.3  100   -5.3  0     0     1009.5   NA       0.0000   BR       5000  0     0    
2019/08/19  08:58:03  BASE  1.42884  325  1.69344  345  -5.3  100   -5.3  0     0     1009.5   NA       0.0000   BR       7000  0     0    
2019/08/19  08:59:03  BASE  1.5582   329  1.63464  328  -5.3  100   -5.3  0     0     1009.5   NA       0.0000   BR       8000  0     0    
2019/08/19  09:00:03  BASE  1.71696  328  2.1462   324  -5.3  100   -5.3  0     0     1009.5   NA       0.0000   BR       8000  0     0    
2019/08/19  09:01:03  BASE  2.03448  324  2.29908  323  -5.3  100   -5.3  0     0     1009.5   NA       0.0000   BR       7000  0     0    
2019/08/19  09:02:04  BASE  2.18148  320  2.32848  315  -5.3  100   -5.3  0     0     1009.5   NA       0.0000   BR       7000  0     0    
2019/08/19  09:03:03  BASE  2.03448  319  2.32848  315  -5.3  100   -5.3  0     0     1009.5   NA       0.0000   BR       7000  0     0    
2019/08/19  09:04:03  BASE  1.89924  317  2.32848  315  -5.3  100   -5.3  0     0     1009.5   NA       0.0000   BR       8000  0     0    
2019/08/19  09:05:03  BASE  1.80516  315  2.32848  315  -5.3  100   -5.3  0     0     1009.5   NA       0.0000   BR       8000  0     0    
2019/08/19  09:06:04  BASE  1.69932  318  2.32848  315  -5.3  100   -5.3  0     0     1009.5   NA       0.0000   BR       8000  0     0    
2019/08/19  09:07:03  BASE  1.72284  316  2.32848  315  -5.3  100   -5.3  0     0     1009.6   NA       0.0000   BR       8000  0     0    
2019/08/19  09:08:03  BASE  1.71108  317  2.32848  315  -5.3  100   -5.3  0     0     1009.6   NA       0.0000   BR       9000  0     0    
2019/08/19  09:09:03  BASE  1.74636  321  2.32848  315  -5.3  100   -5.3  0     0     1009.6   NA       0.0000   BR       8000  0     0    
2019/08/19  09:10:03  BASE  1.71108  326  2.32848  315  -5.3  100   -5.3  0     0     1009.6   NA       0.0000   BR       7000  0     0    
2019/08/19  09:11:03  BASE  1.48764  338  2.32848  315  -5.3  100   -5.3  0     0     1009.6   NA       0.0000   BR       7000  0     0    
2019/08/19  09:12:03  BASE  1.44648  345  2.058    314  -5.3  100   -5.3  0     0     1009.6   NA       0.0000   BR       8000  0     0    
2019/08/19  09:13:03  BASE  1.39356  341  2.058    314  -5.3  100   -5.3  0     0     1009.6   NA       0.0000   BR       9000  0     0    
2019/08/19  09:14:03  BASE  1.41708  333  2.058    314  -5.3  100   -5.3  0     0     1009.6   NA       0.0000   BR       8000  0     0    
2019/08/19  09:15:03  BASE  1.71696  329  2.32848  322  -5.4  100   -5.4  0     0     1009.6   NA       0.0000   BR       8000  0     0    
2019/08/19  09:16:03  BASE  1.71696  327  2.32848  322  -5.4  100   -5.4  0     0     1009.6   NA       0.0000   BR       7000  0     0    
2019/08/19  09:17:03  BASE  1.51116  329  2.32848  322  -5.4  100   -5.4  0     0     1009.6   NA       0.0000   BR       7000  0     0    
2019/08/19  09:18:03  BASE  1.66404  325  2.32848  322  -5.4  100   -5.4  0     0     1009.6   NA       0.0000   BR       8000  0     0    
2019/08/19  09:19:03  BASE  1.92276  318  2.32848  322  -5.3  100   -5.3  0     0     1009.6   NA       0.0000   BR       9000  0     0    
2019/08/19  09:20:03  BASE  1.89336  315  2.32848  322  -5.3  100   -5.3  0     0     1009.6   NA       0.0000   BR       8000  0     0    
2019/08/19  09:21:03  BASE  1.7346   317  2.32848  322  -5.3  100   -5.3  0     0     1009.6   NA       0.0000   BR       7000  0     0    
2019/08/19  09:22:03  BASE  1.5582   321  2.32848  322  -5.3  100   -5.3  0     0     1009.6   NA       0.0000   BR       7000  0     0    
2019/08/19  09:23:03  BASE  1.56408  332  2.32848  322  -5.3  100   -5.3  0     0     1009.6   NA       0.0000   BR       7000  0     0    
2019/08/19  09:24:03  BASE  1.72284  345  2.32848  322  -5.3  100   -5.3  0     0     1009.6   NA       0.0000   BR       9000  0     0    
2019/08/19  09:25:03  BASE  1.7052   349  2.0874   310  -5.3  100   -5.3  0     0     1009.5   NA       0.0000   BR       9000  0     0    
2019/08/19  09:26:03  BASE  1.54644  349  2.0874   310  -5.3  100   -5.3  0     0     1009.5   NA       0.0000   BR       8000  0     0    
2019/08/19  09:27:03  BASE  1.42884  342  2.0874   310  -5.3  100   -5.3  0     0     1009.5   NA       0.0000   BR       8000  0     0    
2019/08/19  09:28:03  BASE  1.68168  343  2.0874   347  -5.3  100   -5.3  0     0     1009.6   NA       0.0000   BR       9000  0     0    
2019/08/19  09:29:03  BASE  1.8816   348  2.0874   347  -5.3  100   -5.3  0     0     1009.6   NA       0.0000   BR       9999  0     0    
2019/08/19  09:30:03  BASE  1.92864  349  2.1462   349  -5.3  100   -5.3  0     0     1009.6   NA       0.0000   BR       9999  0     0    
2019/08/19  09:31:03  BASE  1.99332  345  2.1462   349  -5.3  100   -5.3  0     0     1009.6   NA       0.0000   BR       9999  0     0    
2019/08/19  09:32:03  BASE  1.92276  341  2.29908  343  -5.3  100   -5.3  0     0     1009.6   NA       0.0000   BR       9999  0     0    
2019/08/19  09:33:03  BASE  2.1168   331  2.72244  317  -5.3  100   -5.3  0     0     1009.6   NA       0.0000   9999     0     0     0    
2019/08/19  09:34:03  BASE  2.0286   320  2.72244  317  -5.4  100   -5.4  0     0     1009.6   NA       0.0000   9999     0     0     0    
2019/08/19  09:35:03  BASE  1.71696  324  2.72244  317  -5.4  100   -5.4  0     0     1009.6   NA       0.0000   9000     0     0     0    
2019/08/19  09:36:03  BASE  1.86984  334  2.72244  317  -5.4  100   -5.4  0     0     1009.6   NA       0.0000   9000     0     0     0    
2019/08/19  09:37:03  BASE  2.01684  339  2.72244  317  -5.4  100   -5.4  0     0     1009.6   NA       0.0000   9999     0     0     0    
2019/08/19  09:38:03  BASE  1.9404   339  2.72244  317  -5.4  100   -5.4  0     0     1009.7   NA       0.0000   9999     0     0     0    
2019/08/19  09:39:03  BASE  1.74048  339  2.72244  317  -5.4  100   -5.4  0     0     1009.7   NA       0.0000   9999     0     0     0    
2019/08/19  09:40:03  BASE  1.66404  328  2.72244  317  -5.4  100   -5.4  0     0     1009.7   NA       0.0000   9000     0     0     0    
2019/08/19  09:41:03  BASE  1.60524  321  2.72244  317  -5.4  100   -5.4  0     0     1009.7   NA       0.0000   9999     0     0     0    
2019/08/19  09:42:03  BASE  1.48764  326  2.72244  317  -5.4  100   -5.4  0     0     1009.7   NA       0.0000   9000     0     0     0    
2019/08/19  09:43:03  BASE  1.4994   329  2.42256  337  -5.4  100   -5.4  0     0     1009.6   NA       0.0000   9999     0     0     0    
2019/08/19  09:44:03  BASE  1.617    331  2.42256  337  -5.4  100   -5.4  0     0     1009.6   NA       0.0000   9999     0     0     0    
2019/08/19  09:45:03  BASE  1.82868  332  2.42256  337  -5.4  100   -5.4  0     0     1009.6   NA       0.0000   9999     0     0     0    
2019/08/19  09:46:03  BASE  1.90512  335  2.24028  327  -5.4  100   -5.4  0     0     1009.6   NA       0.0000   9999     0     0     0    
2019/08/19  09:47:03  BASE  1.89924  340  2.1168   354  -5.5  100   -5.5  0     0     1009.6   NA       0.0000   9999     0     0     0    
2019/08/19  09:48:03  BASE  1.9992   347  2.24028  354  -5.4  100   -5.4  0     0     1009.6   NA       0.0000   9999     0     0     0    
2019/08/19  09:49:03  BASE  2.205    349  2.42256  353  -5.4  100   -5.4  0     0     1009.6   NA       0.0000   9999     0     0     0    
2019/08/19  09:50:02  BASE  2.1168   345  2.42256  353  -5.4  100   -5.4  0     0     1009.6   NA       0.0000   9999     0     0     0    
2019/08/19  09:51:03  BASE  1.89336  342  2.42256  353  -5.4  100   -5.4  0     0     1009.7   NA       0.0000   9999     0     0     0    
2019/08/19  09:52:03  BASE  1.74048  332  2.42256  353  -5.4  100   -5.4  0     0     1009.7   NA       0.0000   9999     0     0     0    
2019/08/19  09:53:03  BASE  1.7934   325  2.42256  353  -5.4  100   -5.4  0     0     1009.7   NA       0.0000   8000     0     0     0    
2019/08/19  09:54:03  BASE  1.92276  323  2.42256  353  -5.4  100   -5.4  0     0     1009.7   NA       0.0000   9999     0     0     0    
2019/08/19  09:55:03  BASE  1.76988  311  2.42256  353  -5.4  100   -5.4  0     0     1009.7   NA       0.0000   9999     0     0     0    
2019/08/19  09:56:03  BASE  1.7346   297  2.42256  353  -5.4  100   -5.4  0     0     1009.7   NA       0.0000   9000     0     0     0    
2019/08/19  09:57:03  BASE  1.71108  291  2.42256  353  -5.4  100   -5.4  0     0     1009.7   NA       0.0000   7000     0     0     0    
2019/08/19  09:58:03  BASE  1.60524  289  2.42256  353  -5.5  100   -5.5  0     0     1009.7   NA       0.0000   BR       8000  0     0    
2019/08/19  09:59:03  BASE  1.68756  292  2.35788  328  -5.5  100   -5.5  0     0     1009.7   NA       0.0000   BR       9000  0     0    
2019/08/19  10:00:03  BASE  1.71108  297  2.35788  328  -5.5  100   -5.5  0     0     1009.7   NA       0.0000   BR       9000  0     0    
2019/08/19  10:01:03  BASE  1.45236  301  2.35788  328  -5.5  100   -5.5  0     0     1009.7   NA       0.0000   BR       9999  0     0    
2019/08/19  10:02:03  BASE  1.36416  299  2.35788  328  -5.5  100   -5.5  0     0     1009.6   NA       0.0000   BR       9999  200   0    
2019/08/19  10:03:03  BASE  1.63464  296  2.0874   331  -5.6  100   -5.6  0     0     1009.6   NA       0.0000   BR       9999  260   0    
2019/08/19  10:04:03  BASE  1.7934   290  1.9992   296  -5.6  100   -5.6  0     0     1009.6   NA       0.0000   BR       9999  260   0    
2019/08/19  10:05:03  BASE  1.81692  287  2.0286   283  -5.6  100   -5.6  0     0     1009.6   NA       0.0000   9999     230   0     0    
2019/08/19  10:06:04  BASE  1.84632  289  2.0286   283  -5.6  100   -5.6  0     0     1009.6   NA       0.0000   9999     0     0     0    
2019/08/19  10:07:03  BASE  1.71696  289  2.0286   283  -5.6  100   -5.6  0     0     1009.7   NA       0.0000   9000     0     0     0    
2019/08/19  10:08:04  BASE  1.60524  287  2.0286   283  -5.6  100   -5.6  0     0     1009.7   NA       0.0000   9999     0     0     0    
2019/08/19  10:09:03  BASE  1.59348  283  2.0286   283  -5.6  100   -5.6  0     0     1009.7   NA       0.0000   9999     0     0     0    
2019/08/19  10:10:03  BASE  1.51116  281  2.0286   283  -5.6  100   -5.6  0     0     1009.7   NA       0.0000   9999     0     0     0    
2019/08/19  10:11:03  BASE  1.5876   282  2.0286   283  -5.6  100   -5.6  0     0     1009.7   NA       0.0000   9999     0     0     0    
2019/08/19  10:12:02  BASE  1.75224  283  2.0286   283  -5.6  100   -5.6  0     0     1009.7   NA       0.0000   9999     0     0     0    
2019/08/19  10:13:03  BASE  1.82868  282  2.0286   283  -5.6  100   -5.6  0     0     1009.7   NA       0.0000   9999     0     0     0    
2019/08/19  10:14:03  BASE  1.77576  282  2.0286   283  -5.7  100   -5.7  0     0     1009.7   NA       0.0000   9999     0     0     0    
2019/08/19  10:15:03  BASE  1.51704  288  2.0286   283  -5.7  100   -5.7  0     0     1009.7   NA       0.0000   9999     0     0     0    
2019/08/19  10:16:03  BASE  1.33476  292  2.0286   283  -5.7  100   -5.7  0     0     1009.7   NA       0.0000   9999     200   0     0    
2019/08/19  10:17:02  BASE  1.36416  296  2.0286   283  -5.7  100   -5.7  0     0     1009.7   NA       0.0000   9999     0     0     0    
2019/08/19  10:18:03  BASE  1.47588  299  2.0286   283  -5.7  100   -5.7  0     0     1009.7   NA       0.0000   9999     0     0     0    
2019/08/19  10:19:03  BASE  1.5582   301  2.0286   283  -5.7  100   -5.7  0     0     1009.7   NA       0.0000   9999     0     0     0    
2019/08/19  10:20:03  BASE  1.69344  304  2.0286   283  -5.7  100   -5.7  0     0     1009.7   NA       0.0000   9999     0     0     0    
2019/08/19  10:21:03  BASE  1.77576  307  2.0286   283  -5.8  100   -5.8  0     0     1009.7   NA       0.0000   9999     0     0     0    
2019/08/19  10:22:03  BASE  1.7934   310  2.0286   283  -5.8  100   -5.8  0     0     1009.7   NA       0.0000   9999     0     0     0    
2019/08/19  10:23:03  BASE  1.78752  314  1.96392  307  -5.8  100   -5.8  0     0     1009.7   NA       0.0000   9999     0     0     0    
2019/08/19  10:24:04  BASE  1.75224  318  1.96392  307  -5.8  100   -5.8  0     0     1009.7   NA       0.0000   9000     0     0     0    
2019/08/19  10:25:03  BASE  1.71696  315  1.96392  314  -5.8  100   -5.8  0     0     1009.7   NA       0.0000   9999     0     0     0    
2019/08/19  10:26:03  BASE  1.66992  313  1.96392  314  -5.8  100   -5.8  0     0     1009.7   NA       0.0000   9999     0     0     0    
2019/08/19  10:27:03  BASE  1.617    320  1.96392  314  -5.8  100   -5.8  0     0     1009.7   NA       0.0000   9000     0     0     0    
2019/08/19  10:28:03  BASE  1.6464   324  1.96392  314  -5.8  100   -5.8  0     0     1009.7   NA       0.0000   9000     0     0     0    
2019/08/19  10:29:03  BASE  1.69932  320  1.96392  314  -5.8  100   -5.8  0     0     1009.7   NA       0.0000   BR       9000  0     0    
2019/08/19  10:30:03  BASE  1.72284  319  1.96392  314  -5.8  100   -5.8  0     0     1009.7   NA       0.0000   BR       8000  0     0    
2019/08/19  10:31:03  BASE  1.72284  319  1.96392  314  -5.8  100   -5.8  0     0     1009.7   NA       0.0000   BR       8000  0     0    
2019/08/19  10:32:03  BASE  1.65816  319  1.96392  314  -5.7  100   -5.7  0     0     1009.7   NA       0.0000   BR       8000  0     0    
2019/08/19  10:33:03  BASE  1.64052  322  1.96392  314  -5.7  100   -5.7  0     0     1009.7   NA       0.0000   BR       8000  0     0    
2019/08/19  10:34:04  BASE  1.71696  323  1.96392  318  -5.7  100   -5.7  0     0     1009.7   NA       0.0000   BR       7000  0     0    
2019/08/19  10:35:04  BASE  1.83456  319  1.96392  316  -5.7  100   -5.7  0     0     1009.7   NA       0.0000   BR       8000  0     0    
2019/08/19  10:36:04  BASE  1.8228   318  1.96392  316  -5.7  100   -5.7  0     0     1009.7   NA       0.0000   BR       9999  0     0    
2019/08/19  10:37:03  BASE  1.72872  315  1.96392  316  -5.7  100   -5.7  0     0     1009.7   NA       0.0000   BR       9999  0     0    
2019/08/19  10:38:04  BASE  1.68168  311  1.96392  316  -5.7  100   -5.7  0     0     1009.7   NA       0.0000   BR       9999  0     0    
2019/08/19  10:39:04  BASE  1.69344  315  1.96392  316  -5.7  100   -5.7  0     0     1009.7   NA       0.0000   BR       9999  0     0    
2019/08/19  10:40:04  BASE  1.78752  316  1.9992   308  -5.7  100   -5.7  0     0     1009.6   NA       0.0000   BR       9999  200   750  
2019/08/19  10:41:04  BASE  1.81104  316  1.9992   308  -5.7  100   -5.7  0     0     1009.6   NA       0.0000   BR       9999  260   790  
2019/08/19  10:42:03  BASE  1.91688  319  2.1462   318  -5.7  100   -5.7  0     0     1009.6   NA       0.0000   9999     260   720   0    
2019/08/19  10:43:03  BASE  1.96392  321  2.1462   318  -5.8  100   -5.8  0     0     1009.6   NA       0.0000   9999     260   720   0    
2019/08/19  10:44:04  BASE  1.86984  323  2.1462   318  -5.8  100   -5.8  0     0     1009.7   NA       0.0000   9999     260   750   0    
2019/08/19  10:45:03  BASE  1.90512  324  2.1462   318  -5.8  100   -5.8  0     0     1009.7   NA       0.0000   9999     300   0     0    
2019/08/19  10:46:03  BASE  1.95216  324  2.1462   318  -5.8  100   -5.8  0     0     1009.7   NA       0.0000   9999     330   850   0    
2019/08/19  10:47:03  BASE  1.98156  325  2.1462   323  -5.8  100   -5.8  0     0     1009.7   NA       0.0000   9999     330   920   0    
2019/08/19  10:48:03  BASE  1.96392  325  2.1462   323  -5.8  100   -5.8  0     0     1009.7   NA       0.0000   9999     300   850   0    
2019/08/19  10:49:03  BASE  1.98744  320  2.24028  316  -5.8  100   -5.8  0     0     1009.7   NA       0.0000   9999     300   950   0    
2019/08/19  10:50:03  BASE  1.9404   316  2.24028  316  -5.8  100   -5.8  0     0     1009.7   NA       0.0000   9999     230   980   0    
2019/08/19  10:51:04  BASE  1.81104  320  2.24028  316  -5.8  100   -5.8  0     0     1009.7   NA       0.0000   9999     230   950   0    
2019/08/19  10:52:03  BASE  1.78752  322  2.24028  316  -5.8  100   -5.8  0     0     1009.7   NA       0.0000   9999     230   950   0    
2019/08/19  10:53:03  BASE  1.76988  321  2.24028  316  -5.8  100   -5.8  0     0     1009.7   NA       0.0000   9999     260   890   0    
2019/08/19  10:54:03  BASE  1.78752  319  2.24028  316  -5.8  100   -5.8  0     0     1009.8   NA       0.0000   9999     230   1050  0    
2019/08/19  10:55:03  BASE  1.84632  315  2.24028  316  -5.8  100   -5.8  0     0     1009.8   NA       0.0000   9999     230   1080  0    
2019/08/19  10:56:04  BASE  1.77576  313  2.24028  316  -5.8  100   -5.8  0     0     1009.8   NA       0.0000   9999     890   0     0    
2019/08/19  10:57:04  BASE  1.72284  316  2.24028  316  -5.8  100   -5.8  0     0     1009.9   NA       0.0000   9999     430   1150  0    
2019/08/19  10:58:04  BASE  1.74048  318  2.24028  316  -5.8  100   -5.8  0     0     1009.9   NA       0.0000   9999     300   1210  0    
2019/08/19  10:59:03  BASE  1.66404  317  1.96392  316  -5.8  100   -5.8  0     0     1010.0   NA       0.0000   9999     200   720   0    
2019/08/19  11:00:03  BASE  1.69344  319  1.93452  313  -5.8  100   -5.8  0     0     1010.0   NA       0.0000   9999     0     0     0    
2019/08/19  11:01:03  BASE  1.75812  321  1.93452  313  -5.7  100   -5.7  0     0     1010.0   NA       0.0000   9000     0     0     0    
2019/08/19  11:02:03  BASE  1.69344  318  1.93452  313  -5.7  100   -5.7  0     0     1010.0   NA       0.0000   9000     0     0     0    
2019/08/19  11:03:03  BASE  1.60524  317  1.93452  313  -5.7  100   -5.7  0     0     1010.0   NA       0.0000   9999     0     0     0    
2019/08/19  11:04:04  BASE  1.56408  317  1.90512  306  -5.7  100   -5.7  0     0     1010.1   NA       0.0000   9999     0     0     0    
2019/08/19  11:05:03  BASE  1.51116  321  1.87572  318  -5.7  100   -5.7  0     0     1010.1   NA       0.0000   9000     0     0     0    
2019/08/19  11:06:04  BASE  1.47588  327  1.87572  318  -5.7  100   -5.7  0     0     1010.0   NA       0.0000   9999     0     0     0    
2019/08/19  11:07:03  BASE  1.5582   328  1.87572  323  -5.7  100   -5.7  0     0     1010.0   NA       0.0000   9999     0     0     0    
2019/08/19  11:08:03  BASE  1.65816  327  1.87572  323  -5.7  100   -5.7  0     0     1010.0   NA       0.0000   9999     0     0     0    
2019/08/19  11:09:03  BASE  1.72872  327  1.87572  323  -5.7  100   -5.7  0     0     1010.0   NA       0.0000   9999     0     0     0    
2019/08/19  11:10:03  BASE  1.74636  328  1.87572  323  -5.7  100   -5.7  0     0     1010.0   NA       0.0000   9999     0     0     0    
2019/08/19  11:11:03  BASE  1.62288  333  1.87572  323  -5.7  100   -5.7  0     0     1010.0   NA       0.0000   9999     0     0     0    
2019/08/19  11:12:04  BASE  1.53468  340  1.87572  323  -5.7  100   -5.7  0     0     1009.9   NA       0.0000   9999     0     0     0    
2019/08/19  11:13:03  BASE  1.56996  345  1.87572  323  -5.6  100   -5.6  0     0     1009.8   NA       0.0000   9999     0     0     0    
2019/08/19  11:14:04  BASE  1.6464   348  1.90512  348  -5.6  100   -5.6  0     0     1009.8   NA       0.0000   9999     0     0     0    
2019/08/19  11:15:04  BASE  1.80516  346  1.96392  341  -5.6  100   -5.6  0     0     1009.8   NA       0.0000   9999     0     0     0    
2019/08/19  11:16:04  BASE  1.911    343  1.9992   340  -5.6  100   -5.6  0     0     1009.7   NA       0.0000   9999     0     0     0    
2019/08/19  11:17:04  BASE  1.86984  344  1.9992   340  -5.6  100   -5.6  0     0     1009.8   NA       0.0000   9999     0     0     0    
2019/08/19  11:18:04  BASE  1.79928  347  1.9992   340  -5.6  100   -5.6  0     0     1009.8   NA       0.0000   9999     0     0     0    
2019/08/19  11:19:04  BASE  1.7934   350  1.9992   340  -5.6  100   -5.6  0     0     1009.8   NA       0.0000   9999     0     0     0    
2019/08/19  11:20:03  BASE  1.8228   349  1.9992   340  -5.7  100   -5.7  0     0     1009.7   NA       0.0000   9999     0     0     0    
2019/08/19  11:21:03  BASE  1.81692  350  1.9992   340  -5.6  100   -5.6  0     0     1009.7   NA       0.0000   9999     0     0     0    
2019/08/19  11:22:04  BASE  1.74048  356  1.9992   340  -5.6  100   -5.6  0     0     1009.7   NA       0.0000   9999     0     0     0    
2019/08/19  11:23:03  BASE  1.7934   354  2.0874   350  -5.6  100   -5.6  0     0     1009.7   NA       0.0000   9999     0     0     0    
2019/08/19  11:24:04  BASE  1.82868  355  2.0874   350  -5.6  100   -5.6  0     0     1009.7   NA       0.0000   9999     0     0     0    
2019/08/19  11:25:03  BASE  1.86396  351  2.26968  307  -5.6  100   -5.6  0     0     1009.7   NA       0.0000   9999     0     0     0    
2019/08/19  11:26:05  BASE  2.11092  321  2.54016  308  -5.6  100   -5.6  0     0     1009.7   NA       0.0000   9000     0     0     0    
2019/08/19  11:27:04  BASE  2.02272  296  2.54016  308  -5.5  100   -5.5  0     0     1009.7   NA       0.0000   6000     0     0     0    
2019/08/19  11:28:04  BASE  1.911    286  2.54016  308  -5.5  100   -5.5  0     0     1009.7   NA       0.0000   5000     0     0     0    
2019/08/19  11:29:03  BASE  1.81104  280  2.54016  308  -5.4  100   -5.4  0     0     1009.7   NA       0.0000   BR       2500  0     0    
2019/08/19  11:30:03  BASE  1.62876  280  2.54016  308  -5.4  100   -5.4  0     0     1009.7   NA       0.0000   BR       2800  0     0    
2019/08/19  11:31:02  BASE  1.6464   281  2.54016  308  -5.4  100   -5.4  0     0     1009.7   NA       0.0000   BR       3200  0     0    
2019/08/19  11:32:04  BASE  1.60524  283  2.54016  308  -5.4  100   -5.4  0     0     1009.7   NA       0.0000   BR       3500  0     0    
2019/08/19  11:33:03  BASE  1.53468  285  2.54016  308  -5.4  100   -5.4  0     0     1009.7   NA       0.0000   BR       3400  0     0    
2019/08/19  11:34:03  BASE  1.59936  287  2.54016  308  -5.4  100   -5.4  0     0     1009.7   NA       0.0000   BR       3300  0     0    
2019/08/19  11:35:02  BASE  1.65228  286  2.54016  308  -5.4  100   -5.4  0     0     1009.7   NA       0.0000   BR       3200  0     0    
2019/08/19  11:36:04  BASE  1.53468  284  2.29908  286  -5.5  100   -5.5  0     0     1009.7   NA       0.0000   BR       3300  0     0    
2019/08/19  11:37:03  BASE  1.42884  286  2.29908  286  -5.5  100   -5.5  0     0     1009.7   NA       0.0000   BR       3200  0     0    
2019/08/19  11:38:03  BASE  1.4112   289  1.81692  289  -5.5  100   -5.5  0     0     1009.7   NA       0.0000   BR       3100  0     0    
2019/08/19  11:39:03  BASE  1.47     287  1.81692  289  -5.5  100   -5.5  0     0     1009.8   NA       0.0000   BR       2800  0     0    
2019/08/19  11:40:03  BASE  1.49352  281  1.81692  289  -5.5  100   -5.5  1     0     1009.8   NA       0.0000   BR       2700  0     0    
2019/08/19  11:41:03  BASE  1.52292  277  1.81692  289  -5.5  100   -5.5  1     0     1009.8   NA       0.0000   BR       2700  0     0    
2019/08/19  11:42:04  BASE  1.56408  284  1.81692  289  -5.5  100   -5.5  1     0     1009.8   NA       0.0000   BR       2900  0     0    
2019/08/19  11:43:03  BASE  1.71108  291  1.90512  296  -5.5  100   -5.5  1     0     1009.7   NA       0.0000   BR       3200  0     0    
2019/08/19  11:44:04  BASE  1.80516  295  1.90512  296  -5.5  100   -5.5  1     0     1009.7   NA       0.0000   BR       3300  0     0    
2019/08/19  11:45:03  BASE  1.72872  298  1.90512  296  -5.6  100   -5.6  1     0     1009.7   NA       0.0000   BR       3700  0     0    
2019/08/19  11:46:03  BASE  1.72872  300  1.90512  300  -5.6  100   -5.6  1     0     1009.7   NA       0.0000   BR       3600  0     0    
2019/08/19  11:47:03  BASE  1.69932  303  1.90512  303  -5.6  100   -5.6  1     0     1009.7   NA       0.0000   BR       3500  0     0    
2019/08/19  11:48:03  BASE  1.71108  306  1.90512  303  -5.6  100   -5.6  1     0     1009.6   NA       0.0000   BR       3400  0     0    
2019/08/19  11:49:03  BASE  1.74636  305  1.90512  303  -5.6  100   -5.6  1     0     1009.6   NA       0.0000   BR       3300  0     0    
2019/08/19  11:50:03  BASE  1.72284  303  1.90512  303  -5.6  100   -5.6  1     0     1009.6   NA       0.0000   BR       3200  0     0    
2019/08/19  11:51:03  BASE  1.82868  302  1.9992   303  -5.6  100   -5.6  1     0     1009.5   NA       0.0000   BR       3600  0     0    
2019/08/19  11:52:03  BASE  1.84044  299  1.9992   303  -5.6  100   -5.6  1     0     1009.5   NA       0.0000   BR       3900  0     0    
2019/08/19  11:53:03  BASE  1.7346   295  1.9992   303  -5.5  100   -5.5  1     0     1009.4   NA       0.0000   BR       3900  0     0    
2019/08/19  11:54:03  BASE  1.71696  298  1.9992   303  -5.5  100   -5.5  1     0     1009.4   NA       0.0000   BR       3900  0     0    
2019/08/19  11:55:03  BASE  1.6464   304  1.9992   303  -5.5  100   -5.5  1     0     1009.4   NA       0.0000   BR       4000  0     0    
2019/08/19  11:56:04  BASE  1.65228  300  1.9992   303  -5.5  100   -5.5  1     0     1009.4   NA       0.0000   BR       4900  0     0    
2019/08/19  11:57:03  BASE  1.79928  293  1.9992   288  -5.5  100   -5.5  2     0     1009.4   NA       0.0000   BR       7000  0     0    
2019/08/19  11:58:03  BASE  1.76988  294  1.9992   288  -5.5  100   -5.5  2     0     1009.5   NA       0.0000   BR       5000  0     0    
2019/08/19  11:59:03  BASE  1.66992  295  1.9992   288  -5.5  100   -5.5  2     0     1009.5   NA       0.0000   BR       3900  0     0    
2019/08/19  12:00:03  BASE  1.65816  293  1.9992   288  -5.6  100   -5.6  2     0     1009.5   NA       0.0000   BR       3400  0     0    
2019/08/19  12:01:03  BASE  1.4994   294  1.9992   288  -5.6  100   -5.6  2     0     1009.6   NA       0.0000   BR       3400  0     0    
2019/08/19  12:02:02  BASE  1.33476  296  1.9992   288  -5.6  100   -5.6  2     0     1009.6   NA       0.0000   BR       3300  0     0    
2019/08/19  12:03:03  BASE  1.30536  296  1.9992   288  -5.6  100   -5.6  2     0     1009.6   NA       0.0000   BR       2800  0     0    
2019/08/19  12:04:03  BASE  1.37592  297  1.9992   288  -5.6  100   -5.6  2     0     1009.6   NA       0.0000   BR       2400  0     0    
2019/08/19  12:05:02  BASE  1.44648  297  1.9992   288  -5.6  100   -5.6  2     0     1009.6   NA       0.0000   BR       2700  0     0    
2019/08/19  12:06:04  BASE  1.39356  291  1.9992   288  -5.6  100   -5.6  2     0     1009.6   NA       0.0000   BR       3000  0     0    
2019/08/19  12:07:03  BASE  1.2642   286  1.81692  296  -5.6  100   -5.6  2     0     1009.6   NA       0.0000   BR       3700  0     0    
2019/08/19  12:08:03  BASE  1.1466   279  1.75224  294  -5.5  100   -5.5  2     0     1009.6   NA       0.0000   BR       6000  0     0    
2019/08/19  12:09:03  BASE  1.17012  273  1.75224  294  -5.5  100   -5.5  2     0     1009.6   NA       0.0000   BR       8000  0     0    
2019/08/19  12:10:03  BASE  1.176    276  1.60524  298  -5.5  100   -5.5  2     0     1009.6   NA       0.0000   BR       9000  200   1280 
2019/08/19  12:11:03  BASE  1.12896  280  1.60524  298  -5.5  100   -5.5  3     0     1009.6   NA       0.0000   BR       7000  0     0    
2019/08/19  12:12:03  BASE  1.0878   281  1.60524  298  -5.6  100   -5.6  3     0     1009.6   NA       0.0000   BR       7000  0     0    
2019/08/19  12:13:03  BASE  1.12308  279  1.60524  298  -5.6  100   -5.6  3     0     1009.6   NA       0.0000   BR       7000  1280  0    
2019/08/19  12:14:03  BASE  1.25244  279  1.54056  294  -5.6  100   -5.6  3     0     1009.6   NA       0.0000   BR       8000  0     0    
2019/08/19  12:15:03  BASE  1.2348   280  1.51116  293  -5.6  100   -5.6  3     0     1009.7   NA       0.0000   BR       7000  0     0    
2019/08/19  12:16:03  BASE  1.19952  277  1.45236  277  -5.6  100   -5.6  3     0     1009.7   NA       0.0000   BR       8000  0     0    
2019/08/19  12:17:03  BASE  1.12896  275  1.45236  277  -5.6  100   -5.6  4     0     1009.7   NA       0.0000   BR       7000  230   620  
2019/08/19  12:18:03  BASE  1.0584   283  1.45236  277  -5.6  100   -5.6  4     0     1009.7   NA       0.0000   BR       6000  0     0    
2019/08/19  12:19:03  BASE  1.19952  291  1.48176  289  -5.6  100   -5.6  4     0     1009.7   NA       0.0000   BR       4900  0     0    
2019/08/19  12:20:03  BASE  1.27596  288  1.48176  289  -5.6  100   -5.6  4     0     1009.8   NA       0.0000   BR       5000  0     0    
2019/08/19  12:21:03  BASE  1.24068  286  1.48176  290  -5.6  100   -5.6  4     0     1009.8   NA       0.0000   BR       5000  0     0    
2019/08/19  12:22:03  BASE  1.19364  288  1.48176  290  -5.5  100   -5.5  4     0     1009.8   NA       0.0000   BR       5000  0     0    
2019/08/19  12:23:03  BASE  1.0584   287  1.48176  290  -5.5  100   -5.5  5     0     1009.8   NA       0.0000   BR       3500  0     0    
2019/08/19  12:24:03  BASE  0.92316  290  1.48176  290  -5.5  100   -5.5  5     0     1009.8   NA       0.0000   BR       2300  1380  0    
2019/08/19  12:25:03  BASE  0.87612  292  1.48176  290  -5.5  100   -5.5  5     0     1009.8   NA       0.0000   BR       2200  980   0    
2019/08/19  12:26:03  BASE  0.87024  291  1.48176  290  -5.5  100   -5.5  5     0     1009.8   NA       0.0000   BR       2800  0     0    
2019/08/19  12:27:03  BASE  0.93492  288  1.48176  290  -5.5  100   -5.5  6     0     1009.8   NA       0.0000   BR       3700  0     0    
2019/08/19  12:28:04  BASE  0.94668  285  1.48176  290  -5.5  100   -5.5  6     0     1009.8   NA       0.0000   BR       5000  0     0    
2019/08/19  12:29:03  BASE  1.029    282  1.48176  290  -5.5  100   -5.5  6     0     1009.8   NA       0.0000   BR       8000  230   1050 
2019/08/19  12:30:03  BASE  1.09368  279  1.48176  290  -5.5  100   -5.5  7     0     1009.8   NA       0.0000   BR       9999  200   0    
2019/08/19  12:31:03  BASE  1.08192  282  1.32888  279  -5.5  100   -5.5  7     0     1009.8   NA       0.0000   BR       9999  230   0    
2019/08/19  12:32:03  BASE  1.08192  287  1.32888  279  -5.5  100   -5.5  7     0     1009.8   NA       0.0000   BR       6000  200   980  
2019/08/19  12:33:03  BASE  0.9408   299  1.32888  279  -5.5  100   -5.5  7     0     1009.8   NA       0.0000   BR       3700  0     0    
2019/08/19  12:34:04  BASE  0.78792  313  1.32888  279  -5.4  100   -5.4  8     0     1009.8   NA       0.0000   BR       2600  0     0    
2019/08/19  12:35:03  BASE  0.69972  322  1.32888  279  -5.4  100   -5.4  8     0     1009.8   NA       0.0000   BR       2300  0     0    
2019/08/19  12:36:03  BASE  0.44688  325  1.32888  279  -5.4  100   -5.4  8     0     1009.8   NA       0.0000   BR       2200  0     0    
2019/08/19  12:37:03  BASE  0.10584  325  1.32888  279  -5.4  100   -5.4  9     0     1009.8   NA       0.0000   BR       2200  0     0    
2019/08/19  12:38:03  BASE  0.05292  333  1.32888  279  -5.4  100   -5.4  9     0     1009.8   NA       0.0000   BR       2100  0     0    
2019/08/19  12:39:03  BASE  0.07644  345  1.32888  279  -5.4  100   -5.4  9     0     1009.8   NA       0.0000   BR       2100  0     0    
2019/08/19  12:40:03  BASE  0.38808  336  1.32888  279  -5.4  100   -5.4  10    0     1009.8   NA       0.0000   BR       2400  0     0    
2019/08/19  12:41:04  BASE  0.63504  329  1.1466   287  -5.4  100   -5.4  10    0     1009.8   NA       0.0000   BR       2600  0     0    
2019/08/19  12:42:03  BASE  0.6468   341  0.93492  296  -5.4  100   -5.4  10    0     1009.9   NA       0.0000   BR       2400  0     0    
2019/08/19  12:43:03  BASE  0.74676  353  0.84672  354  -5.4  100   -5.4  11    0     1010.0   NA       0.0000   BR       2500  0     0    
2019/08/19  12:44:03  BASE  0.77028  357  0.90552  350  -5.4  100   -5.4  11    0     1010.0   NA       0.0000   BR       2400  0     0    
2019/08/19  12:45:02  BASE  0.8232   360  0.90552  3    -5.4  100   -5.4  12    0     1009.9   NA       0.0000   BR       2800  0     0    
2019/08/19  12:46:03  BASE  0.84672  5    0.9702   4    -5.4  100   -5.4  12    0     1009.9   NA       0.0000   BR       3500  0     0    
2019/08/19  12:47:03  BASE  0.92316  360  1.0584   3    -5.4  100   -5.4  13    0     1009.9   NA       0.0000   BR       3800  0     0    
2019/08/19  12:48:04  BASE  0.95844  345  1.0878   341  -5.4  100   -5.4  14    0     1010.0   NA       0.0000   BR       3500  0     0    
2019/08/19  12:49:03  BASE  0.88788  331  1.0878   341  -5.4  100   -5.4  14    0     1010.0   NA       0.0000   BR       2800  0     0    
2019/08/19  12:50:03  BASE  0.93492  325  1.0878   325  -5.4  100   -5.4  15    0     1009.9   NA       0.0000   BR       2900  0     0    
2019/08/19  12:51:03  BASE  1.03488  329  1.18188  329  -5.4  100   -5.4  16    0     1009.8   NA       0.0000   BR       3200  0     0    
2019/08/19  12:52:03  BASE  1.08192  335  1.18188  329  -5.4  100   -5.4  16    0     1009.8   NA       0.0000   BR       3300  0     0    
2019/08/19  12:53:03  BASE  1.09956  337  1.18188  329  -5.4  100   -5.4  17    0     1009.8   NA       0.0000   BR       3000  0     0    
2019/08/19  12:54:03  BASE  1.09368  337  1.18188  329  -5.4  100   -5.4  17    0     1009.7   NA       0.0000   BR       3600  0     0    
2019/08/19  12:55:04  BASE  1.05252  335  1.18188  329  -5.4  100   -5.4  18    0     1009.7   NA       0.0000   BR       3600  0     0    
2019/08/19  12:56:03  BASE  1.00548  332  1.18188  329  -5.4  100   -5.4  19    0     1009.7   NA       0.0000   BR       3400  0     0    
2019/08/19  12:57:03  BASE  1.06428  333  1.21128  335  -5.4  100   -5.4  20    0     1009.7   NA       0.0000   BR       3600  0     0    
2019/08/19  12:58:03  BASE  1.1466   335  1.24068  335  -5.4  100   -5.4  20    0     1009.7   NA       0.0000   BR       4100  0     0    
2019/08/19  12:59:03  BASE  1.19952  334  1.27008  336  -5.4  100   -5.4  21    0     1009.7   NA       0.0000   BR       4200  0     0    
2019/08/19  13:00:03  BASE  1.31712  338  1.54056  344  -5.4  100   -5.4  22    0     1009.7   NA       0.0000   BR       4500  0     0    
2019/08/19  13:01:03  BASE  1.48176  342  1.63464  344  -5.4  100   -5.4  23    0     1009.7   NA       0.0000   BR       5000  0     0    
2019/08/19  13:02:03  BASE  1.5876   346  1.69344  351  -5.4  100   -5.4  24    0     1009.7   NA       0.0000   BR       8000  0     0    
2019/08/19  13:03:03  BASE  1.60524  349  1.81692  353  -5.4  100   -5.4  24    0     1009.6   NA       0.0000   BR       9999  0     0    
2019/08/19  13:04:03  BASE  1.56996  350  1.81692  1    -5.5  100   -5.5  25    0     1009.6   NA       0.0000   BR       9999  0     0    
2019/08/19  13:05:03  BASE  1.54056  348  1.81692  1    -5.5  100   -5.5  26    0     1009.7   NA       0.0000   BR       9999  0     0    
2019/08/19  13:06:04  BASE  1.50528  347  1.81692  1    -5.5  100   -5.5  26    0     1009.6   NA       0.0000   BR       9999  0     0    
2019/08/19  13:07:03  BASE  1.48764  354  1.81692  1    -5.6  100   -5.6  26    0     1009.7   NA       0.0000   BR       9999  230   0    
2019/08/19  13:08:03  BASE  1.63464  1    1.87572  5    -5.6  100   -5.6  26    0     1009.7   NA       0.0000   BR       9999  200   0    
2019/08/19  13:09:03  BASE  1.83456  4    1.96392  7    -5.6  100   -5.6  27    0     1009.7   NA       0.0000   BR       9999  0     0    
2019/08/19  13:10:03  BASE  1.84632  5    1.96392  7    -5.7  100   -5.7  27    0     1009.7   NA       0.0000   9999     0     0     0    
2019/08/19  13:11:03  BASE  1.76988  4    2.0286   348  -5.6  100   -5.6  28    0     1009.7   NA       0.0000   9999     0     0     0    
2019/08/19  13:12:03  BASE  1.6758   3    2.0286   348  -5.7  100   -5.7  28    0     1009.8   NA       0.0000   9999     0     0     0    
2019/08/19  13:13:03  BASE  1.68756  4    2.0286   348  -5.7  100   -5.7  29    0     1009.8   NA       0.0000   9999     0     0     0    
2019/08/19  13:14:04  BASE  1.69344  7    2.0286   348  -5.7  100   -5.7  30    0     1009.8   NA       0.0000   9999     0     0     0    
2019/08/19  13:15:03  BASE  1.61112  5    2.0286   348  -5.6  100   -5.6  30    0     1009.8   NA       0.0000   9999     0     0     0    
2019/08/19  13:16:03  BASE  1.64052  3    2.0286   348  -5.6  100   -5.6  30    0     1009.8   NA       0.0000   9999     0     0     0    
2019/08/19  13:17:03  BASE  1.64052  5    2.0286   348  -5.6  100   -5.6  30    0     1009.8   NA       0.0000   9999     0     0     0    
2019/08/19  13:18:04  BASE  1.55232  6    2.0286   348  -5.6  100   -5.6  30    0     1009.8   NA       0.0000   9999     0     0     0    
2019/08/19  13:19:03  BASE  1.4994   1    2.0286   348  -5.6  100   -5.6  30    0     1009.8   NA       0.0000   9999     0     0     0    
2019/08/19  13:20:03  BASE  1.48764  355  2.0286   348  -5.6  100   -5.6  31    0     1009.8   NA       0.0000   9999     0     0     0    
2019/08/19  13:21:03  BASE  1.38768  347  1.9992   360  -5.6  100   -5.6  31    0     1009.8   NA       0.0000   9999     0     0     0    
2019/08/19  13:22:03  BASE  1.39356  345  1.9992   360  -5.6  100   -5.6  32    0     1009.7   NA       0.0000   9999     0     0     0    
2019/08/19  13:23:03  BASE  1.59936  349  1.90512  2    -5.6  100   -5.6  32    0     1009.7   NA       0.0000   9999     0     0     0    
2019/08/19  13:24:03  BASE  1.66404  348  1.90512  2    -5.6  100   -5.6  32    0     1009.7   NA       0.0000   9999     0     0     0    
2019/08/19  13:25:03  BASE  1.56996  346  1.81692  8    -5.6  100   -5.6  32    0     1009.9   NA       0.0000   9999     0     0     0    
2019/08/19  13:26:04  BASE  1.4112   345  1.78752  346  -5.6  100   -5.6  32    0     1009.9   NA       0.0000   9999     0     0     0    
2019/08/19  13:27:04  BASE  1.33476  346  1.78752  346  -5.6  100   -5.6  32    0     1009.9   NA       0.0000   9999     0     0     0    
2019/08/19  13:28:03  BASE  1.4112   343  1.78752  346  -5.6  100   -5.6  32    0     1009.8   NA       0.0000   9999     0     0     0    
2019/08/19  13:29:03  BASE  1.48176  339  1.78752  346  -5.6  100   -5.6  32    0     1009.8   NA       0.0000   9999     0     0     0    
2019/08/19  13:30:03  BASE  1.51116  340  1.78752  346  -5.6  100   -5.6  32    0     1009.9   NA       0.0000   9999     0     0     0    
2019/08/19  13:31:03  BASE  1.48764  342  1.78752  346  -5.6  100   -5.6  32    0     1010.0   NA       0.0000   9999     0     0     0    
2019/08/19  13:32:03  BASE  1.53468  343  1.78752  346  -5.6  100   -5.6  32    0     1010.0   NA       0.0000   9999     0     0     0    
2019/08/19  13:33:03  BASE  1.58172  344  1.75224  354  -5.6  100   -5.6  33    0     1010.0   NA       0.0000   9999     0     0     0    
2019/08/19  13:34:03  BASE  1.47588  347  1.69344  336  -5.6  100   -5.6  34    0     1010.0   NA       0.0000   9999     0     0     0    
2019/08/19  13:35:03  BASE  1.47588  350  1.69344  336  -5.6  100   -5.6  35    0     1009.8   NA       0.0000   9999     0     0     0    
2019/08/19  13:36:03  BASE  1.55232  349  1.72284  348  -5.6  100   -5.6  35    0     1009.8   NA       0.0000   9999     0     0     0    
2019/08/19  13:37:03  BASE  1.5876   348  1.72284  348  -5.6  100   -5.6  36    0     1009.8   NA       0.0000   9999     0     0     0    
2019/08/19  13:38:04  BASE  1.47588  347  1.72284  348  -5.6  100   -5.6  36    0     1010.0   NA       0.0000   9999     0     0     0    
2019/08/19  13:39:03  BASE  1.25832  343  1.72284  348  -5.6  100   -5.6  37    0     1010.0   NA       0.0000   9999     0     0     0    
2019/08/19  13:40:03  BASE  1.09368  341  1.72284  348  -5.5  100   -5.5  38    0     1010.0   NA       0.0000   9000     0     0     0    
2019/08/19  13:41:03  BASE  1.07604  338  1.72284  348  -5.5  100   -5.5  39    0     1010.0   NA       0.0000   9000     0     0     0    
2019/08/19  13:42:04  BASE  1.1466   335  1.72284  348  -5.5  100   -5.5  40    0     1010.0   NA       0.0000   9999     0     0     0    
2019/08/19  13:43:03  BASE  1.21716  325  1.72284  348  -5.5  100   -5.5  41    0     1009.9   NA       0.0000   9999     0     0     0    
2019/08/19  13:44:04  BASE  1.41708  309  1.75224  299  -5.4  100   -5.4  42    0     1009.8   NA       0.0000   9999     0     0     0    
2019/08/19  13:45:03  BASE  1.5582   298  1.75224  299  -5.4  100   -5.4  43    0     1009.9   NA       0.0000   9999     0     0     0    
2019/08/19  13:46:03  BASE  1.48764  298  1.75224  299  -5.4  100   -5.4  45    0     1010.0   NA       0.0000   9999     0     0     0    
2019/08/19  13:47:03  BASE  1.39356  300  1.75224  299  -5.4  100   -5.4  47    0     1010.0   NA       0.0000   9999     300   0     0    
2019/08/19  13:48:03  BASE  1.37592  307  1.75224  299  -5.4  100   -5.4  48    0     1010.0   NA       0.0000   9999     330   0     0    
2019/08/19  13:49:03  BASE  1.42884  311  1.75224  299  -5.4  100   -5.4  48    0     1010.0   NA       0.0000   9999     230   0     0    
2019/08/19  13:50:03  BASE  1.39356  311  1.75224  299  -5.4  100   -5.4  49    0     1010.0   NA       0.0000   9999     590   0     0    
2019/08/19  13:51:03  BASE  1.34652  315  1.75224  299  -5.4  100   -5.4  49    0     1010.0   NA       0.0000   9000     820   0     0    
2019/08/19  13:52:03  BASE  1.39356  323  1.75224  299  -5.4  100   -5.4  49    0     1010.0   NA       0.0000   9999     160   720   0    
2019/08/19  13:53:03  BASE  1.39944  329  1.75224  299  -5.4  100   -5.4  49    0     1010.0   NA       0.0000   9999     750   0     0    
2019/08/19  13:54:04  BASE  1.36416  331  1.60524  297  -5.5  100   -5.5  49    0     1010.1   NA       0.0000   9999     330   21690 0    
2019/08/19  13:55:03  BASE  1.31124  334  1.54056  314  -5.5  100   -5.5  49    0     1010.1   NA       0.0000   9999     260   0     0    
2019/08/19  13:56:03  BASE  1.29948  338  1.54056  314  -5.5  100   -5.5  49    0     1010.1   NA       0.0000   9999     0     0     0    
2019/08/19  13:57:03  BASE  1.27008  340  1.54056  314  -5.5  100   -5.5  50    0     1010.1   NA       0.0000   9999     0     0     0    
2019/08/19  13:58:03  BASE  1.22304  342  1.51116  329  -5.5  100   -5.5  50    0     1010.1   NA       0.0000   9999     460   0     0    
2019/08/19  13:59:03  BASE  1.17012  345  1.51116  329  -5.5  100   -5.5  50    0     1010.1   NA       0.0000   9999     430   0     0    
2019/08/19  14:00:03  BASE  1.11132  345  1.51116  329  -5.5  100   -5.5  50    0     1010.1   NA       0.0000   9999     360   0     0    
2019/08/19  14:01:03  BASE  1.12896  352  1.51116  329  -5.5  100   -5.5  49    0     1010.1   NA       0.0000   9999     330   0     0    
2019/08/19  14:02:03  BASE  1.09368  2    1.51116  329  -5.5  100   -5.5  50    0     1010.2   NA       0.0000   9999     300   0     0    
2019/08/19  14:03:03  BASE  0.95844  2    1.42296  332  -5.5  100   -5.5  51    0     1010.2   NA       0.0000   9999     200   0     0    
2019/08/19  14:04:03  BASE  1.01724  357  1.35828  341  -5.4  100   -5.4  51    0     1010.2   NA       0.0000   9999     520   0     0    
2019/08/19  14:05:03  BASE  1.1172   358  1.35828  341  -5.4  100   -5.4  51    0     1010.3   NA       0.0000   9999     520   0     0    
2019/08/19  14:06:05  BASE  1.04076  356  1.29948  339  -5.4  100   -5.4  51    0     1010.3   NA       0.0000   9999     460   0     0    
2019/08/19  14:07:00  BASE  1.0584   354  1.24068  355  -5.4  100   -5.4  51    0     1010.2   NA       0.0000   9999     330   0     0    
2019/08/19  14:08:06  BASE  1.1172   353  1.24068  355  -5.4  100   -5.4  52    0     1010.2   NA       0.0000   9999     430   0     0    
2019/08/19  14:09:03  BASE  1.15836  352  1.29948  349  -5.4  100   -5.4  53    0     1010.2   NA       0.0000   9999     330   0     0    
2019/08/19  14:10:03  BASE  1.12308  349  1.29948  349  -5.4  100   -5.4  53    0     1010.3   NA       0.0000   9999     360   0     0    
2019/08/19  14:11:04  BASE  1.03488  349  1.29948  349  -5.4  100   -5.4  53    0     1010.3   NA       0.0000   9999     360   0     0    
2019/08/19  14:12:03  BASE  1.029    351  1.29948  349  -5.4  100   -5.4  53    0     1010.3   NA       0.0000   9999     360   0     0    
2019/08/19  14:13:03  BASE  0.98196  352  1.29948  349  -5.5  100   -5.5  54    0     1010.3   NA       0.0000   9999     330   0     0    
2019/08/19  14:14:04  BASE  0.9114   356  1.29948  349  -5.5  100   -5.5  56    0     1010.3   NA       0.0000   9999     360   0     0    
2019/08/19  14:15:03  BASE  0.98196  359  1.29948  349  -5.5  100   -5.5  57    0     1010.3   NA       0.0000   9999     390   0     0    
2019/08/19  14:16:04  BASE  1.1172   354  1.29948  349  -5.5  100   -5.5  58    0     1010.3   NA       0.0000   9999     430   0     0    
2019/08/19  14:17:03  BASE  1.05252  341  1.29948  349  -5.5  100   -5.5  58    0     1010.3   NA       0.0000   9999     390   0     0    
2019/08/19  14:18:03  BASE  1.02312  346  1.29948  349  -5.5  100   -5.5  58    0     1010.3   NA       0.0000   9999     330   0     0    
2019/08/19  14:19:03  BASE  1.1466   353  1.27008  354  -5.5  100   -5.5  60    0     1010.3   NA       0.0000   9999     330   0     0    
2019/08/19  14:20:03  BASE  1.176    353  1.27008  354  -5.5  100   -5.5  61    0     1010.3   NA       0.0000   9999     360   0     0    
2019/08/19  14:21:03  BASE  1.17012  352  1.29948  345  -5.4  100   -5.4  62    0     1010.2   NA       0.0000   9999     300   0     0    
2019/08/19  14:22:03  BASE  1.176    347  1.35828  343  -5.4  100   -5.4  63    0     1010.2   NA       0.0000   9999     230   0     0    
2019/08/19  14:23:03  BASE  1.029    342  1.35828  343  -5.4  100   -5.4  65    0     1010.2   NA       0.0000   9999     200   0     0    
2019/08/19  14:24:04  BASE  1.02312  344  1.35828  348  -5.4  100   -5.4  66    0     1010.2   NA       0.0000   9999     260   0     0    
2019/08/19  14:25:03  BASE  1.24656  351  1.45236  344  -5.4  100   -5.4  68    0     1010.2   NA       0.0000   9999     260   0     0    
2019/08/19  14:26:03  BASE  1.38768  350  1.57584  347  -5.4  100   -5.4  70    0     1010.2   NA       0.0000   9999     260   0     0    
2019/08/19  14:27:03  BASE  1.53468  345  1.69344  338  -5.4  100   -5.4  73    0     1010.1   NA       0.0000   9999     300   0     0    
2019/08/19  14:28:04  BASE  1.51116  346  1.69344  338  -5.4  100   -5.4  75    0     1010.2   NA       0.0000   9999     260   0     0    
2019/08/19  14:29:03  BASE  1.28772  350  1.69344  338  -5.4  100   -5.4  73    0     1010.2   NA       0.0000   9999     230   0     0    
2019/08/19  14:30:03  BASE  1.21128  348  1.69344  338  -5.4  100   -5.4  71    0     1010.2   NA       0.0000   9999     330   0     0    
2019/08/19  14:31:03  BASE  1.21128  347  1.69344  338  -5.4  100   -5.4  69    0     1010.2   NA       0.0000   9999     300   0     0    
2019/08/19  14:32:03  BASE  1.08192  333  1.69344  338  -5.4  100   -5.4  71    0     1010.2   NA       0.0000   9999     300   0     0    
2019/08/19  14:33:03  BASE  0.8232   320  1.69344  338  -5.4  100   -5.4  73    0     1010.3   NA       0.0000   9999     260   0     0    
2019/08/19  14:34:04  BASE  0.34104  325  1.69344  338  -5.4  100   -5.4  73    0     1010.3   NA       0.0000   9999     230   0     0    
2019/08/19  14:35:03  BASE  0.33516  336  1.69344  338  -5.4  100   -5.4  72    0     1010.3   NA       0.0000   9999     260   0     0    
2019/08/19  14:36:03  BASE  0.51156  345  1.69344  338  -5.4  100   -5.4  71    0     1010.3   NA       0.0000   9000     260   0     0    
2019/08/19  14:37:03  BASE  0.50568  349  1.57584  342  -5.4  100   -5.4  71    0     1010.3   NA       0.0000   9000     200   0     0    
2019/08/19  14:38:03  BASE  0.39396  354  1.35828  336  -5.4  100   -5.4  71    0     1010.3   NA       0.0000   8000     0     0     0    
2019/08/19  14:39:03  BASE  0.50568  353  1.32888  353  -5.4  100   -5.4  73    0     1010.3   NA       0.0000   7000     230   0     0    
2019/08/19  14:40:03  BASE  0.91728  345  1.32888  353  -5.4  100   -5.4  74    0     1010.3   NA       0.0000   9999     230   0     0    
2019/08/19  14:41:03  BASE  0.87024  349  1.1466   318  -5.4  100   -5.4  77    0     1010.3   NA       0.0000   BR       9000  0     0    
2019/08/19  14:42:03  BASE  0.77616  0    1.0878   340  -5.4  100   -5.4  78    0     1010.3   NA       0.0000   BR       7000  0     0    
2019/08/19  14:43:03  BASE  0.74088  2    1.0878   340  -5.4  100   -5.4  77    0     1010.3   NA       0.0000   BR       8000  230   0    
2019/08/19  14:44:03  BASE  0.75852  3    1.0878   340  -5.4  100   -5.4  76    0     1010.3   NA       0.0000   BR       8000  230   0    
2019/08/19  14:45:04  BASE  0.7938   10   1.0878   340  -5.4  100   -5.4  76    0     1010.3   NA       0.0000   BR       9000  260   0    
2019/08/19  14:46:03  BASE  0.91728  15   1.21128  15   -5.4  100   -5.4  77    0     1010.3   NA       0.0000   BR       9999  260   0    
2019/08/19  14:47:03  BASE  1.0878   21   1.24068  27   -5.4  100   -5.4  80    0     1010.3   NA       0.0000   BR       9999  260   0    
2019/08/19  14:48:03  BASE  1.15248  30   1.29948  36   -5.4  100   -5.4  82    0     1010.3   NA       0.0000   BR       9999  330   0    
2019/08/19  14:49:03  BASE  1.16424  32   1.29948  36   -5.4  100   -5.4  82    0     1010.4   NA       0.0000   BR       9999  300   0    
2019/08/19  14:50:03  BASE  1.07016  30   1.29948  36   -5.4  100   -5.4  88    0     1010.4   NA       0.0000   BR       9000  260   0    
2019/08/19  14:51:03  BASE  0.98196  28   1.29948  36   -5.4  100   -5.4  88    0     1010.4   NA       0.0000   BR       9999  260   0    
2019/08/19  14:52:04  BASE  1.01136  25   1.29948  36   -5.4  100   -5.4  85    0     1010.3   NA       0.0000   9999     260   0     0    
2019/08/19  14:53:03  BASE  1.09956  21   1.29948  36   -5.4  100   -5.4  87    0     1010.3   NA       0.0000   9999     300   0     0    
2019/08/19  14:54:04  BASE  1.24656  22   1.54056  27   -5.4  100   -5.4  90    0     1010.3   NA       0.0000   9999     300   0     0    
2019/08/19  14:55:03  BASE  1.32888  26   1.54056  27   -5.4  100   -5.4  96    0     1010.3   NA       0.0000   9999     300   0     0    
2019/08/19  14:56:03  BASE  1.2642   22   1.54056  27   -5.4  100   -5.4  100   0     1010.3   NA       0.0000   9999     330   0     0    
2019/08/19  14:57:03  BASE  1.28772  18   1.54056  27   -5.4  100   -5.4  106   0     1010.3   NA       0.0000   9999     300   0     0    
2019/08/19  14:58:03  BASE  1.33476  13   1.54056  27   -5.4  100   -5.4  109   0     1010.3   NA       0.0000   9999     300   0     0    
2019/08/19  14:59:03  BASE  1.2642   10   1.54056  27   -5.4  100   -5.4  104   0     1010.3   NA       0.0000   9999     300   0     0    
2019/08/19  15:00:03  BASE  1.2936   5    1.54056  354  -5.3  100   -5.3  98    0     1010.3   NA       0.0000   9999     300   0     0    
2019/08/19  15:01:03  BASE  1.45236  352  1.63464  3    -5.3  100   -5.3  91    0     1010.3   NA       0.0000   9999     330   0     0    
2019/08/19  15:02:03  BASE  1.55232  346  1.72284  346  -5.3  100   -5.3  84    0     1010.3   NA       0.0000   9999     330   0     0    
2019/08/19  15:03:03  BASE  1.42884  347  1.72284  346  -5.3  100   -5.3  82    0     1010.4   NA       0.0000   9999     260   0     0    
2019/08/19  15:04:03  BASE  1.19952  350  1.72284  346  -5.3  100   -5.3  81    0     1010.4   NA       0.0000   9999     260   0     0    
2019/08/19  15:05:03  BASE  1.15836  349  1.72284  346  -5.3  100   -5.3  78    0     1010.4   NA       0.0000   9999     300   0     0    
2019/08/19  15:06:04  BASE  1.19952  353  1.72284  346  -5.3  100   -5.3  80    0     1010.4   NA       0.0000   9999     300   0     0    
2019/08/19  15:07:03  BASE  1.18188  0    1.72284  346  -5.3  100   -5.3  80    0     1010.5   NA       0.0000   9999     300   0     0    
2019/08/19  15:08:03  BASE  1.09956  358  1.72284  346  -5.3  100   -5.3  79    0     1010.6   NA       0.0000   9999     300   0     0    
2019/08/19  15:09:03  BASE  1.21128  356  1.72284  346  -5.3  100   -5.3  80    0     1010.5   NA       0.0000   9999     330   0     0    
2019/08/19  15:10:03  BASE  1.39944  353  1.72284  346  -5.3  100   -5.3  85    0     1010.5   NA       0.0000   9999     330   0     0    
2019/08/19  15:11:03  BASE  1.3818   359  1.72284  346  -5.3  100   -5.3  90    0     1010.6   NA       0.0000   9999     260   0     0    
2019/08/19  15:12:03  BASE  1.3524   8    1.54056  228  -5.3  100   -5.3  94    0     1010.6   NA       0.0000   9999     330   0     0    
2019/08/19  15:13:03  BASE  1.36416  11   1.54056  228  -5.3  100   -5.3  96    0     1010.7   NA       0.0000   9999     300   0     0    
2019/08/19  15:14:04  BASE  1.37004  13   1.54056  228  -5.2  100   -5.2  97    0     1010.7   NA       0.0000   9999     300   0     0    
2019/08/19  15:15:03  BASE  1.32888  13   1.54056  228  -5.2  100   -5.2  99    0     1010.8   NA       0.0000   9999     300   0     0    
2019/08/19  15:16:03  BASE  1.27596  3    1.57584  351  -5.2  100   -5.2  101   0     1010.8   NA       0.0000   9999     300   0     0    
2019/08/19  15:17:04  BASE  1.16424  348  1.57584  351  -5.2  100   -5.2  100   0     1010.7   NA       0.0000   9999     300   0     0    
2019/08/19  15:18:04  BASE  1.14072  343  1.57584  351  -5.2  100   -5.2  101   0     1010.7   NA       0.0000   9999     330   0     0    
2019/08/19  15:19:04  BASE  1.18188  343  1.57584  351  -5.2  100   -5.2  105   0     1010.7   NA       0.0000   9999     260   0     0    
2019/08/19  15:20:03  BASE  1.05252  347  1.57584  351  -5.2  100   -5.2  107   0     1010.7   NA       0.0000   9999     260   0     0    
2019/08/19  15:21:03  BASE  1.08192  353  1.57584  351  -5.2  100   -5.2  109   0     1010.7   NA       0.0000   9999     300   0     0    
2019/08/19  15:22:03  BASE  1.27008  350  1.57584  351  -5.2  100   -5.2  109   0     1010.7   NA       0.0000   9999     260   0     0    
2019/08/19  15:23:03  BASE  1.34652  342  1.57584  351  -5.2  100   -5.2  111   0     1010.7   NA       0.0000   9999     230   0     0    
2019/08/19  15:24:04  BASE  1.2642   342  1.57584  351  -5.2  100   -5.2  114   0     1010.7   NA       0.0000   9999     230   0     0    
2019/08/19  15:25:03  BASE  1.31712  346  1.57584  344  -5.2  100   -5.2  116   0     1010.7   NA       0.0000   9999     330   0     0    
2019/08/19  15:26:03  BASE  1.41708  348  1.57584  344  -5.1  100   -5.1  119   0     1010.8   NA       0.0000   9999     230   0     0    
2019/08/19  15:27:03  BASE  1.3524   347  1.57584  344  -5.1  100   -5.1  128   0     1010.8   NA       0.0000   9999     200   0     0    
2019/08/19  15:28:03  BASE  1.4994   346  1.90512  338  -5.1  100   -5.1  144   0     1010.7   NA       0.0000   9999     300   0     0    
2019/08/19  15:29:03  BASE  1.72284  349  1.93452  354  -5.1  100   -5.1  151   0     1010.7   NA       0.0000   9999     260   0     0    
2019/08/19  15:30:03  BASE  1.76988  348  1.96392  328  -5.1  100   -5.1  158   0     1010.7   NA       0.0000   9999     230   0     0    
2019/08/19  15:31:03  BASE  1.84044  335  2.1462   329  -5.1  100   -5.1  150   0     1010.7   NA       0.0000   9999     330   0     0    
2019/08/19  15:32:03  BASE  1.7934   330  2.1462   329  -5.1  100   -5.1  131   0     1010.7   NA       0.0000   9999     360   0     0    
2019/08/19  15:33:03  BASE  1.6464   337  2.1462   329  -5.1  100   -5.1  122   0     1010.7   NA       0.0000   9999     520   0     0    
2019/08/19  15:34:04  BASE  1.71108  337  2.1462   329  -5.1  100   -5.1  112   0     1010.7   NA       0.0000   9999     360   0     0    
2019/08/19  15:35:03  BASE  1.7934   335  2.1462   329  -5.1  100   -5.1  111   0     1010.7   NA       0.0000   9999     300   0     0    
2019/08/19  15:36:03  BASE  1.7052   340  2.1462   329  -5.1  100   -5.1  105   0     1010.7   NA       0.0000   9999     260   0     0    
2019/08/19  15:37:04  BASE  1.51704  338  2.1462   329  -5.1  100   -5.1  96    0     1010.7   NA       0.0000   9999     260   0     0    
2019/08/19  15:38:04  BASE  1.5288   331  2.1462   329  -5.1  100   -5.1  93    0     1010.7   NA       0.0000   9999     300   0     0    
2019/08/19  15:39:03  BASE  1.55232  327  2.1462   329  -5.1  100   -5.1  100   0     1010.7   NA       0.0000   9999     230   0     0    
2019/08/19  15:40:03  BASE  1.3524   330  2.1462   329  -5.1  100   -5.1  102   0     1010.7   NA       0.0000   9999     260   0     0    
2019/08/19  15:41:03  BASE  1.25832  326  1.90512  330  -5.1  100   -5.1  108   0     1010.8   NA       0.0000   9999     260   0     0    
2019/08/19  15:42:03  BASE  1.37004  317  1.90512  330  -5.0  100   -5.0  110   0     1010.7   NA       0.0000   9999     300   0     0    
2019/08/19  15:43:03  BASE  1.52292  319  1.90512  330  -5.0  100   -5.0  108   0     1010.7   NA       0.0000   9999     300   0     0    
2019/08/19  15:44:04  BASE  1.51704  318  1.90512  330  -5.0  100   -5.0  101   0     1010.7   NA       0.0000   9999     330   0     0    
2019/08/19  15:45:03  BASE  1.51116  318  1.75224  340  -5.0  100   -5.0  98    0     1010.7   NA       0.0000   9999     330   0     0    
2019/08/19  15:46:03  BASE  1.54056  326  1.72284  323  -5.0  100   -5.0  97    0     1010.7   NA       0.0000   9999     330   0     0    
2019/08/19  15:47:03  BASE  1.46412  327  1.72284  323  -5.0  100   -5.0  97    0     1010.7   NA       0.0000   9999     300   0     0    
2019/08/19  15:48:03  BASE  1.31712  315  1.72284  323  -5.0  100   -5.0  96    0     1010.8   NA       0.0000   9999     260   0     0    
2019/08/19  15:49:03  BASE  1.21716  305  1.72284  323  -5.0  100   -5.0  94    0     1010.8   NA       0.0000   9999     260   0     0    
2019/08/19  15:50:03  BASE  1.25832  305  1.72284  323  -5.0  100   -5.0  98    0     1010.7   NA       0.0000   9999     230   0     0    
2019/08/19  15:51:03  BASE  1.31124  308  1.72284  323  -4.9  100   -4.9  108   0     1010.7   NA       0.0000   9999     0     0     0    
2019/08/19  15:52:03  BASE  1.40532  313  1.72284  323  -4.9  100   -4.9  114   0     1010.6   NA       0.0000   9999     230   0     0    
2019/08/19  15:53:03  BASE  1.51704  317  1.87572  316  -4.9  100   -4.9  102   0     1010.6   NA       0.0000   9999     360   0     0    
2019/08/19  15:54:04  BASE  1.61112  310  1.90512  311  -4.9  100   -4.9  97    0     1010.6   NA       0.0000   9999     330   0     0    
2019/08/19  15:55:03  BASE  1.617    308  1.90512  311  -5.0  100   -5.0  103   0     1010.6   NA       0.0000   9999     300   0     0    
2019/08/19  15:56:03  BASE  1.51704  316  1.90512  311  -5.0  100   -5.0  111   0     1010.6   NA       0.0000   9999     330   0     0    
2019/08/19  15:57:03  BASE  1.52292  318  1.90512  311  -5.0  100   -5.0  118   0     1010.6   NA       0.0000   9999     330   0     0    
2019/08/19  15:58:03  BASE  1.66404  309  1.96392  304  -5.0  100   -5.0  117   0     1010.6   NA       0.0000   9999     360   0     0    
2019/08/19  15:59:03  BASE  1.65816  301  1.96392  304  -5.0  100   -5.0  114   0     1010.6   NA       0.0000   9999     390   0     0    
2019/08/19  16:00:03  BASE  1.53468  303  1.96392  304  -5.0  100   -5.0  104   0     1010.7   NA       0.0000   9999     260   0     0    
2019/08/19  16:01:03  BASE  1.39944  306  1.96392  304  -5.0  100   -5.0  101   0     1010.7   NA       0.0000   9999     230   0     0    
2019/08/19  16:02:03  BASE  1.29948  313  1.96392  304  -5.0  100   -5.0  98    0     1010.6   NA       0.0000   9999     230   850   0    
2019/08/19  16:03:03  BASE  1.4112   314  1.96392  304  -4.9  100   -4.9  93    0     1010.7   NA       0.0000   9999     260   0     0    
2019/08/19  16:04:04  BASE  1.4994   313  1.96392  304  -4.9  100   -4.9  90    0     1010.7   NA       0.0000   9999     360   0     0    
2019/08/19  16:05:03  BASE  1.53468  314  1.96392  304  -4.9  100   -4.9  94    0     1010.6   NA       0.0000   9999     360   0     0    
2019/08/19  16:06:04  BASE  1.60524  312  1.96392  304  -4.9  100   -4.9  100   0     1010.6   NA       0.0000   9999     330   0     0    
2019/08/19  16:07:04  BASE  1.56408  315  1.96392  304  -4.9  100   -4.9  98    0     1010.6   NA       0.0000   9999     360   0     0    
2019/08/19  16:08:04  BASE  1.6464   312  1.9992   307  -4.9  100   -4.9  100   0     1010.6   NA       0.0000   9999     300   0     0    
2019/08/19  16:09:03  BASE  1.7052   316  1.9992   307  -4.9  100   -4.9  102   0     1010.6   NA       0.0000   9999     300   0     0    
2019/08/19  16:10:03  BASE  1.68756  323  1.9992   307  -4.9  100   -4.9  107   0     1010.6   NA       0.0000   9999     330   0     0    
2019/08/19  16:11:03  BASE  1.59936  313  1.9992   307  -4.9  100   -4.9  106   0     1010.7   NA       0.0000   9999     360   0     0    
2019/08/19  16:12:03  BASE  1.54644  307  1.9992   307  -4.9  100   -4.9  99    0     1010.7   NA       0.0000   9999     390   0     0    
2019/08/19  16:13:03  BASE  1.62876  312  1.9992   307  -4.9  100   -4.9  97    0     1010.7   NA       0.0000   9999     360   0     0    
2019/08/19  16:14:03  BASE  1.54056  320  1.9992   307  -4.9  100   -4.9  100   0     1010.7   NA       0.0000   9999     360   0     0    
2019/08/19  16:15:03  BASE  1.45236  331  1.9992   307  -4.9  100   -4.9  103   0     1010.7   NA       0.0000   9999     330   0     0    
2019/08/19  16:16:03  BASE  1.3818   337  1.9992   307  -4.9  100   -4.9  104   0     1010.8   NA       0.0000   9999     330   0     0    
2019/08/19  16:17:03  BASE  1.19952  333  1.9992   307  -4.9  100   -4.9  97    0     1010.8   NA       0.0000   9999     360   0     0    
2019/08/19  16:18:03  BASE  1.15836  327  1.87572  313  -4.9  100   -4.9  90    0     1010.8   NA       0.0000   9999     360   0     0    
2019/08/19  16:19:03  BASE  1.25244  328  1.87572  313  -4.9  100   -4.9  88    0     1010.7   NA       0.0000   9999     360   0     0    
2019/08/19  16:20:03  BASE  1.21716  331  1.81692  321  -4.9  100   -4.9  90    0     1010.8   NA       0.0000   9999     360   0     0    
2019/08/19  16:21:03  BASE  1.18776  330  1.81692  321  -4.9  100   -4.9  93    0     1010.7   NA       0.0000   9999     300   0     0    
2019/08/19  16:22:03  BASE  1.12896  324  1.81692  321  -4.9  100   -4.9  94    0     1010.8   NA       0.0000   9999     330   0     0    
2019/08/19  16:23:03  BASE  1.01136  322  1.78752  335  -4.9  100   -4.9  94    0     1010.9   NA       0.0000   9999     360   0     0    
2019/08/19  16:24:03  BASE  0.9408   330  1.60524  335  -4.9  100   -4.9  99    0     1010.9   NA       0.0000   9999     360   0     0    
2019/08/19  16:25:03  BASE  1.01136  334  1.45236  320  -4.9  100   -4.9  100   0     1010.8   NA       0.0000   9999     330   690   0    
2019/08/19  16:26:04  BASE  1.1466   331  1.45236  320  -4.9  100   -4.9  100   0     1010.8   NA       0.0000   9999     590   0     0    
2019/08/19  16:27:03  BASE  1.32888  334  1.51116  333  -4.9  100   -4.9  100   0     1010.8   NA       0.0000   9999     520   0     0    
2019/08/19  16:28:03  BASE  1.4112   336  1.51116  333  -4.9  100   -4.9  100   0     1010.8   NA       0.0000   9999     620   0     0    
2019/08/19  16:29:03  BASE  1.42296  331  1.57584  324  -4.9  100   -4.9  96    0     1010.8   NA       0.0000   9999     490   0     0    
2019/08/19  16:30:03  BASE  1.48176  326  1.57584  329  -4.9  100   -4.9  92    0     1010.8   NA       0.0000   9999     430   0     0    
2019/08/19  16:31:03  BASE  1.4994   322  1.63464  318  -4.9  100   -4.9  94    0     1010.7   NA       0.0000   9999     430   0     0    
2019/08/19  16:32:03  BASE  1.62288  321  1.84632  322  -4.9  100   -4.9  96    0     1010.7   NA       0.0000   9999     460   0     0    
2019/08/19  16:33:03  BASE  1.66404  325  1.84632  322  -4.9  100   -4.9  98    0     1010.7   NA       0.0000   9999     590   0     0    
2019/08/19  16:34:04  BASE  1.61112  327  1.84632  322  -4.9  100   -4.9  100   0     1010.7   NA       0.0000   9999     520   0     0    
2019/08/19  16:35:03  BASE  1.69344  324  1.96392  319  -4.9  100   -4.9  103   0     1010.7   NA       0.0000   9999     430   0     0    
2019/08/19  16:36:03  BASE  1.764    325  1.96392  319  -4.9  100   -4.9  101   0     1010.6   NA       0.0000   9999     520   0     0    
2019/08/19  16:37:03  BASE  1.95216  328  2.45196  323  -4.9  100   -4.9  99    0     1010.5   NA       0.0000   9999     520   0     0    
2019/08/19  16:38:03  BASE  2.2638   326  2.63424  323  -4.8  100   -4.8  105   0     1010.4   NA       0.0000   9999     620   0     0    
2019/08/19  16:39:03  BASE  2.40492  326  2.63424  323  -4.8  100   -4.8  113   0     1010.4   NA       0.0000   9999     690   0     0    
2019/08/19  16:40:03  BASE  2.4108   326  2.63424  327  -4.8  100   -4.8  117   0     1010.4   NA       0.0000   9999     690   0     0    
2019/08/19  16:41:03  BASE  2.29908  328  2.63424  327  -4.8  100   -4.8  118   0     1010.4   NA       0.0000   9999     690   0     0    
2019/08/19  16:42:03  BASE  2.25792  331  2.63424  327  -4.8  100   -4.8  117   0     1010.4   NA       0.0000   9999     750   0     0    
2019/08/19  16:43:03  BASE  2.205    334  2.63424  327  -4.8  100   -4.8  116   0     1010.5   NA       0.0000   9999     660   0     0    
2019/08/19  16:44:03  BASE  2.08152  337  2.63424  327  -4.8  100   -4.8  119   0     1010.6   NA       0.0000   9999     660   0     0    
2019/08/19  16:45:03  BASE  2.01684  324  2.63424  327  -4.8  100   -4.8  111   0     1010.6   NA       0.0000   9999     720   0     0    
2019/08/19  16:46:03  BASE  1.90512  317  2.63424  327  -4.8  100   -4.8  101   0     1010.7   NA       0.0000   9999     690   0     0    
2019/08/19  16:47:03  BASE  1.82868  328  2.63424  327  -4.8  100   -4.8  100   0     1010.7   NA       0.0000   9999     790   0     0    
2019/08/19  16:48:03  BASE  1.77576  332  2.63424  327  -4.8  100   -4.8  107   0     1010.7   NA       0.0000   9999     890   0     0    
2019/08/19  16:49:03  BASE  1.53468  329  2.63424  327  -4.8  100   -4.8  104   0     1010.8   NA       0.0000   9999     890   0     0    
2019/08/19  16:50:03  BASE  1.3524   320  2.56956  328  -4.8  100   -4.8  99    0     1010.8   NA       0.0000   9999     890   0     0    
2019/08/19  16:51:03  BASE  1.43472  307  2.56956  328  -4.8  100   -4.8  101   0     1010.8   NA       0.0000   9999     850   0     0    
2019/08/19  16:52:03  BASE  1.51116  298  2.35788  337  -4.8  100   -4.8  101   0     1010.7   NA       0.0000   9999     950   0     0    
2019/08/19  16:53:03  BASE  1.52292  297  2.29908  324  -4.8  100   -4.8  97    0     1010.7   NA       0.0000   9999     920   0     0    
2019/08/19  16:54:03  BASE  1.66992  295  2.29908  324  -4.8  100   -4.8  107   0     1010.7   NA       0.0000   9999     920   0     0    
2019/08/19  16:55:03  BASE  1.69932  295  2.29908  324  -4.8  100   -4.8  123   0     1010.7   NA       0.0000   9999     950   0     0    
2019/08/19  16:56:03  BASE  1.56996  294  2.1756   325  -4.9  100   -4.9  143   0     1010.7   NA       0.0000   9999     920   0     0    
2019/08/19  16:57:03  BASE  1.54644  293  1.90512  294  -5.0  100   -5.0  129   0     1010.8   NA       0.0000   9999     920   0     0    
2019/08/19  16:58:03  BASE  1.42884  291  1.90512  294  -5.0  100   -5.0  125   0     1010.8   NA       0.0000   9999     950   0     0    
2019/08/19  16:59:03  BASE  1.29948  292  1.90512  294  -5.1  100   -5.1  119   0     1010.8   NA       0.0000   9999     950   0     0    
2019/08/19  17:00:03  BASE  1.24656  298  1.90512  294  -5.1  100   -5.1  116   0     1010.8   NA       0.0000   9999     950   0     0    
2019/08/19  17:01:03  BASE  1.34652  298  1.90512  281  -5.1  100   -5.1  113   0     1010.8   NA       0.0000   9999     980   0     0    
2019/08/19  17:02:04  BASE  1.33476  295  1.90512  281  -5.1  100   -5.1  106   0     1010.9   NA       0.0000   9999     950   0     0    
2019/08/19  17:03:03  BASE  1.09368  298  1.90512  281  -5.1  100   -5.1  101   0     1010.9   NA       0.0000   9999     950   0     0    
2019/08/19  17:04:04  BASE  1.04664  305  1.90512  281  -5.1  100   -5.1  96    0     1010.9   NA       0.0000   9999     950   0     0    
2019/08/19  17:05:03  BASE  1.0878   312  1.90512  281  -5.1  100   -5.1  97    0     1010.9   NA       0.0000   9999     950   0     0    
2019/08/19  17:06:05  BASE  1.04076  314  1.90512  281  -5.1  100   -5.1  100   0     1010.9   NA       0.0000   9999     1080  0     0    
2019/08/19  17:07:03  BASE  1.04664  311  1.90512  281  -5.1  100   -5.1  103   0     1010.9   NA       0.0000   9999     1050  0     0    
2019/08/19  17:08:04  BASE  0.96432  316  1.90512  281  -5.1  100   -5.1  107   0     1010.8   NA       0.0000   9999     890   0     0    
2019/08/19  17:09:03  BASE  0.81144  318  1.90512  281  -5.1  100   -5.1  106   0     1010.9   NA       0.0000   9999     920   0     0    
2019/08/19  17:10:03  BASE  0.87612  313  1.90512  281  -5.1  100   -5.1  104   0     1010.9   NA       0.0000   9999     920   0     0    
2019/08/19  17:11:03  BASE  1.01136  314  1.29948  291  -5.1  100   -5.1  103   0     1010.9   NA       0.0000   9999     890   0     0    
2019/08/19  17:12:03  BASE  1.03488  312  1.24068  305  -5.1  100   -5.1  100   0     1010.9   NA       0.0000   9999     980   0     0    
2019/08/19  17:13:03  BASE  1.07604  303  1.24068  305  -5.0  100   -5.0  99    0     1010.9   NA       0.0000   9999     920   0     0    
2019/08/19  17:14:03  BASE  1.2054   300  1.35828  300  -5.0  100   -5.0  104   0     1010.9   NA       0.0000   9999     920   0     0    
2019/08/19  17:15:03  BASE  1.27008  304  1.35828  308  -5.0  100   -5.0  110   0     1010.9   NA       0.0000   9999     890   0     0    
2019/08/19  17:16:03  BASE  1.2642   310  1.39356  316  -5.0  100   -5.0  114   0     1010.9   NA       0.0000   9999     980   0     0    
2019/08/19  17:17:03  BASE  1.31124  313  1.42296  318  -5.0  100   -5.0  118   0     1010.9   NA       0.0000   9999     980   0     0    
2019/08/19  17:18:03  BASE  1.42884  312  1.60524  312  -5.0  100   -5.0  121   0     1010.9   NA       0.0000   9999     980   0     0    
2019/08/19  17:19:03  BASE  1.39356  311  1.60524  312  -5.0  100   -5.0  120   0     1011.0   NA       0.0000   9999     980   0     0    
2019/08/19  17:20:03  BASE  1.27596  312  1.60524  312  -5.0  100   -5.0  121   0     1011.1   NA       0.0000   9999     980   0     0    
2019/08/19  17:21:03  BASE  1.28184  307  1.60524  312  -5.0  100   -5.0  121   0     1011.1   NA       0.0000   9999     1020  0     0    
2019/08/19  17:22:03  BASE  1.27008  300  1.60524  312  -5.0  100   -5.0  120   0     1011.2   NA       0.0000   9999     1050  0     0    
2019/08/19  17:23:03  BASE  1.06428  297  1.60524  312  -5.0  100   -5.0  119   0     1011.3   NA       0.0000   9999     1050  0     0    
2019/08/19  17:24:04  BASE  0.89376  299  1.60524  312  -5.0  100   -5.0  118   0     1011.3   NA       0.0000   9999     1080  0     0    
2019/08/19  17:25:03  BASE  0.96432  305  1.60524  312  -5.0  100   -5.0  116   0     1011.3   NA       0.0000   9999     1120  0     0    
2019/08/19  17:26:03  BASE  1.07016  312  1.60524  312  -5.0  100   -5.0  114   0     1011.3   NA       0.0000   9999     1150  0     0    
2019/08/19  17:27:03  BASE  1.01136  309  1.60524  312  -5.0  100   -5.0  114   0     1011.3   NA       0.0000   9999     1120  0     0    
2019/08/19  17:28:04  BASE  0.94668  311  1.57584  309  -5.0  100   -5.0  110   0     1011.3   NA       0.0000   9999     1080  0     0    
2019/08/19  17:29:03  BASE  0.92904  315  1.57584  309  -5.0  100   -5.0  108   0     1011.3   NA       0.0000   9999     1080  0     0    
2019/08/19  17:30:03  BASE  0.84672  315  1.57584  309  -5.0  100   -5.0  108   0     1011.3   NA       0.0000   9999     1050  0     0    
2019/08/19  17:31:03  BASE  0.84084  323  1.42296  296  -5.0  100   -5.0  108   0     1011.2   NA       0.0000   9999     1050  0     0    
2019/08/19  17:32:04  BASE  0.87024  326  1.24068  321  -5.0  100   -5.0  108   0     1011.2   NA       0.0000   9999     1020  0     0    
2019/08/19  17:33:03  BASE  0.84672  330  1.24068  321  -5.0  100   -5.0  106   0     1011.3   NA       0.0000   9999     1020  0     0    
2019/08/19  17:34:03  BASE  0.87612  333  1.24068  321  -5.0  100   -5.0  102   0     1011.1   NA       0.0000   9999     1020  0     0    
2019/08/19  17:35:03  BASE  0.9114   327  1.24068  321  -5.0  100   -5.0  98    0     1011.1   NA       0.0000   9999     980   0     0    
2019/08/19  17:36:03  BASE  0.87612  332  1.0878   326  -5.0  100   -5.0  96    0     1011.2   NA       0.0000   9999     920   0     0    
2019/08/19  17:37:03  BASE  0.94668  337  1.24068  327  -5.0  100   -5.0  97    0     1011.2   NA       0.0000   9999     920   0     0    
2019/08/19  17:38:04  BASE  1.07016  330  1.24068  326  -5.0  100   -5.0  97    0     1011.2   NA       0.0000   9999     1020  0     0    
2019/08/19  17:39:03  BASE  1.029    333  1.24068  326  -5.0  100   -5.0  98    0     1011.1   NA       0.0000   9999     950   0     0    
2019/08/19  17:40:03  BASE  1.05252  335  1.24068  326  -5.0  100   -5.0  99    0     1011.1   NA       0.0000   9999     950   0     0    
2019/08/19  17:41:03  BASE  1.07016  335  1.24068  326  -5.0  100   -5.0  100   0     1011.1   NA       0.0000   9999     950   0     0    
2019/08/19  17:42:03  BASE  1.05252  331  1.24068  326  -5.0  100   -5.0  99    0     1011.1   NA       0.0000   9999     950   0     0    
2019/08/19  17:43:03  BASE  1.0878   330  1.29948  345  -5.0  100   -5.0  96    0     1011.1   NA       0.0000   9999     950   0     0    
2019/08/19  17:44:03  BASE  1.22304  337  1.48176  334  -5.0  100   -5.0  94    0     1011.1   NA       0.0000   9999     950   0     0    
2019/08/19  17:45:03  BASE  1.36416  338  1.48176  334  -5.0  100   -5.0  94    0     1011.1   NA       0.0000   9999     1020  21750 0    
2019/08/19  17:46:03  BASE  1.48764  330  1.69344  323  -5.0  100   -5.0  95    0     1011.1   NA       0.0000   9999     980   0     0    
2019/08/19  17:47:03  BASE  1.57584  326  1.75224  336  -5.0  100   -5.0  99    0     1011.1   NA       0.0000   9999     920   0     0    
2019/08/19  17:48:03  BASE  1.39356  329  1.75224  336  -5.0  100   -5.0  103   0     1011.1   NA       0.0000   9999     950   0     0    
2019/08/19  17:49:03  BASE  1.18776  333  1.75224  336  -5.0  100   -5.0  104   0     1011.1   NA       0.0000   9999     980   0     0    
2019/08/19  17:50:03  BASE  1.09368  333  1.75224  336  -5.0  100   -5.0  102   0     1011.1   NA       0.0000   9999     950   0     0    
2019/08/19  17:51:03  BASE  1.176    328  1.75224  336  -5.0  100   -5.0  99    0     1011.1   NA       0.0000   9999     950   0     0    
2019/08/19  17:52:03  BASE  1.28184  330  1.75224  336  -5.0  100   -5.0  95    0     1011.1   NA       0.0000   9999     950   0     0    
2019/08/19  17:53:03  BASE  1.33476  330  1.75224  336  -5.0  100   -5.0  94    0     1011.1   NA       0.0000   9999     920   0     0    
2019/08/19  17:54:02  BASE  1.37004  324  1.75224  336  -5.0  100   -5.0  94    0     1011.1   NA       0.0000   9999     920   0     0    
2019/08/19  17:55:03  BASE  1.25244  320  1.75224  336  -5.0  100   -5.0  98    0     1011.1   NA       0.0000   9999     980   0     0    
2019/08/19  17:56:03  BASE  1.25244  324  1.75224  336  -5.0  100   -5.0  105   0     1011.1   NA       0.0000   9999     920   0     0    
2019/08/19  17:57:03  BASE  1.28184  324  1.63464  325  -5.0  100   -5.0  108   0     1011.1   NA       0.0000   9999     950   0     0    
2019/08/19  17:58:03  BASE  1.21716  320  1.63464  325  -5.0  100   -5.0  109   0     1011.1   NA       0.0000   9999     1050  0     0    
2019/08/19  17:59:03  BASE  1.33476  326  1.75224  328  -5.0  100   -5.0  113   0     1011.2   NA       0.0000   9999     950   0     0    
2019/08/19  18:00:03  BASE  1.4112   326  1.75224  328  -5.1  100   -5.1  116   0     1011.2   NA       0.0000   9999     950   0     0    
2019/08/19  18:01:03  BASE  1.22304  321  1.75224  328  -5.1  100   -5.1  113   0     1011.3   NA       0.0000   9999     1020  0     0    
2019/08/19  18:02:04  BASE  1.18188  316  1.75224  328  -5.1  100   -5.1  117   0     1011.3   NA       0.0000   9999     1020  0     0    
2019/08/19  18:03:03  BASE  1.176    311  1.75224  328  -5.1  100   -5.1  123   0     1011.3   NA       0.0000   9999     1020  0     0    
2019/08/19  18:04:03  BASE  0.93492  304  1.75224  328  -5.1  100   -5.1  107   0     1011.3   NA       0.0000   9999     920   0     0    
2019/08/19  18:05:03  BASE  0.69972  325  1.75224  328  -5.1  100   -5.1  106   0     1011.3   NA       0.0000   9999     1020  0     0    
2019/08/19  18:06:04  BASE  0.78792  349  1.75224  328  -5.1  100   -5.1  104   0     1011.3   NA       0.0000   9999     980   0     0    
2019/08/19  18:07:03  BASE  1.01136  341  1.75224  328  -5.1  100   -5.1  101   0     1011.3   NA       0.0000   9999     920   0     0    
2019/08/19  18:08:03  BASE  1.15248  331  1.75224  328  -5.1  100   -5.1  101   0     1011.3   NA       0.0000   9999     950   0     0    
2019/08/19  18:09:03  BASE  1.08192  334  1.45236  325  -5.1  100   -5.1  100   0     1011.3   NA       0.0000   9999     890   0     0    
2019/08/19  18:10:03  BASE  0.882    332  1.35828  318  -5.1  100   -5.1  99    0     1011.3   NA       0.0000   9999     920   0     0    
2019/08/19  18:11:03  BASE  0.89376  325  1.35828  318  -5.1  100   -5.1  96    0     1011.3   NA       0.0000   9999     950   0     0    
2019/08/19  18:12:04  BASE  0.94668  333  1.32888  332  -5.1  100   -5.1  94    0     1011.3   NA       0.0000   9999     950   0     0    
2019/08/19  18:13:04  BASE  0.45864  339  1.32888  332  -5.1  100   -5.1  96    0     1011.4   NA       0.0000   9999     890   0     0    
2019/08/19  18:14:03  BASE  0.12348  335  1.32888  332  -5.1  100   -5.1  99    0     1011.5   NA       0.0000   9999     920   0     0    
2019/08/19  18:15:03  BASE  0.65856  339  1.32888  332  -5.1  100   -5.1  92    0     1011.5   NA       0.0000   9999     980   0     0    
2019/08/19  18:16:03  BASE  1.08192  329  1.32888  332  -5.1  100   -5.1  88    0     1011.5   NA       0.0000   9999     1020  0     0    
2019/08/19  18:17:03  BASE  1.07016  315  1.32888  332  -5.1  100   -5.1  90    0     1011.5   NA       0.0000   9999     980   0     0    
2019/08/19  18:18:04  BASE  1.02312  314  1.27008  330  -5.1  100   -5.1  99    0     1011.6   NA       0.0000   9999     0     0     0    
2019/08/19  18:19:03  BASE  0.96432  309  1.27008  330  -5.1  100   -5.1  107   0     1011.6   NA       0.0000   9999     1020  0     0    
2019/08/19  18:20:03  BASE  0.89964  304  1.27008  330  -5.1  100   -5.1  144   0     1011.6   NA       0.0000   9999     1020  0     0    
2019/08/19  18:21:03  BASE  0.8232   307  1.27008  330  -5.1  100   -5.1  112   0     1011.6   NA       0.0000   9999     1050  1770  0    
2019/08/19  18:22:03  BASE  0.81144  321  1.27008  330  -5.1  100   -5.1  98    0     1011.6   NA       0.0000   9999     1050  1840  0    
2019/08/19  18:23:03  BASE  0.94668  331  1.27008  330  -5.1  100   -5.1  95    0     1011.6   NA       0.0000   9999     1120  1840  0    
2019/08/19  18:24:03  BASE  1.04076  331  1.27008  330  -5.1  100   -5.1  93    0     1011.6   NA       0.0000   9999     0     0     0    
2019/08/19  18:25:03  BASE  0.98196  325  1.27008  330  -5.1  100   -5.1  94    0     1011.6   NA       0.0000   9999     0     0     0    
2019/08/19  18:26:03  BASE  0.91728  317  1.27008  330  -5.2  100   -5.2  95    0     1011.6   NA       0.0000   9999     0     0     0    
2019/08/19  18:27:03  BASE  0.84672  309  1.27008  330  -5.2  100   -5.2  97    0     1011.6   NA       0.0000   9999     0     0     0    
2019/08/19  18:28:03  BASE  0.75264  308  1.27008  330  -5.2  100   -5.2  100   0     1011.7   NA       0.0000   9999     0     0     0    
2019/08/19  18:29:03  BASE  0.75264  311  1.27008  330  -5.2  100   -5.2  99    0     1011.7   NA       0.0000   9999     1210  0     0    
2019/08/19  18:30:03  BASE  0.80556  310  1.27008  330  -5.2  100   -5.2  101   0     1011.7   NA       0.0000   9999     1310  0     0    
2019/08/19  18:31:03  BASE  0.8526   317  1.27008  330  -5.3  100   -5.3  100   0     1011.7   NA       0.0000   9999     0     0     0    
2019/08/19  18:32:03  BASE  0.97608  321  1.27008  330  -5.3  100   -5.3  93    0     1011.7   NA       0.0000   9999     0     0     0    
2019/08/19  18:33:03  BASE  1.0878   322  1.21128  322  -5.3  100   -5.3  94    0     1011.6   NA       0.0000   9999     0     0     0    
2019/08/19  18:34:03  BASE  1.1172   322  1.29948  310  -5.3  100   -5.3  100   0     1011.6   NA       0.0000   9999     0     0     0    
2019/08/19  18:35:03  BASE  1.07604  318  1.29948  310  -5.3  100   -5.3  111   0     1011.7   NA       0.0000   9999     0     0     0    
2019/08/19  18:36:03  BASE  1.00548  319  1.29948  310  -5.3  100   -5.3  122   0     1011.6   NA       0.0000   9999     0     0     0    
2019/08/19  18:37:03  BASE  0.96432  323  1.29948  310  -5.3  100   -5.3  123   0     1011.6   NA       0.0000   9999     0     0     0    
2019/08/19  18:38:03  BASE  0.882    326  1.29948  310  -5.3  100   -5.3  118   0     1011.7   NA       0.0000   9999     0     0     0    
2019/08/19  18:39:03  BASE  0.81732  327  1.29948  310  -5.3  100   -5.3  116   0     1011.7   NA       0.0000   9999     0     0     0    
2019/08/19  18:40:03  BASE  0.7056   334  1.29948  310  -5.3  100   -5.3  115   0     1011.7   NA       0.0000   9999     0     0     0    
2019/08/19  18:41:03  BASE  0.63504  344  1.29948  310  -5.3  100   -5.3  105   0     1011.7   NA       0.0000   9999     0     0     0    
2019/08/19  18:42:03  BASE  0.72912  349  1.29948  310  -5.3  100   -5.3  84    0     1011.7   NA       0.0000   9999     1210  0     0    
2019/08/19  18:43:03  BASE  0.8232   351  1.29948  310  -5.3  100   -5.3  75    0     1011.7   NA       0.0000   9999     1180  0     0    
2019/08/19  18:44:03  BASE  0.7938   348  1.0878   320  -5.3  100   -5.3  72    0     1011.7   NA       0.0000   9999     1080  0     0    
2019/08/19  18:45:03  BASE  0.80556  355  1.0878   320  -5.3  100   -5.3  71    0     1011.7   NA       0.0000   9999     1120  0     0    
2019/08/19  18:46:03  BASE  0.81732  5    1.029    348  -5.3  100   -5.3  71    0     1011.6   NA       0.0000   9999     1080  0     0    
2019/08/19  18:47:03  BASE  0.80556  4    1.029    348  -5.3  100   -5.3  72    0     1011.6   NA       0.0000   9999     1080  0     0    
2019/08/19  18:48:03  BASE  0.84672  3    1.029    348  -5.3  100   -5.3  72    0     1011.6   NA       0.0000   9999     1080  0     0    
2019/08/19  18:49:03  BASE  0.78792  352  1.029    348  -5.3  100   -5.3  73    0     1011.6   NA       0.0000   9999     1120  0     0    
2019/08/19  18:50:03  BASE  0.74088  350  1.029    348  -5.3  100   -5.3  77    0     1011.7   NA       0.0000   9999     1080  0     0    
2019/08/19  18:51:03  BASE  0.75264  354  1.029    348  -5.3  100   -5.3  75    0     1011.7   NA       0.0000   9999     1080  0     0    
2019/08/19  18:52:04  BASE  0.69384  350  1.029    348  -5.3  100   -5.3  70    0     1011.7   NA       0.0000   9999     1050  0     0    
2019/08/19  18:53:03  BASE  0.72324  353  0.93492  5    -5.3  100   -5.3  66    0     1011.6   NA       0.0000   9999     1050  0     0    
2019/08/19  18:54:03  BASE  0.8232   360  0.93492  5    -5.3  100   -5.3  66    0     1011.6   NA       0.0000   9999     1080  0     0    
2019/08/19  18:55:03  BASE  0.78792  3    0.90552  353  -5.3  100   -5.3  66    0     1011.6   NA       0.0000   9999     1080  0     0    
2019/08/19  18:56:09  BASE  0.75852  7    0.90552  353  -5.3  100   -5.3  66    0     1011.6   NA       0.0000   9999     1050  0     0    
2019/08/19  18:57:03  BASE  0.81144  7    0.9702   14   -5.3  100   -5.3  66    0     1011.5   NA       0.0000   9999     1080  0     0    
2019/08/19  18:58:03  BASE  0.97608  8    1.1466   10   -5.3  100   -5.3  65    0     1011.5   NA       0.0000   9999     1050  0     0    
2019/08/19  18:59:03  BASE  1.06428  8    1.1466   354  -5.3  100   -5.3  66    0     1011.5   NA       0.0000   9999     1050  0     0    
2019/08/19  19:00:03  BASE  1.00548  8    1.1466   354  -5.3  100   -5.3  67    0     1011.5   NA       0.0000   9999     1080  0     0    
2019/08/19  19:01:03  BASE  1.01136  10   1.1466   6    -5.3  100   -5.3  68    0     1011.6   NA       0.0000   9999     1050  0     0    
2019/08/19  19:02:03  BASE  1.0584   5    1.1466   360  -5.3  100   -5.3  67    0     1011.6   NA       0.0000   9999     1080  0     0    
2019/08/19  19:03:03  BASE  1.11132  359  1.24068  120  -5.3  100   -5.3  65    0     1011.6   NA       0.0000   9999     1050  0     0    
2019/08/19  19:04:03  BASE  1.09956  0    1.24068  6    -5.2  100   -5.2  65    0     1011.6   NA       0.0000   9999     1020  0     0    
2019/08/19  19:05:03  BASE  1.09368  358  1.24068  2    -5.2  100   -5.2  66    0     1011.6   NA       0.0000   9999     1080  0     0    
2019/08/19  19:06:03  BASE  1.09368  346  1.24068  2    -5.2  100   -5.2  67    0     1011.6   NA       0.0000   9999     1050  0     0    
2019/08/19  19:07:03  BASE  1.07016  347  1.24068  2    -5.2  100   -5.2  69    0     1011.6   NA       0.0000   9999     1120  0     0    
2019/08/19  19:08:03  BASE  1.15836  355  1.35828  346  -5.2  100   -5.2  68    0     1011.5   NA       0.0000   9999     980   0     0    
2019/08/19  19:09:03  BASE  1.24068  350  1.48176  353  -5.2  100   -5.2  66    0     1011.5   NA       0.0000   9999     950   0     0    
2019/08/19  19:10:03  BASE  1.34652  343  1.63464  341  -5.2  100   -5.2  64    0     1011.5   NA       0.0000   9999     980   0     0    
2019/08/19  19:11:03  BASE  1.4112   343  1.63464  341  -5.2  100   -5.2  65    0     1011.5   NA       0.0000   9999     980   0     0    
2019/08/19  19:12:03  BASE  1.40532  335  1.63464  341  -5.2  100   -5.2  65    0     1011.5   NA       0.0000   9999     1020  0     0    
2019/08/19  19:13:03  BASE  1.3524   328  1.63464  341  -5.2  100   -5.2  65    0     1011.5   NA       0.0000   9999     0     0     0    
2019/08/19  19:14:03  BASE  1.28772  329  1.63464  341  -5.2  100   -5.2  63    0     1011.5   NA       0.0000   9999     980   0     0    
2019/08/19  19:15:03  BASE  1.25244  332  1.63464  341  -5.3  100   -5.3  64    0     1011.5   NA       0.0000   9999     0     0     0    
2019/08/19  19:16:03  BASE  1.29948  339  1.63464  341  -5.3  100   -5.3  63    0     1011.5   NA       0.0000   9999     980   0     0    
2019/08/19  19:17:03  BASE  1.34064  337  1.63464  341  -5.3  100   -5.3  61    0     1011.5   NA       0.0000   9999     0     0     0    
2019/08/19  19:18:03  BASE  1.37592  336  1.63464  341  -5.3  100   -5.3  61    0     1011.6   NA       0.0000   9999     1020  0     0    
2019/08/19  19:19:03  BASE  1.323    339  1.63464  341  -5.3  100   -5.3  61    0     1011.6   NA       0.0000   9999     980   0     0    
2019/08/19  19:20:03  BASE  1.22892  336  1.57584  340  -5.3  100   -5.3  61    0     1011.6   NA       0.0000   9999     0     0     0    
2019/08/19  19:21:03  BASE  1.2642   335  1.57584  340  -5.3  100   -5.3  61    0     1011.6   NA       0.0000   9999     0     0     0    
2019/08/19  19:22:03  BASE  1.31124  334  1.57584  340  -5.2  100   -5.2  61    0     1011.6   NA       0.0000   9999     0     0     0    
2019/08/19  19:23:03  BASE  1.33476  337  1.57584  340  -5.2  100   -5.2  61    0     1011.6   NA       0.0000   9999     980   0     0    
2019/08/19  19:24:03  BASE  1.15836  336  1.57584  340  -5.3  100   -5.3  61    0     1011.7   NA       0.0000   9999     980   0     0    
2019/08/19  19:25:03  BASE  1.11132  337  1.69344  336  -5.3  100   -5.3  61    0     1011.7   NA       0.0000   9999     980   0     0    
2019/08/19  19:26:03  BASE  1.43472  330  1.90512  328  -5.3  100   -5.3  61    0     1011.7   NA       0.0000   9999     920   0     0    
2019/08/19  19:27:03  BASE  1.5582   323  1.90512  328  -5.3  100   -5.3  61    0     1011.7   NA       0.0000   9999     980   0     0    
2019/08/19  19:28:03  BASE  1.50528  331  1.90512  328  -5.3  100   -5.3  61    0     1011.7   NA       0.0000   9999     950   0     0    
2019/08/19  19:29:03  BASE  1.62876  336  1.90512  328  -5.3  100   -5.3  58    0     1011.6   NA       0.0000   9999     920   0     0    
2019/08/19  19:30:03  BASE  1.56408  336  1.90512  328  -5.2  100   -5.2  54    0     1011.6   NA       0.0000   9999     920   0     0    
2019/08/19  19:31:03  BASE  1.42884  333  1.90512  328  -5.2  100   -5.2  53    0     1011.7   NA       0.0000   9999     950   0     0    
2019/08/19  19:32:03  BASE  1.51116  335  1.90512  328  -5.3  100   -5.3  53    0     1011.7   NA       0.0000   9999     980   0     0    
2019/08/19  19:33:03  BASE  1.56996  338  1.90512  328  -5.3  100   -5.3  54    0     1011.7   NA       0.0000   9999     980   0     0    
2019/08/19  19:34:03  BASE  1.56408  337  1.90512  328  -5.3  100   -5.3  54    0     1011.7   NA       0.0000   9999     950   0     0    
2019/08/19  19:35:04  BASE  1.54644  335  1.90512  328  -5.3  100   -5.3  53    0     1011.7   NA       0.0000   9999     950   0     0    
2019/08/19  19:36:03  BASE  1.47     330  1.87572  342  -5.3  100   -5.4  53    0     1011.7   NA       0.0000   9999     980   0     0    
2019/08/19  19:37:03  BASE  1.38768  330  1.87572  342  -5.4  100   -5.4  52    0     1011.7   NA       0.0000   9999     0     0     0    
2019/08/19  19:38:03  BASE  1.48764  332  1.87572  342  -5.4  100   -5.4  50    0     1011.7   NA       0.0000   9999     950   0     0    
2019/08/19  19:39:03  BASE  1.66404  334  1.81692  341  -5.5  100   -5.5  49    0     1011.7   NA       0.0000   9999     0     0     0    
2019/08/19  19:40:03  BASE  1.69344  335  1.81692  341  -5.5  100   -5.5  48    0     1011.7   NA       0.0000   9999     0     0     0    
2019/08/19  19:41:03  BASE  1.617    335  1.81692  341  -5.5  100   -5.5  47    0     1011.7   NA       0.0000   9999     0     0     0    
2019/08/19  19:42:03  BASE  1.57584  336  1.81692  341  -5.5  100   -5.5  46    0     1011.7   NA       0.0000   9999     0     0     0    
2019/08/19  19:43:03  BASE  1.59936  334  1.81692  341  -5.5  100   -5.5  45    0     1011.8   NA       0.0000   9999     0     0     0    
2019/08/19  19:44:04  BASE  1.5582   331  1.81692  341  -5.5  100   -5.5  44    0     1011.9   NA       0.0000   9999     0     0     0    
2019/08/19  19:45:03  BASE  1.45236  332  1.81692  341  -5.5  100   -5.5  43    0     1011.9   NA       0.0000   9999     0     0     0    
2019/08/19  19:46:03  BASE  1.39356  336  1.81692  341  -5.5  100   -5.5  41    0     1012.0   NA       0.0000   9999     0     0     0    
2019/08/19  19:47:03  BASE  1.44648  335  1.81692  335  -5.5  100   -5.5  41    0     1012.0   NA       0.0000   9999     1050  0     0    
2019/08/19  19:48:03  BASE  1.54644  328  1.81692  335  -5.5  100   -5.5  40    0     1011.9   NA       0.0000   9999     0     0     0    
2019/08/19  19:49:03  BASE  1.51704  327  1.81692  335  -5.5  100   -5.5  39    0     1011.9   NA       0.0000   9999     1380  0     0    
2019/08/19  19:50:03  BASE  1.46412  329  1.81692  335  -5.5  100   -5.5  38    0     1012.0   NA       0.0000   9999     950   1380  0    
2019/08/19  19:51:03  BASE  1.52292  329  1.81692  335  -5.5  100   -5.5  37    0     1012.0   NA       0.0000   9999     0     0     0    
2019/08/19  19:52:03  BASE  1.57584  325  1.81692  335  -5.5  100   -5.5  37    0     1012.0   NA       0.0000   9999     1280  0     0    
2019/08/19  19:53:03  BASE  1.54056  319  1.81692  335  -5.5  100   -5.5  36    0     1012.1   NA       0.0000   9999     1210  0     0    
2019/08/19  19:54:03  BASE  1.47     323  1.81692  335  -5.5  100   -5.5  35    0     1012.1   NA       0.0000   9999     0     0     0    
2019/08/19  19:55:03  BASE  1.52292  328  1.81692  335  -5.6  100   -5.6  34    0     1012.0   NA       0.0000   9999     1210  0     0    
2019/08/19  19:56:03  BASE  1.65816  325  1.90512  322  -5.6  100   -5.6  33    0     1012.0   NA       0.0000   9999     1210  0     0    
2019/08/19  19:57:03  BASE  1.72284  325  1.90512  321  -5.5  100   -5.5  32    0     1012.0   NA       0.0000   9999     0     0     0    
2019/08/19  19:58:03  BASE  1.75812  326  1.90512  322  -5.5  100   -5.5  31    0     1012.0   NA       0.0000   9999     0     0     0    
2019/08/19  19:59:03  BASE  1.71696  328  1.90512  322  -5.5  100   -5.5  31    0     1012.0   NA       0.0000   9999     1180  0     0    
2019/08/19  20:00:03  BASE  1.62876  334  1.90512  322  -5.5  100   -5.5  30    0     1012.0   NA       0.0000   9999     1080  0     0    
2019/08/19  20:01:03  BASE  1.71108  334  2.058    330  -5.4  100   -5.4  29    0     1012.0   NA       0.0000   9999     0     0     0    
2019/08/19  20:02:03  BASE  1.66404  331  2.058    330  -5.4  100   -5.4  28    0     1012.0   NA       0.0000   9999     0     0     0    
2019/08/19  20:03:03  BASE  1.46412  336  2.058    330  -5.4  100   -5.4  27    0     1012.0   NA       0.0000   9999     0     0     0    
2019/08/19  20:04:03  BASE  1.45236  347  2.058    330  -5.3  100   -5.3  26    0     1012.0   NA       0.0000   9999     0     0     0    
2019/08/19  20:05:03  BASE  1.43472  355  2.058    330  -5.3  100   -5.3  25    0     1012.0   NA       0.0000   9999     0     0     0    
2019/08/19  20:06:05  BASE  1.29948  351  2.058    330  -5.3  100   -5.3  24    0     1011.9   NA       0.0000   9999     0     0     0    
2019/08/19  20:07:03  BASE  1.39944  356  2.058    330  -5.3  100   -5.3  23    0     1011.9   NA       0.0000   9999     0     0     0    
2019/08/19  20:08:03  BASE  1.52292  0    2.058    330  -5.3  100   -5.3  22    0     1011.9   NA       0.0000   9999     0     0     0    
2019/08/19  20:09:03  BASE  1.44648  357  2.058    330  -5.3  100   -5.3  21    0     1011.9   NA       0.0000   9999     0     0     0    
2019/08/19  20:10:03  BASE  1.37592  359  2.058    330  -5.3  100   -5.3  21    0     1012.0   NA       0.0000   9999     0     0     0    
2019/08/19  20:11:03  BASE  1.35828  350  1.81692  330  -5.3  100   -5.3  19    0     1012.0   NA       0.0000   9999     0     0     0    
2019/08/19  20:12:03  BASE  1.24656  339  1.69344  360  -5.3  100   -5.3  18    0     1012.1   NA       0.0000   9999     890   0     0    
2019/08/19  20:13:03  BASE  1.30536  337  1.69344  360  -5.3  100   -5.3  17    0     1012.1   NA       0.0000   9999     920   0     0    
2019/08/19  20:14:03  BASE  1.45824  324  1.75224  306  -5.3  100   -5.3  15    0     1012.2   NA       0.0000   9999     890   0     0    
2019/08/19  20:15:03  BASE  1.32888  308  1.75224  306  -5.3  100   -5.3  15    0     1012.2   NA       0.0000   9999     950   0     0    
2019/08/19  20:16:03  BASE  1.2642   303  1.75224  306  -5.3  100   -5.3  14    0     1012.3   NA       0.0000   9999     1020  0     0    
2019/08/19  20:17:03  BASE  1.17012  300  1.75224  306  -5.3  100   -5.3  13    0     1012.3   NA       0.0000   9999     980   0     0    
2019/08/19  20:18:03  BASE  1.0584   307  1.75224  306  -5.3  100   -5.3  12    0     1012.3   NA       0.0000   9999     920   0     0    
2019/08/19  20:19:03  BASE  1.18188  321  1.75224  306  -5.4  100   -5.4  12    0     1012.3   NA       0.0000   9999     920   0     0    
2019/08/19  20:20:03  BASE  1.27596  330  1.75224  306  -5.5  100   -5.5  11    0     1012.3   NA       0.0000   9999     0     0     0    
2019/08/19  20:21:03  BASE  1.21128  332  1.75224  306  -5.5  100   -5.5  10    0     1012.3   NA       0.0000   9999     0     0     0    
2019/08/19  20:22:03  BASE  1.16424  331  1.75224  306  -5.5  100   -5.5  10    0     1012.3   NA       0.0000   9999     0     0     0    
2019/08/19  20:23:03  BASE  1.12896  333  1.75224  306  -5.5  100   -5.5  9     0     1012.3   NA       0.0000   9999     1050  0     0    
2019/08/19  20:24:03  BASE  1.13484  337  1.42296  323  -5.5  100   -5.5  9     0     1012.2   NA       0.0000   9999     920   0     0    
2019/08/19  20:25:03  BASE  1.27008  338  1.48176  336  -5.5  100   -5.5  8     0     1012.2   NA       0.0000   9999     890   0     0    
2019/08/19  20:26:03  BASE  1.3524   345  1.48176  336  -5.5  100   -5.5  8     0     1012.2   NA       0.0000   9999     890   0     0    
2019/08/19  20:27:03  BASE  1.30536  349  1.48176  336  -5.5  100   -5.5  7     0     1012.2   NA       0.0000   9999     890   0     0    
2019/08/19  20:28:04  BASE  1.31124  348  1.48176  336  -5.5  100   -5.5  7     0     1012.2   NA       0.0000   9999     890   0     0    
2019/08/19  20:29:03  BASE  1.42884  349  1.63464  346  -5.5  100   -5.5  6     0     1012.2   NA       0.0000   9999     950   0     0    
2019/08/19  20:30:03  BASE  1.5876   352  1.90512  1    -5.5  100   -5.5  5     0     1012.2   NA       0.0000   9999     920   0     0    
2019/08/19  20:31:03  BASE  1.7346   357  1.9992   360  -5.5  100   -5.5  5     0     1012.2   NA       0.0000   9999     920   0     0    
2019/08/19  20:32:03  BASE  1.84632  357  2.058    349  -5.5  100   -5.5  4     0     1012.2   NA       0.0000   9999     950   0     0    
2019/08/19  20:33:03  BASE  1.76988  358  2.058    349  -5.4  100   -5.4  4     0     1012.2   NA       0.0000   9999     0     0     0    
2019/08/19  20:34:03  BASE  1.54056  356  2.058    349  -5.4  100   -5.4  3     0     1012.2   NA       0.0000   9999     1020  0     0    
2019/08/19  20:35:03  BASE  1.54056  353  2.058    349  -5.3  100   -5.3  3     0     1012.2   NA       0.0000   9999     1050  0     0    
2019/08/19  20:36:03  BASE  1.66404  351  2.058    349  -5.3  100   -5.3  2     0     1012.2   NA       0.0000   9999     1050  0     0    
2019/08/19  20:37:03  BASE  1.71696  350  2.058    349  -5.3  100   -5.3  2     0     1012.2   NA       0.0000   9999     950   0     0    
2019/08/19  20:38:03  BASE  1.75812  350  2.058    349  -5.3  100   -5.3  2     0     1012.2   NA       0.0000   9999     1020  0     0    
2019/08/19  20:39:03  BASE  1.86396  351  2.0874   351  -5.3  100   -5.3  2     0     1012.2   NA       0.0000   9999     0     0     0    
2019/08/19  20:40:03  BASE  1.95804  354  2.1462   352  -5.3  100   -5.3  2     0     1012.2   NA       0.0000   9999     890   0     0    
2019/08/19  20:41:03  BASE  1.9404   354  2.1462   352  -5.3  100   -5.3  1     0     1012.2   NA       0.0000   9999     890   0     0    
2019/08/19  20:42:03  BASE  1.84632  351  2.1462   352  -5.3  100   -5.3  1     0     1012.2   NA       0.0000   9999     950   0     0    
2019/08/19  20:43:03  BASE  1.8816   349  2.1462   354  -5.3  100   -5.3  1     0     1012.2   NA       0.0000   9999     920   0     0    
2019/08/19  20:44:03  BASE  1.95804  345  2.1462   354  -5.3  100   -5.3  1     0     1012.2   NA       0.0000   9999     890   0     0    
2019/08/19  20:45:03  BASE  1.8228   340  2.1462   354  -5.4  100   -5.4  1     0     1012.2   NA       0.0000   9999     850   0     0    
2019/08/19  20:46:03  BASE  1.65228  329  2.1462   354  -5.4  100   -5.4  1     0     1012.2   NA       0.0000   9999     820   0     0    
2019/08/19  20:47:03  BASE  1.57584  321  2.1462   354  -5.5  100   -5.5  1     0     1012.3   NA       0.0000   9999     820   0     0    
2019/08/19  20:48:03  BASE  1.80516  331  2.21088  333  -5.5  100   -5.5  1     0     1012.3   NA       0.0000   9999     790   0     0    
2019/08/19  20:49:03  BASE  1.9698   334  2.21088  333  -5.4  100   -5.4  1     0     1012.3   NA       0.0000   9999     690   0     0    
2019/08/19  20:50:03  BASE  1.7346   326  2.21088  333  -5.3  100   -5.3  1     0     1012.4   NA       0.0000   9999     750   0     0    
2019/08/19  20:51:03  BASE  1.54056  331  2.21088  333  -5.3  100   -5.3  1     0     1012.4   NA       0.0000   9999     590   0     0    
2019/08/19  20:52:03  BASE  1.5288   347  2.21088  333  -5.2  100   -5.2  1     0     1012.4   NA       0.0000   9999     520   0     0    
2019/08/19  20:53:03  BASE  1.66992  347  2.21088  333  -5.1  100   -5.1  1     0     1012.3   NA       0.0000   9999     560   0     0    
2019/08/19  20:54:03  BASE  1.7052   339  2.21088  333  -5.1  100   -5.1  1     0     1012.4   NA       0.0000   9999     520   0     0    
2019/08/19  20:55:03  BASE  1.48176  345  2.21088  333  -5.1  100   -5.1  1     0     1012.5   NA       0.0000   9999     520   0     0    
2019/08/19  20:56:03  BASE  1.45824  351  2.21088  333  -5.1  100   -5.1  1     0     1012.5   NA       0.0000   9999     520   0     0    
2019/08/19  20:57:03  BASE  1.45236  345  2.21088  333  -5.0  100   -5.0  1     0     1012.5   NA       0.0000   9999     590   0     0    
2019/08/19  20:58:03  BASE  1.29948  342  2.058    314  -5.0  100   -5.0  1     0     1012.5   NA       0.0000   9999     520   0     0    
2019/08/19  20:59:03  BASE  1.38768  344  1.9992   332  -5.0  100   -5.0  1     0     1012.5   NA       0.0000   9999     560   0     0    
2019/08/19  21:00:03  BASE  1.42296  344  1.9992   332  -5.0  100   -5.0  1     0     1012.5   NA       0.0000   9999     590   0     0    
2019/08/19  21:01:03  BASE  1.42884  345  1.9992   332  -4.9  100   -4.9  1     0     1012.5   NA       0.0000   9999     690   0     0    
2019/08/19  21:02:03  BASE  1.66992  345  2.1756   340  -4.9  100   -4.9  1     0     1012.4   NA       0.0000   9999     620   0     0    
2019/08/19  21:03:03  BASE  1.64052  353  2.1756   340  -4.8  100   -4.8  1     0     1012.5   NA       0.0000   9999     490   0     0    
2019/08/19  21:04:03  BASE  1.59348  347  2.1756   340  -4.8  100   -4.8  1     0     1012.5   NA       0.0000   9999     490   0     0    
2019/08/19  21:05:03  BASE  1.55232  332  2.1756   340  -4.8  100   -4.8  1     0     1012.5   NA       0.0000   9999     460   0     0    
2019/08/19  21:06:05  BASE  1.38768  336  2.1756   340  -4.8  100   -4.8  1     0     1012.5   NA       0.0000   9999     430   0     0    
2019/08/19  21:07:03  BASE  1.19952  331  2.1756   340  -4.8  100   -4.8  1     0     1012.5   NA       0.0000   9999     360   0     0    
2019/08/19  21:08:04  BASE  1.14072  335  2.1756   340  -4.8  100   -4.8  1     0     1012.5   NA       0.0000   9999     300   0     0    
2019/08/19  21:09:03  BASE  1.29948  351  2.1756   340  -4.8  100   -4.8  1     0     1012.5   NA       0.0000   9999     300   0     0    
2019/08/19  21:10:03  BASE  1.48176  359  2.1756   340  -4.8  100   -4.8  1     0     1012.5   NA       0.0000   9999     260   0     0    
2019/08/19  21:11:03  BASE  1.48764  354  2.1756   340  -4.8  100   -4.8  1     0     1012.5   NA       0.0000   9999     430   0     0    
2019/08/19  21:12:03  BASE  1.44648  345  1.81692  5    -4.8  100   -4.8  1     0     1012.5   NA       0.0000   9999     430   0     0    
2019/08/19  21:13:03  BASE  1.41708  346  1.81692  5    -4.8  100   -4.8  1     0     1012.5   NA       0.0000   9999     330   0     0    
2019/08/19  21:14:04  BASE  1.2054   357  1.81692  5    -4.7  100   -4.7  1     0     1012.5   NA       0.0000   9999     200   0     0    
2019/08/19  21:15:03  BASE  1.176    356  1.81692  5    -4.7  100   -4.7  1     0     1012.5   NA       0.0000   9999     160   0     0    
2019/08/19  21:16:03  BASE  1.17012  333  1.81692  5    -4.7  100   -4.7  1     0     1012.5   NA       0.0000   9999     230   0     0    
2019/08/19  21:17:03  BASE  1.03488  330  1.81692  5    -4.7  100   -4.7  1     0     1012.5   NA       0.0000   9999     200   0     0    
2019/08/19  21:18:03  BASE  0.9114   337  1.81692  5    -4.7  100   -4.7  1     0     1012.5   NA       0.0000   9999     0     0     0    
2019/08/19  21:19:03  BASE  1.05252  338  1.81692  5    -4.7  100   -4.7  1     0     1012.5   NA       0.0000   9999     0     0     0    
2019/08/19  21:20:03  BASE  1.27008  337  1.66404  350  -4.7  100   -4.7  1     0     1012.5   NA       0.0000   9999     300   0     0    
2019/08/19  21:21:03  BASE  1.13484  336  1.66404  350  -4.7  100   -4.7  0     0     1012.6   NA       0.0000   9999     200   0     0    
2019/08/19  21:22:03  BASE  1.01136  340  1.57584  348  -4.7  100   -4.7  0     0     1012.5   NA       0.0000   9999     0     0     0    
2019/08/19  21:23:03  BASE  1.18776  344  1.54056  345  -4.7  100   -4.7  0     0     1012.5   NA       0.0000   9999     200   0     0    
2019/08/19  21:24:03  BASE  1.31712  341  1.54056  345  -4.7  100   -4.7  0     0     1012.5   NA       0.0000   9999     0     0     0    
2019/08/19  21:25:03  BASE  1.31124  334  1.54056  345  -4.7  100   -4.7  0     0     1012.6   NA       0.0000   9999     0     0     0    
2019/08/19  21:26:03  BASE  1.22304  332  1.54056  345  -4.7  100   -4.7  0     0     1012.6   NA       0.0000   9999     0     0     0    
2019/08/19  21:27:03  BASE  1.2348   336  1.54056  333  -4.7  100   -4.7  0     0     1012.7   NA       0.0000   9999     0     0     0    
2019/08/19  21:28:04  BASE  1.28184  339  1.75224  341  -4.7  100   -4.7  0     0     1012.7   NA       0.0000   9999     0     0     0    
2019/08/19  21:29:03  BASE  1.44648  336  1.84632  327  -4.7  100   -4.7  0     0     1012.7   NA       0.0000   9999     200   0     0    
2019/08/19  21:30:03  BASE  1.5582   335  1.84632  327  -4.7  100   -4.7  0     0     1012.7   NA       0.0000   9999     200   0     0    
2019/08/19  21:31:03  BASE  1.45236  342  1.84632  327  -4.7  100   -4.7  0     0     1012.7   NA       0.0000   9999     160   0     0    
2019/08/19  21:32:03  BASE  1.37004  358  1.84632  327  -4.6  100   -4.6  0     0     1012.7   NA       0.0000   9999     200   0     0    
2019/08/19  21:33:03  BASE  1.18776  359  1.84632  327  -4.6  100   -4.6  0     0     1012.7   NA       0.0000   9999     0     0     0    
2019/08/19  21:34:03  BASE  1.10544  353  1.84632  327  -4.7  100   -4.7  0     0     1012.8   NA       0.0000   9999     200   0     0    
2019/08/19  21:35:03  BASE  1.0584   355  1.84632  327  -4.7  100   -4.7  0     0     1012.8   NA       0.0000   9999     200   0     0    
2019/08/19  21:36:04  BASE  0.98196  2    1.84632  327  -4.6  100   -4.6  0     0     1012.8   NA       0.0000   9999     230   0     0    
2019/08/19  21:37:04  BASE  0.89376  358  1.84632  327  -4.7  100   -4.7  0     0     1012.8   NA       0.0000   9999     260   0     0    
2019/08/19  21:38:03  BASE  1.07604  343  1.84632  327  -4.7  100   -4.7  0     0     1012.8   NA       0.0000   9999     260   0     0    
2019/08/19  21:39:03  BASE  1.39944  341  1.57584  331  -4.6  100   -4.6  0     0     1012.8   NA       0.0000   9999     230   0     0    
2019/08/19  21:40:03  BASE  1.39944  351  1.54056  350  -4.6  100   -4.6  0     0     1012.8   NA       0.0000   9999     0     0     0    
2019/08/19  21:41:03  BASE  1.3524   349  1.57584  345  -4.6  100   -4.6  0     0     1012.8   NA       0.0000   9999     260   0     0    
2019/08/19  21:42:03  BASE  1.25244  345  1.57584  345  -4.6  100   -4.6  0     0     1012.8   NA       0.0000   9999     230   0     0    
2019/08/19  21:43:03  BASE  1.07016  351  1.57584  345  -4.6  100   -4.6  0     0     1012.8   NA       0.0000   9999     0     0     0    
2019/08/19  21:44:03  BASE  1.13484  359  1.57584  345  -4.6  100   -4.6  0     0     1012.8   NA       0.0000   9999     0     0     0    
2019/08/19  21:45:03  BASE  1.24068  358  1.57584  345  -4.6  100   -4.6  0     0     1012.8   NA       0.0000   9999     200   0     0    
2019/08/19  21:46:03  BASE  1.13484  358  1.57584  345  -4.6  100   -4.6  0     0     1012.8   NA       0.0000   9999     200   0     0    
2019/08/19  21:47:03  BASE  1.04076  357  1.57584  345  -4.6  100   -4.6  0     0     1012.8   NA       0.0000   9999     0     0     0    
2019/08/19  21:48:03  BASE  0.9996   351  1.57584  345  -4.6  100   -4.6  0     0     1012.7   NA       0.0000   9999     0     0     0    
2019/08/19  21:49:03  BASE  1.12308  356  1.57584  345  -4.6  100   -4.6  0     0     1012.7   NA       0.0000   9999     230   0     0    
2019/08/19  21:50:03  BASE  1.25244  5    1.57584  345  -4.6  100   -4.6  0     0     1012.7   NA       0.0000   9999     260   0     0    
2019/08/19  21:51:03  BASE  1.2348   4    1.48176  10   -4.6  100   -4.6  0     0     1012.7   NA       0.0000   9999     230   0     0    
2019/08/19  21:52:04  BASE  1.19364  2    1.48176  10   -4.6  100   -4.6  0     0     1012.7   NA       0.0000   9999     260   0     0    
2019/08/19  21:53:03  BASE  1.09956  1    1.48176  10   -4.6  100   -4.6  0     0     1012.7   NA       0.0000   9999     330   0     0    
2019/08/19  21:54:03  BASE  1.1172   3    1.48176  10   -4.6  100   -4.6  0     0     1012.6   NA       0.0000   9999     390   0     0    
2019/08/19  21:55:03  BASE  1.2054   4    1.48176  10   -4.6  100   -4.6  0     0     1012.6   NA       0.0000   9999     360   0     0    
2019/08/19  21:56:03  BASE  1.18776  0    1.48176  10   -4.6  100   -4.6  0     0     1012.7   NA       0.0000   9999     330   6660  0    
2019/08/19  21:57:03  BASE  1.11132  356  1.48176  10   -4.6  100   -4.6  0     0     1012.7   NA       0.0000   9999     300   0     0    
2019/08/19  21:58:03  BASE  1.00548  355  1.48176  10   -4.6  100   -4.6  0     0     1012.8   NA       0.0000   9999     300   0     0    
2019/08/19  21:59:03  BASE  0.87024  352  1.35828  1    -4.5  100   -4.5  0     0     1012.8   NA       0.0000   9999     430   0     0    
2019/08/19  22:00:04  BASE  0.75264  353  1.35828  1    -4.5  100   -4.5  0     0     1012.8   NA       0.0000   9999     390   0     0    
2019/08/19  22:01:03  BASE  0.69972  9    1.35828  1    -4.5  100   -4.5  0     0     1012.8   NA       0.0000   9999     490   0     0    
2019/08/19  22:02:03  BASE  0.7644   15   1.35828  1    -4.5  100   -4.5  0     0     1012.8   NA       0.0000   9999     460   0     0    
2019/08/19  22:03:03  BASE  1.00548  7    1.35828  1    -4.5  100   -4.5  0     0     1012.8   NA       0.0000   9999     520   0     0    
2019/08/19  22:04:03  BASE  1.029    4    1.32888  1    -4.5  100   -4.5  0     0     1012.8   NA       0.0000   9999     490   0     0    
2019/08/19  22:05:01  BASE  0.90552  3    1.32888  1    -4.5  100   -4.5  0     0     1012.8   NA       0.0000   9999     560   6530  0    
2019/08/19  22:06:04  BASE  0.97608  357  1.32888  1    -4.5  100   -4.5  0     0     1012.8   NA       0.0000   9999     560   6590  0    
2019/08/19  22:07:03  BASE  0.89964  8    1.32888  1    -4.4  100   -4.4  0     0     1012.8   NA       0.0000   9999     390   0     0    
2019/08/19  22:08:03  BASE  0.71148  24   1.32888  1    -4.4  100   -4.4  0     0     1012.8   NA       0.0000   9999     660   1900  0    
2019/08/19  22:09:03  BASE  0.50568  21   1.32888  1    -4.4  100   -4.4  0     0     1012.8   NA       0.0000   9999     790   2000  0    
2019/08/19  22:10:03  BASE  0.19404  20   1.32888  1    -4.4  100   -4.4  0     0     1012.8   NA       0.0000   9999     790   2000  0    
2019/08/19  22:11:03  BASE  0        19   1.32888  1    -4.4  100   -4.4  0     0     1012.8   NA       0.0000   9999     820   0     0    
2019/08/19  22:12:04  BASE  0        15   1.32888  1    -4.4  100   -4.4  0     0     1012.8   NA       0.0000   9999     750   1970  0    
2019/08/19  22:13:02  BASE  0        25   1.18188  350  -4.4  100   -4.4  0     0     1012.8   NA       0.0000   9999     590   2030  0    
2019/08/19  22:14:03  BASE  0        23   1.18188  350  -4.4  100   -4.4  0     0     1012.8   NA       0.0000   9999     620   1970  0    
2019/08/19  22:15:03  BASE  0        14   1.1466   345  -4.4  100   -4.4  0     0     1012.8   NA       0.0000   9999     660   1940  0    
2019/08/19  22:16:03  BASE  0        15   0.9702   19   -4.4  100   -4.4  0     0     1012.8   NA       0.0000   9999     750   1940  0    
2019/08/19  22:17:02  BASE  0        24   0.75852  10   -4.4  100   -4.4  0     0     1012.8   NA       0.0000   9999     660   1940  0    
2019/08/19  22:18:03  BASE  0.19404  31   0.9702   28   -4.4  100   -4.4  0     0     1012.8   NA       0.0000   9999     660   1940  0    
2019/08/19  22:19:03  BASE  0.34692  24   0.9702   28   -4.3  100   -4.3  0     0     1012.7   NA       0.0000   9999     620   1900  0    
2019/08/19  22:20:03  BASE  0.48804  30   1.21128  50   -4.3  100   -4.3  0     0     1012.7   NA       0.0000   9999     560   1770  0    
2019/08/19  22:21:03  BASE  0.97608  42   1.42296  41   -4.3  100   -4.3  0     0     1012.7   NA       0.0000   9999     820   1770  0    
2019/08/19  22:22:03  BASE  1.3524   30   1.54056  28   -4.3  100   -4.3  0     0     1012.7   NA       0.0000   9999     850   1710  0    
2019/08/19  22:23:03  BASE  1.2054   21   1.54056  28   -4.3  100   -4.3  0     0     1012.7   NA       0.0000   9999     750   1710  0    
2019/08/19  22:24:03  BASE  0.88788  6    1.54056  28   -4.3  100   -4.3  0     0     1012.7   NA       0.0000   9999     820   1670  0    
2019/08/19  22:25:03  BASE  0.65268  352  1.54056  28   -4.3  100   -4.3  0     0     1012.8   NA       0.0000   9999     950   1610  6330 
2019/08/19  22:26:03  BASE  0.62328  342  1.54056  28   -4.3  100   -4.3  0     0     1012.8   NA       0.0000   9999     950   1570  6330 
2019/08/19  22:27:04  BASE  0.82908  337  1.54056  28   -4.3  100   -4.3  0     0     1012.8   NA       0.0000   9999     1570  6300  0    
2019/08/19  22:28:04  BASE  0.88788  355  1.54056  28   -4.2  100   -4.2  0     0     1012.8   NA       0.0000   9999     1540  6300  0    
2019/08/19  22:29:03  BASE  0.87024  6    1.54056  28   -4.2  100   -4.2  0     0     1012.7   NA       0.0000   9999     1540  0     0    
2019/08/19  22:30:03  BASE  0.92904  17   1.54056  28   -4.2  100   -4.2  0     0     1012.7   NA       0.0000   9999     1570  6330  0    
2019/08/19  22:31:03  BASE  1.21128  16   1.57584  4    -4.2  100   -4.2  0     0     1012.6   NA       0.0000   9999     950   1670  2660 
2019/08/19  22:32:04  BASE  1.48764  4    1.66404  4    -4.2  100   -4.2  0     0     1012.6   NA       0.0000   9999     1080  1570  2660 
2019/08/19  22:33:03  BASE  1.56408  358  1.72284  110  -4.2  100   -4.2  0     0     1012.6   NA       0.0000   9999     1510  2690  0    
2019/08/19  22:34:03  BASE  1.51116  1    1.72284  110  -4.2  100   -4.2  0     0     1012.5   NA       0.0000   9999     1540  2690  0    
2019/08/19  22:35:03  BASE  1.37592  3    1.72284  110  -4.2  100   -4.2  0     0     1012.5   NA       0.0000   9999     1510  2660  0    
2019/08/19  22:36:03  BASE  1.2642   356  1.72284  110  -4.1  100   -4.1  0     0     1012.5   NA       0.0000   9999     1480  2690  0    
2019/08/19  22:37:04  BASE  1.21716  351  1.72284  110  -4.1  100   -4.1  0     0     1012.5   NA       0.0000   9999     1480  2620  0    
2019/08/19  22:38:03  BASE  1.14072  345  1.72284  110  -4.1  100   -4.1  0     0     1012.6   NA       0.0000   9999     1310  2430  0    
2019/08/19  22:39:03  BASE  0.95844  339  1.72284  110  -4.1  100   -4.1  0     0     1012.7   NA       0.0000   9999     1210  2330  0    
2019/08/19  22:40:03  BASE  0.78792  339  1.72284  110  -4.0  100   -4.0  0     0     1012.7   NA       0.0000   9999     1050  0     0    
2019/08/19  22:41:03  BASE  0.57036  337  1.72284  110  -4.0  100   -4.0  0     0     1012.7   NA       0.0000   9999     1050  0     0    
2019/08/19  22:42:03  BASE  0.54684  334  1.72284  110  -4.0  100   -4.0  0     0     1012.8   NA       0.0000   9999     980   0     0    
2019/08/19  22:43:03  BASE  0.69384  331  1.48176  360  -4.0  100   -4.0  0     0     1012.8   NA       0.0000   9999     1080  0     0    
2019/08/19  22:44:04  BASE  0.8232   328  1.45236  3    -4.0  100   -4.0  0     0     1012.8   NA       0.0000   9999     950   0     0    
2019/08/19  22:45:03  BASE  0.85848  338  1.29948  353  -4.0  100   -4.0  0     0     1012.8   NA       0.0000   9999     890   0     0    
2019/08/19  22:46:03  BASE  0.45864  8    1.29948  353  -4.0  100   -4.0  0     0     1012.8   NA       0.0000   9999     690   0     0    
2019/08/19  22:47:04  BASE  0.1176   3    1.0878   341  -3.9  100   -3.9  0     0     1012.8   NA       0.0000   9999     820   0     0    
2019/08/19  22:48:03  BASE  0.48216  322  1.0584   311  -3.9  100   -3.9  0     0     1012.8   NA       0.0000   9999     890   0     0    
2019/08/19  22:49:03  BASE  0.88788  308  1.0584   317  -3.9  100   -3.9  0     0     1012.8   NA       0.0000   9999     950   0     0    
2019/08/19  22:50:03  BASE  0.92904  307  1.0584   317  -3.8  100   -3.8  0     0     1012.8   NA       0.0000   9999     950   0     0    
2019/08/19  22:51:04  BASE  0.65856  300  1.0584   317  -3.8  100   -3.8  0     0     1012.8   NA       0.0000   9999     920   0     0    
2019/08/19  22:52:03  BASE  0.35868  312  1.0584   317  -3.8  100   -3.8  0     0     1012.8   NA       0.0000   9999     890   0     0    
2019/08/19  22:53:03  BASE  0.39984  335  1.0584   317  -3.7  100   -3.7  0     0     1012.8   NA       0.0000   9999     980   0     0    
2019/08/19  22:54:04  BASE  0.38808  342  1.0584   317  -3.7  100   -3.7  0     0     1012.8   NA       0.0000   9999     1050  0     0    
2019/08/19  22:55:04  BASE  0.15876  331  1.0584   317  -3.7  100   -3.7  0     0     1012.8   NA       0.0000   9999     950   0     0    
2019/08/19  22:56:03  BASE  0.36456  309  1.0584   317  -3.7  100   -3.7  0     0     1012.8   NA       0.0000   9999     980   0     0    
2019/08/19  22:57:04  BASE  0.7644   306  1.0878   299  -3.7  100   -3.7  0     0     1012.8   NA       0.0000   9999     1020  0     0    
2019/08/19  22:58:03  BASE  0.39396  321  1.0878   299  -3.7  100   -3.7  0     0     1012.8   NA       0.0000   9999     590   0     0    
2019/08/19  22:59:04  BASE  0.05292  330  1.0878   299  -3.7  100   -3.7  0     0     1012.8   NA       0.0000   9999     690   0     0    
2019/08/19  23:00:03  BASE  0.39396  323  1.0878   299  -3.7  100   -3.7  0     0     1012.8   NA       0.0000   9999     750   0     0    
2019/08/19  23:01:03  BASE  0.75264  316  1.0878   299  -3.6  100   -3.6  0     0     1012.8   NA       0.0000   9999     490   0     0    
2019/08/19  23:02:03  BASE  0.57624  323  1.0878   299  -3.6  100   -3.6  0     0     1012.7   NA       0.0000   9999     460   0     0    
2019/08/19  23:03:03  BASE  0.60564  331  1.0878   299  -3.6  100   -3.6  0     0     1012.7   NA       0.0000   9999     460   0     0    
2019/08/19  23:04:04  BASE  0.88788  334  1.1172   344  -3.6  100   -3.6  0     0     1012.7   NA       0.0000   9999     750   0     0    
2019/08/19  23:05:04  BASE  1.1172   339  1.42296  340  -3.6  100   -3.6  0     0     1012.6   NA       0.0000   9999     690   0     0    
2019/08/19  23:06:05  BASE  1.39944  337  1.66404  333  -3.6  100   -3.6  0     0     1012.6   NA       0.0000   9999     790   0     0    
2019/08/19  23:07:03  BASE  1.51704  335  1.81692  329  -3.6  100   -3.6  0     0     1012.6   NA       0.0000   9999     820   0     0    
2019/08/19  23:08:03  BASE  1.39944  335  1.81692  329  -3.6  100   -3.6  0     0     1012.6   NA       0.0000   9999     820   0     0    
2019/08/19  23:09:03  BASE  1.22892  328  1.81692  329  -3.6  100   -3.6  0     0     1012.6   NA       0.0000   9999     820   0     0    
2019/08/19  23:10:03  BASE  1.30536  315  1.81692  329  -3.6  100   -3.6  0     0     1012.6   NA       0.0000   9999     820   0     0    
2019/08/19  23:11:03  BASE  1.2054   313  1.81692  329  -3.5  100   -3.5  0     0     1012.6   NA       0.0000   9999     850   0     0    
2019/08/19  23:12:03  BASE  0.90552  318  1.81692  329  -3.5  100   -3.5  0     0     1012.6   NA       0.0000   9999     590   0     0    
2019/08/19  23:13:04  BASE  0.46452  329  1.81692  329  -3.5  100   -3.5  0     0     1012.6   NA       0.0000   9999     620   0     0    
2019/08/19  23:14:03  BASE  0.07644  355  1.81692  329  -3.6  100   -3.6  0     0     1012.6   NA       0.0000   9999     590   0     0    
2019/08/19  23:15:03  BASE  0.22344  357  1.81692  329  -3.5  100   -3.5  0     0     1012.6   NA       0.0000   9999     750   0     0    
2019/08/19  23:16:03  BASE  0.6174   337  1.81692  329  -3.5  100   -3.5  0     0     1012.7   NA       0.0000   9999     920   0     0    
2019/08/19  23:17:03  BASE  0.7938   329  1.42296  312  -3.5  100   -3.5  0     0     1012.7   NA       0.0000   9999     1050  0     0    
2019/08/19  23:18:03  BASE  0.882    332  1.42296  312  -3.5  100   -3.5  0     0     1012.8   NA       0.0000   9999     820   0     0    
2019/08/19  23:19:03  BASE  0.90552  334  1.42296  312  -3.5  100   -3.5  0     0     1012.8   NA       0.0000   9999     690   0     0    
2019/08/19  23:20:03  BASE  1.03488  332  1.35828  329  -3.5  100   -3.5  0     0     1012.7   NA       0.0000   9999     820   0     0    
2019/08/19  23:21:04  BASE  1.48764  331  2.0874   330  -3.5  100   -3.5  0     0     1012.7   NA       0.0000   9999     820   0     0    
2019/08/19  23:22:03  BASE  1.79928  323  2.0874   330  -3.5  100   -3.5  0     0     1012.7   NA       0.0000   9999     790   0     0    
2019/08/19  23:23:03  BASE  1.79928  314  2.0874   330  -3.5  100   -3.5  0     0     1012.7   NA       0.0000   9999     750   0     0    
2019/08/19  23:24:03  BASE  1.64052  311  2.0874   330  -3.6  100   -3.6  0     0     1012.7   NA       0.0000   9999     620   0     0    
2019/08/19  23:25:03  BASE  1.45824  314  2.0874   330  -3.6  100   -3.6  0     0     1012.7   NA       0.0000   9999     520   0     0    
2019/08/19  23:26:03  BASE  1.29948  319  2.0874   330  -3.6  100   -3.6  0     0     1012.7   NA       0.0000   9999     620   0     0    
2019/08/19  23:27:03  BASE  1.16424  330  2.0874   330  -3.5  100   -3.5  0     0     1012.7   NA       0.0000   9999     690   0     0    
2019/08/19  23:28:03  BASE  1.0878   340  2.0874   330  -3.5  100   -3.5  0     0     1012.7   NA       0.0000   9999     690   0     0    
2019/08/19  23:29:03  BASE  1.1172   339  2.0874   330  -3.5  100   -3.5  0     0     1012.7   NA       0.0000   9999     790   0     0    
2019/08/19  23:30:03  BASE  1.41708  335  2.0874   330  -3.5  100   -3.5  0     0     1012.7   NA       0.0000   9999     850   0     0    
2019/08/19  23:31:03  BASE  1.54056  336  1.90512  315  -3.5  100   -3.5  0     0     1012.7   NA       0.0000   9999     560   0     0    
2019/08/19  23:32:03  BASE  1.42296  338  1.81692  311  -3.5  100   -3.5  0     0     1012.7   NA       0.0000   9999     390   0     0    
2019/08/19  23:33:03  BASE  1.56408  333  2.0286   309  -3.6  100   -3.6  0     0     1012.7   NA       0.0000   9999     520   0     0    
2019/08/19  23:34:03  BASE  1.42296  318  2.0286   309  -3.6  100   -3.6  0     0     1012.7   NA       0.0000   9999     360   0     0    
2019/08/19  23:35:03  BASE  1.19952  313  2.0286   309  -3.5  100   -3.5  0     0     1012.8   NA       0.0000   9999     330   0     0    
2019/08/19  23:36:03  BASE  1.27596  320  2.0286   309  -3.5  100   -3.5  0     0     1012.8   NA       0.0000   9999     430   0     0    
2019/08/19  23:37:03  BASE  1.2936   326  2.0286   309  -3.5  100   -3.5  0     0     1012.8   NA       0.0000   9999     460   0     0    
2019/08/19  23:38:03  BASE  1.31124  328  2.0286   309  -3.5  100   -3.5  0     0     1012.8   NA       0.0000   9999     490   0     0    
2019/08/19  23:39:03  BASE  1.37592  331  2.0286   309  -3.5  100   -3.5  0     0     1012.7   NA       0.0000   9999     520   0     0    
2019/08/19  23:40:03  BASE  1.47     336  2.0286   309  -3.5  100   -3.5  0     0     1012.7   NA       0.0000   9999     820   0     0    
2019/08/19  23:41:03  BASE  1.69932  336  2.21088  335  -3.5  100   -3.5  0     0     1012.7   NA       0.0000   9999     660   0     0    
2019/08/19  23:42:03  BASE  1.78164  329  2.21088  335  -3.5  100   -3.5  0     0     1012.7   NA       0.0000   9999     490   0     0    
2019/08/19  23:43:03  BASE  1.43472  323  2.21088  335  -3.4  100   -3.4  0     0     1012.7   NA       0.0000   9999     490   0     0    
2019/08/19  23:44:03  BASE  1.2054   321  2.21088  335  -3.4  100   -3.4  0     0     1012.8   NA       0.0000   9999     360   0     0    
2019/08/19  23:45:03  BASE  1.42296  323  2.21088  335  -3.4  100   -3.4  0     0     1012.8   NA       0.0000   9999     620   0     0    
2019/08/19  23:46:03  BASE  1.82868  322  2.26968  322  -3.3  100   -3.3  0     0     1012.8   NA       0.0000   9999     390   1410  0    
2019/08/19  23:47:03  BASE  1.9698   324  2.26968  322  -3.3  100   -3.3  0     0     1012.8   NA       0.0000   9999     300   1250  0    
2019/08/19  23:48:04  BASE  1.85808  332  2.26968  322  -3.4  100   -3.4  0     0     1012.7   NA       0.0000   9999     330   0     0    
2019/08/19  23:49:03  BASE  1.63464  336  2.26968  322  -3.4  100   -3.4  0     0     1012.7   NA       0.0000   9999     260   0     0    
2019/08/19  23:50:03  BASE  1.5876   337  2.26968  322  -3.4  100   -3.4  0     0     1012.7   NA       0.0000   9999     300   0     0    
2019/08/19  23:51:03  BASE  1.82868  335  2.26968  322  -3.4  100   -3.4  0     0     1012.7   NA       0.0000   9999     460   0     0    
2019/08/19  23:52:04  BASE  1.90512  327  2.26968  322  -3.4  100   -3.4  0     0     1012.7   NA       0.0000   9999     660   0     0    
2019/08/19  23:53:03  BASE  2.05212  327  2.48136  331  -3.4  100   -3.4  0     0     1012.7   NA       0.0000   9999     390   0     0    
2019/08/19  23:54:03  BASE  2.34612  334  2.54016  333  -3.4  100   -3.4  0     0     1012.6   NA       0.0000   9999     390   1150  0    
2019/08/19  23:55:03  BASE  2.31672  335  2.54016  333  -3.4  100   -3.4  0     0     1012.6   NA       0.0000   9999     260   0     0    
2019/08/19  23:56:03  BASE  2.28732  335  2.54016  339  -3.4  100   -3.4  0     0     1012.6   NA       0.0000   9999     260   0     0    
2019/08/19  23:57:03  BASE  2.34612  337  2.54016  339  -3.4  100   -3.4  0     0     1012.6   NA       0.0000   9999     230   0     0    
2019/08/19  23:58:03  BASE  2.26968  342  2.54016  339  -3.4  100   -3.4  0     0     1012.6   NA       0.0000   9999     460   0     0    
2019/08/19  23:59:03  BASE  2.39316  343  2.78124  339  -3.4  100   -3.4  0     0     1012.6   NA       0.0000   9999     520   0     0